[[{"header":{"parameterUnit":"m.s-1","parameterCategory":1,"la1":30.6,"la2":29.2853,"lo1":-89.7004,"lo2":-87.6739,"dx":0.0162,"dy":0.0183,"nx":112,"ny":82,"refTime":"2022-12-01T06:00:00:Z","depth":0,"parameterNumber":2,"parameterNumberName":"U-component_of_WINDS"},"data":[0.0,0.0,0.0,0.0,0.0,0.0,0.0,0.0,0.0,0.0,0.0,0.0,0.0,0.0,0.0,0.0,0.0,0.0,0.0,0.0,0.0,0.0,0.0,0.0,0.0,0.0,0.0,0.0,0.0,0.0,0.0,0.0,0.0,0.0,0.0,0.0,0.0,0.0,0.0,0.0,0.0,0.0,0.0,0.0,0.0,0.0,0.0,0.0,0.0,0.0,0.0,0.0,0.0,0.0,0.0,0.0,0.0,0.0,0.0,0.0,0.0,0.0,0.0,0.0,0.0,0.0,0.0,0.0,0.0,0.0,0.0,0.0,0.0,0.0,0.0,0.0,0.0,0.0,0.0,0.0,0.0,0.0,0.0,0.0,0.0,0.0,0.0,0.0,0.0,0.0,-2.114,-2.3347,-2.285,-2.2214,-2.1879,-2.1335,-2.0912,-2.0703,0.0,0.0,0.0,0.0,0.0,0.0,0.0,0.0,0.0,0.0,0.0,0.0,0.0,0.0,0.0,0.0,0.0,0.0,0.0,0.0,0.0,0.0,0.0,0.0,0.0,0.0,0.0,0.0,0.0,0.0,0.0,0.0,0.0,0.0,0.0,0.0,0.0,0.0,0.0,0.0,0.0,0.0,0.0,0.0,0.0,0.0,0.0,0.0,0.0,0.0,0.0,0.0,0.0,0.0,0.0,0.0,0.0,0.0,0.0,0.0,0.0,0.0,0.0,0.0,0.0,0.0,0.0,0.0,0.0,0.0,0.0,0.0,0.0,0.0,0.0,0.0,0.0,0.0,0.0,0.0,0.0,0.0,0.0,0.0,0.0,0.0,0.0,0.0,0.0,0.0,0.0,0.0,0.0,0.0,0.0,0.0,0.0,0.0,0.0,0.0,0.0,0.0,0.0,0.0,-2.3169,-2.3565,-2.3015,-2.2604,-2.2553,-2.2448,-2.1904,-2.0763,0.0,0.0,0.0,0.0,0.0,0.0,0.0,0.0,0.0,0.0,0.0,0.0,0.0,0.0,0.0,0.0,0.0,0.0,0.0,0.0,0.0,0.0,0.0,0.0,0.0,0.0,0.0,0.0,0.0,0.0,0.0,0.0,0.0,0.0,0.0,0.0,0.0,0.0,0.0,0.0,0.0,0.0,0.0,0.0,0.0,0.0,0.0,0.0,0.0,0.0,0.0,0.0,0.0,0.0,0.0,0.0,0.0,0.0,0.0,0.0,0.0,0.0,0.0,0.0,0.0,0.0,0.0,0.0,0.0,0.0,0.0,0.0,0.0,0.0,0.0,0.0,0.0,0.0,0.0,0.0,0.0,0.0,0.0,0.0,0.0,0.0,0.0,0.0,0.0,0.0,0.0,0.0,0.0,0.0,0.0,0.0,0.0,0.0,0.0,0.0,0.0,0.0,0.0,-2.2867,-2.361,-2.3598,-2.3351,-2.3197,-2.3197,-2.2897,-2.2283,-2.1306,-2.0617,0.0,0.0,0.0,0.0,0.0,0.0,0.0,0.0,0.0,0.0,0.0,0.0,0.0,0.0,0.0,0.0,0.0,0.0,0.0,0.0,0.0,0.0,0.0,0.0,0.0,0.0,0.0,0.0,0.0,0.0,0.0,0.0,0.0,0.0,0.0,0.0,0.0,0.0,0.0,0.0,0.0,0.0,0.0,0.0,0.0,0.0,0.0,0.0,0.0,0.0,0.0,0.0,0.0,0.0,0.0,0.0,0.0,0.0,0.0,0.0,0.0,0.0,0.0,0.0,0.0,0.0,0.0,0.0,0.0,0.0,0.0,0.0,0.0,0.0,0.0,0.0,0.0,0.0,0.0,0.0,0.0,0.0,0.0,0.0,0.0,0.0,0.0,0.0,0.0,0.0,0.0,0.0,0.0,0.0,0.0,0.0,0.0,0.0,0.0,0.0,0.0,0.0,-2.3667,-2.39,-2.3841,-2.3984,-2.4014,-2.3849,-2.3415,-2.2727,-2.1754,-2.1231,0.0,0.0,0.0,0.0,0.0,0.0,0.0,0.0,0.0,0.0,0.0,0.0,0.0,0.0,0.0,0.0,0.0,0.0,0.0,0.0,0.0,0.0,0.0,0.0,0.0,0.0,0.0,0.0,0.0,0.0,0.0,0.0,0.0,0.0,0.0,0.0,0.0,0.0,0.0,0.0,0.0,0.0,0.0,0.0,0.0,0.0,0.0,0.0,0.0,0.0,0.0,0.0,0.0,0.0,0.0,0.0,0.0,0.0,0.0,0.0,0.0,0.0,0.0,0.0,0.0,0.0,0.0,0.0,0.0,0.0,0.0,0.0,0.0,0.0,0.0,0.0,0.0,0.0,0.0,0.0,0.0,0.0,0.0,0.0,0.0,0.0,0.0,0.0,0.0,0.0,0.0,0.0,0.0,0.0,0.0,0.0,0.0,0.0,0.0,0.0,0.0,0.0,-2.3859,-2.4822,-2.456,-2.5083,-2.5202,-2.459,-2.4485,-2.3678,-2.1814,-2.165,0.0,0.0,0.0,0.0,0.0,0.0,0.0,0.0,0.0,0.0,0.0,0.0,0.0,0.0,0.0,0.0,0.0,0.0,0.0,0.0,0.0,0.0,0.0,0.0,0.0,0.0,0.0,0.0,0.0,0.0,0.0,0.0,0.0,0.0,0.0,0.0,0.0,0.0,0.0,0.0,0.0,0.0,0.0,0.0,0.0,0.0,0.0,0.0,0.0,0.0,0.0,0.0,0.0,0.0,0.0,0.0,0.0,0.0,0.0,0.0,0.0,0.0,0.0,0.0,0.0,0.0,0.0,0.0,0.0,0.0,0.0,0.0,0.0,0.0,0.0,0.0,0.0,0.0,0.0,0.0,0.0,0.0,0.0,0.0,0.0,0.0,0.0,0.0,0.0,0.0,0.0,0.0,0.0,0.0,0.0,0.0,0.0,0.0,0.0,0.0,0.0,0.0,-2.4079,-2.4867,-2.5196,-2.5442,-2.551,-2.5247,-2.4844,-2.4111,-2.2951,0.0,0.0,0.0,0.0,0.0,0.0,0.0,0.0,0.0,0.0,0.0,0.0,0.0,0.0,0.0,0.0,0.0,0.0,0.0,0.0,0.0,0.0,0.0,0.0,0.0,0.0,0.0,0.0,0.0,0.0,0.0,0.0,0.0,0.0,0.0,0.0,0.0,0.0,0.0,0.0,0.0,0.0,0.0,0.0,0.0,0.0,0.0,0.0,0.0,0.0,0.0,0.0,0.0,0.0,0.0,0.0,0.0,0.0,0.0,0.0,0.0,0.0,0.0,0.0,0.0,0.0,0.0,0.0,0.0,0.0,0.0,0.0,0.0,0.0,0.0,0.0,0.0,0.0,0.0,0.0,0.0,0.0,0.0,0.0,0.0,0.0,0.0,0.0,0.0,0.0,0.0,0.0,0.0,0.0,0.0,0.0,0.0,0.0,0.0,0.0,0.0,0.0,-2.3489,-2.4574,-2.5397,-2.5869,-2.6108,-2.6153,-2.5944,-2.551,-2.4754,-2.367,0.0,0.0,0.0,0.0,0.0,0.0,0.0,0.0,0.0,0.0,0.0,0.0,0.0,0.0,0.0,0.0,0.0,0.0,0.0,0.0,0.0,0.0,0.0,0.0,0.0,0.0,0.0,0.0,0.0,0.0,0.0,0.0,0.0,0.0,0.0,0.0,0.0,0.0,0.0,0.0,0.0,0.0,0.0,0.0,0.0,0.0,0.0,0.0,0.0,0.0,0.0,0.0,0.0,0.0,0.0,0.0,0.0,0.0,0.0,0.0,0.0,0.0,0.0,0.0,0.0,0.0,0.0,0.0,0.0,0.0,0.0,0.0,0.0,0.0,0.0,0.0,0.0,0.0,0.0,0.0,0.0,0.0,0.0,0.0,0.0,0.0,0.0,0.0,0.0,0.0,0.0,0.0,0.0,0.0,0.0,0.0,0.0,0.0,0.0,0.0,0.0,0.0,-2.3623,-2.536,-2.6602,-2.6617,-2.7225,-2.7345,-2.6686,-2.6626,-2.5749,0.0,0.0,0.0,0.0,0.0,0.0,0.0,0.0,0.0,0.0,0.0,0.0,0.0,0.0,0.0,0.0,0.0,0.0,0.0,0.0,0.0,0.0,0.0,0.0,0.0,0.0,0.0,0.0,0.0,0.0,0.0,0.0,0.0,0.0,0.0,0.0,0.0,0.0,0.0,0.0,0.0,0.0,0.0,0.0,0.0,0.0,0.0,0.0,0.0,0.0,0.0,0.0,0.0,0.0,0.0,0.0,0.0,0.0,0.0,0.0,0.0,0.0,0.0,0.0,0.0,0.0,0.0,0.0,0.0,0.0,0.0,0.0,0.0,0.0,0.0,0.0,0.0,0.0,0.0,0.0,0.0,0.0,0.0,0.0,0.0,0.0,0.0,0.0,0.0,0.0,0.0,0.0,0.0,0.0,0.0,0.0,0.0,0.0,0.0,0.0,0.0,0.0,0.0,-2.4245,-2.6063,-2.7495,-2.7949,-2.8618,-2.8753,-2.8068,-2.7585,-2.6851,-2.5779,0.0,0.0,0.0,0.0,0.0,0.0,0.0,0.0,0.0,0.0,0.0,0.0,0.0,0.0,0.0,0.0,0.0,0.0,0.0,0.0,0.0,0.0,0.0,0.0,0.0,0.0,0.0,0.0,0.0,0.0,0.0,0.0,0.0,0.0,0.0,0.0,0.0,0.0,0.0,0.0,0.0,0.0,0.0,0.0,0.0,0.0,0.0,0.0,0.0,0.0,0.0,0.0,0.0,0.0,0.0,0.0,0.0,0.0,0.0,0.0,0.0,0.0,0.0,0.0,0.0,0.0,0.0,0.0,0.0,0.0,0.0,0.0,0.0,0.0,0.0,0.0,0.0,0.0,0.0,0.0,0.0,0.0,0.0,0.0,0.0,0.0,0.0,0.0,0.0,0.0,0.0,0.0,0.0,0.0,0.0,0.0,0.0,0.0,0.0,0.0,0.0,0.0,-2.5706,-2.7081,-2.8274,-2.8921,-2.934,-2.9457,-2.9026,-2.8633,-2.8004,-2.7061,0.0,0.0,0.0,0.0,0.0,0.0,0.0,0.0,0.0,0.0,0.0,0.0,0.0,0.0,0.0,0.0,0.0,0.0,0.0,0.0,0.0,0.0,0.0,0.0,0.0,0.0,0.0,0.0,0.0,0.0,0.0,0.0,0.0,0.0,0.0,0.0,0.0,0.0,0.0,0.0,0.0,0.0,0.0,0.0,0.0,0.0,0.0,0.0,0.0,0.0,0.0,0.0,0.0,0.0,0.0,0.0,0.0,0.0,0.0,0.0,0.0,0.0,0.0,0.0,0.0,0.0,0.0,0.0,0.0,0.0,0.0,0.0,0.0,0.0,0.0,0.0,0.0,0.0,0.0,0.0,0.0,0.0,0.0,0.0,0.0,0.0,0.0,0.0,0.0,0.0,0.0,0.0,0.0,0.0,0.0,0.0,0.0,0.0,0.0,0.0,0.0,0.0,-2.7485,-2.8304,-2.9011,-2.9636,-2.9756,-2.9744,-2.9696,-2.9696,-2.9142,-2.7869,0.0,0.0,0.0,0.0,0.0,0.0,0.0,0.0,0.0,0.0,0.0,0.0,0.0,0.0,0.0,0.0,0.0,0.0,0.0,0.0,0.0,0.0,0.0,0.0,0.0,0.0,0.0,0.0,0.0,0.0,0.0,0.0,0.0,0.0,0.0,0.0,0.0,0.0,0.0,0.0,0.0,0.0,0.0,0.0,0.0,0.0,0.0,0.0,0.0,0.0,0.0,0.0,0.0,0.0,0.0,0.0,0.0,0.0,0.0,0.0,-2.2671,-2.0607,0.0,0.0,0.0,0.0,0.0,0.0,0.0,0.0,0.0,0.0,0.0,0.0,0.0,0.0,0.0,0.0,0.0,0.0,0.0,0.0,0.0,0.0,0.0,0.0,0.0,0.0,0.0,0.0,0.0,0.0,0.0,0.0,0.0,0.0,0.0,0.0,0.0,0.0,0.0,0.0,-2.752,-2.9041,-3.0148,-3.0298,-3.0791,-3.0868,-3.0357,-3.0313,-2.9983,-2.9232,-2.7914,0.0,0.0,0.0,0.0,0.0,0.0,0.0,0.0,0.0,0.0,0.0,0.0,0.0,0.0,0.0,0.0,0.0,0.0,0.0,0.0,0.0,0.0,0.0,0.0,0.0,0.0,0.0,0.0,0.0,0.0,0.0,0.0,0.0,0.0,0.0,0.0,0.0,0.0,0.0,0.0,0.0,0.0,0.0,0.0,0.0,0.0,0.0,0.0,0.0,0.0,0.0,0.0,0.0,0.0,0.0,0.0,0.0,0.0,0.0,-2.4215,-2.2293,0.0,0.0,0.0,0.0,0.0,0.0,0.0,0.0,0.0,0.0,0.0,0.0,0.0,0.0,0.0,0.0,0.0,0.0,0.0,0.0,0.0,0.0,0.0,0.0,0.0,0.0,0.0,0.0,0.0,0.0,0.0,0.0,0.0,0.0,0.0,0.0,0.0,0.0,0.0,0.0,-2.9265,-3.0372,-3.124,-3.1869,-3.2258,-3.2332,-3.1973,-3.1659,-3.1195,-3.0552,-2.9265,0.0,0.0,0.0,0.0,0.0,0.0,0.0,0.0,0.0,0.0,0.0,0.0,0.0,0.0,0.0,0.0,0.0,0.0,0.0,0.0,0.0,0.0,0.0,0.0,0.0,0.0,0.0,0.0,0.0,0.0,0.0,0.0,0.0,0.0,0.0,0.0,0.0,0.0,0.0,0.0,0.0,0.0,0.0,0.0,0.0,0.0,0.0,0.0,0.0,0.0,0.0,0.0,0.0,-2.6707,-2.7621,-2.8213,-2.8331,-2.8382,-2.8262,-2.6115,-2.4573,-2.3595,-2.3506,0.0,0.0,0.0,0.0,0.0,0.0,0.0,0.0,0.0,0.0,0.0,0.0,0.0,0.0,0.0,0.0,0.0,0.0,0.0,0.0,0.0,0.0,-2.3511,-2.3999,-2.4104,-2.3776,-2.2733,0.0,0.0,0.0,0.0,0.0,0.0,0.0,0.0,0.0,0.0,0.0,-3.1227,-3.1705,-3.2258,-3.338,-3.3499,-3.3499,-3.3499,-3.2991,-3.2452,-3.1884,-3.0642,-2.937,0.0,0.0,0.0,0.0,0.0,0.0,0.0,0.0,0.0,0.0,0.0,0.0,0.0,0.0,0.0,0.0,0.0,0.0,0.0,0.0,0.0,0.0,0.0,0.0,0.0,0.0,0.0,0.0,0.0,0.0,0.0,0.0,-1.7665,-1.8516,0.0,0.0,0.0,0.0,0.0,0.0,0.0,0.0,0.0,0.0,0.0,0.0,0.0,-2.5272,-2.5224,-2.6742,-2.7468,-2.745,-2.8938,-2.9683,-2.9818,-3.0463,-3.0751,-3.0734,-3.0388,0.0,-2.5661,-2.5153,0.0,0.0,0.0,0.0,0.0,0.0,0.0,0.0,0.0,0.0,0.0,0.0,0.0,0.0,0.0,0.0,0.0,0.0,0.0,0.0,0.0,0.0,-2.6117,-2.6207,-2.607,-2.5909,-2.5732,-2.3533,-2.2374,-2.4925,-2.6321,-2.738,0.0,0.0,0.0,0.0,0.0,0.0,-3.1466,-3.2527,-3.3305,-3.3469,-3.3499,-3.3499,-3.3499,-3.3425,-3.332,-3.3245,-3.2003,-3.0898,-3.0148,-2.8233,0.0,0.0,0.0,0.0,0.0,0.0,0.0,0.0,0.0,0.0,0.0,0.0,0.0,0.0,0.0,0.0,0.0,0.0,0.0,0.0,0.0,0.0,0.0,0.0,0.0,0.0,0.0,0.0,0.0,-1.7901,-1.9321,-2.0107,-2.0839,-2.1451,0.0,0.0,0.0,0.0,0.0,0.0,0.0,0.0,0.0,-2.6319,-2.6657,-2.7249,-2.8111,-2.9178,-2.9922,-3.0345,-3.1444,-3.1948,-3.1968,-3.229,-3.2442,-3.2442,-3.2442,-3.1581,-3.0104,-2.8708,-2.7826,-2.7296,0.0,0.0,0.0,0.0,-2.4288,-2.3774,-2.3774,-2.358,-2.3319,-2.3319,0.0,0.0,0.0,0.0,0.0,0.0,0.0,-2.6378,-2.6767,-2.729,-2.7814,-2.8214,-2.8035,-2.7761,-2.7761,-2.7483,-2.7168,-2.7046,-2.8126,-2.9327,-3.0217,-2.997,0.0,0.0,0.0,-3.2318,-3.3095,-3.3694,-3.4203,-3.4577,-3.4622,-3.4622,-3.4622,-3.4262,-3.4038,-3.4038,-3.3155,-3.2138,-3.1092,-2.9879,-2.8113,0.0,0.0,0.0,0.0,0.0,0.0,0.0,0.0,0.0,0.0,0.0,0.0,0.0,0.0,0.0,0.0,0.0,0.0,0.0,0.0,0.0,0.0,0.0,0.0,0.0,0.0,0.0,0.0,-1.9608,-2.0657,-2.1647,-2.2243,-2.2868,0.0,0.0,0.0,0.0,0.0,0.0,-2.6116,-2.637,-2.7063,-2.8348,-2.8753,-2.9516,-3.0649,-3.1579,-3.2307,-3.2869,-3.3812,-3.4269,-3.4286,-3.4472,-3.4556,-3.4556,-3.4556,-3.4556,-3.4361,-3.1936,-3.0712,-3.0281,-2.9565,-2.9038,-2.8496,-2.746,-2.6554,-2.5894,-2.5894,-2.5649,-2.5375,-2.5375,-2.5375,-2.5345,-2.5181,0.0,0.0,0.0,0.0,-2.8513,-2.9175,-2.9475,-2.9672,-3.0005,-2.9819,-2.9666,-2.9999,-3.1365,-3.1758,-2.9107,-3.0027,-3.1392,-3.1926,-3.1602,0.0,-3.2617,-3.2901,-3.3365,-3.4384,-3.4653,-3.4936,-3.5444,-3.5504,-3.5504,-3.5504,-3.504,-3.4773,-3.4773,-3.4113,-3.3305,-3.2303,-3.1271,-2.9759,-2.7634,0.0,0.0,0.0,0.0,0.0,0.0,0.0,0.0,0.0,0.0,0.0,0.0,0.0,0.0,0.0,0.0,0.0,0.0,0.0,0.0,0.0,0.0,0.0,0.0,0.0,0.0,0.0,0.0,0.0,-2.312,-2.3325,0.0,0.0,0.0,0.0,-2.5541,-2.6184,-2.6911,-2.7655,-2.8416,-2.9178,-2.9954,-3.1326,-3.2107,-3.2192,-3.363,-3.4336,-3.4426,-3.5915,-3.6626,-3.666,-3.7347,-3.7686,-3.7686,-3.7686,-3.7686,-3.7401,-3.386,-3.2397,-3.229,-3.1674,-3.1438,-3.1398,-3.1318,-3.0465,-2.935,-2.935,-2.8507,-2.745,-2.745,-2.745,-2.769,-2.8933,-2.8891,0.0,0.0,-3.0357,-3.0507,-3.1182,-3.1824,-3.2139,-3.1545,-3.138,-3.1731,-3.2973,-3.4349,-3.4516,-3.1812,-3.2765,-3.3863,-3.3472,0.0,-3.3365,-3.344,-3.3978,-3.4429,-3.4503,-3.5055,-3.5474,-3.5504,-3.5504,-3.5504,-3.5504,-3.5474,-3.5444,-3.5444,-3.4801,-3.4429,-3.4354,-3.2497,-3.1077,-3.0328,-2.7829,0.0,0.0,0.0,0.0,0.0,0.0,0.0,0.0,0.0,0.0,0.0,0.0,0.0,0.0,0.0,0.0,0.0,0.0,0.0,0.0,0.0,0.0,0.0,0.0,0.0,0.0,0.0,0.0,-2.4,-2.4948,0.0,-2.5895,-2.7046,-2.7977,-2.8467,-2.8755,-2.9414,-3.0632,-3.0973,-3.1464,-3.2205,-3.3186,-3.3931,-3.4421,-3.5453,-3.6214,-3.6688,-3.7246,-3.7499,-3.7516,-3.7787,-3.7905,-3.7905,-3.7905,-3.7905,-3.7797,-3.6512,-3.5964,-3.5867,-3.4651,-3.3939,-3.347,-3.2468,-3.1581,-3.0819,-3.0819,-3.0518,-3.0118,-3.0118,-3.0118,-3.0298,-3.1195,-3.1315,-3.13,-3.2183,-3.2422,-3.2422,-3.2363,-3.2526,-3.2705,-3.278,-3.2804,-3.2915,-3.3415,-3.4548,-3.5202,-3.4273,-3.3905,-3.3818,-3.4084,-3.4159,-3.4277,-3.4726,-3.4996,-3.513,-3.513,-3.5355,-3.5504,-3.5504,-3.5504,-3.5504,-3.5504,-3.5504,-3.5504,-3.5504,-3.528,-3.4936,-3.4533,-3.3799,-3.2721,-3.1167,-3.0225,-2.9014,0.0,0.0,0.0,0.0,0.0,0.0,0.0,0.0,0.0,0.0,0.0,0.0,0.0,0.0,0.0,0.0,0.0,0.0,0.0,0.0,0.0,0.0,0.0,0.0,0.0,-2.3528,-2.4408,-2.5151,-2.6319,-2.7283,-2.7807,-2.901,-3.0059,-3.0784,-3.1072,-3.1749,-3.2987,-3.3292,-3.3761,-3.4523,-3.525,-3.5876,-3.636,-3.7144,-3.7794,-3.8278,-3.8514,-3.8633,-3.8633,-3.8633,-3.8633,-3.8633,-3.8633,-3.8633,-3.8633,-3.8633,-3.8633,-3.8483,-3.6977,-3.6141,-3.5612,-3.433,-3.3458,-3.2861,-3.2359,-3.2168,-3.2168,-3.2168,-3.2168,-3.2243,-3.2706,-3.2841,-3.2976,-3.3558,-3.3738,-3.3722,-3.3718,-3.3716,-3.3792,-3.4097,-3.4181,-3.4174,-3.4174,-3.4867,-3.5504,-3.5504,-3.4786,-3.4322,-3.4741,-3.4848,-3.5055,-3.5729,-3.5654,-3.5594,-3.5804,-3.5833,-3.5833,-3.5833,-3.6028,-3.6073,-3.5848,-3.6028,-3.5968,-3.5534,-3.5714,-3.5534,-3.4861,-3.4608,-3.386,-3.2557,-3.2062,-3.0891,-2.8921,0.0,0.0,0.0,0.0,0.0,0.0,0.0,0.0,0.0,0.0,0.0,0.0,0.0,0.0,0.0,0.0,0.0,0.0,0.0,0.0,0.0,0.0,0.0,-2.3494,-2.4729,-2.593,-2.6708,-2.7469,-2.85,-3.0023,-3.0835,-3.1562,-3.2344,-3.3051,-3.3795,-3.4556,-3.5284,-3.6045,-3.6812,-3.755,-3.7939,-3.7939,-3.8667,-3.9022,-3.9039,-3.9757,-4.0096,-4.0096,-4.0096,-4.0096,-4.0096,-4.0096,-4.0096,-4.0096,-4.0096,-4.0096,-3.996,-3.849,-3.7925,-3.7836,-3.7002,-3.6269,-3.5498,-3.406,-3.3559,-3.3559,-3.3559,-3.3559,-3.3559,-3.3559,-3.3559,-3.3664,-3.4125,-3.4243,-3.4422,-3.5277,-3.5534,-3.5549,-3.5549,-3.5564,-3.5579,-3.5579,-3.5564,-3.5564,-3.5564,-3.5564,-3.5549,-3.5534,-3.5534,-3.5759,-3.6417,-3.5968,0.0,-3.6432,-3.6507,-3.6507,-3.6507,-3.7045,-3.7165,-3.6567,-3.706,-3.6866,-3.5624,-3.6133,-3.6211,-3.5534,-3.4865,-3.4536,-3.4487,-3.3201,-3.1587,-2.9681,0.0,0.0,0.0,0.0,0.0,0.0,0.0,0.0,0.0,0.0,0.0,0.0,0.0,0.0,0.0,0.0,0.0,0.0,0.0,0.0,0.0,-2.5321,-2.5778,-2.5778,-2.6133,-2.7097,-2.8941,-2.982,-3.0632,-3.1616,-3.2357,-3.3322,-3.4607,-3.4873,-3.5566,-3.6891,-3.7161,-3.7381,-3.7584,-3.8311,-3.87,-3.87,-3.9436,-3.9808,-3.9808,-4.0011,-4.0096,-4.0096,-4.0096,-4.0096,-4.0096,-4.0096,-4.0096,-4.0096,-4.0096,-4.0096,-4.0011,-3.9004,-3.8612,-3.8464,-3.7125,-3.6178,-3.5505,-3.5095,-3.4951,-3.4951,-3.4951,-3.4951,-3.4951,-3.4951,-3.4951,-3.4981,-3.5098,-3.5143,-3.5188,-3.5444,-3.619,-3.6863,-3.6863,-3.7131,-3.7383,-3.7383,-3.7132,-3.6881,-3.6881,-3.6892,-3.673,-3.6315,-3.6222,-3.6432,-3.706,-3.7,-3.6941,-3.7135,-3.715,-3.715,-3.715,-3.73,-3.7345,-3.7165,-3.7297,-3.7072,-3.6257,-3.6418,-3.6195,-3.5534,-3.531,-3.5006,-3.4513,-3.3663,-3.2735,0.0,0.0,0.0,0.0,0.0,0.0,0.0,0.0,0.0,0.0,0.0,0.0,0.0,0.0,0.0,0.0,0.0,0.0,0.0,0.0,0.0,0.0,-2.6962,-2.7893,-2.8501,-2.8586,-2.9076,-3.0395,-3.1478,-3.2527,-3.3575,-3.4066,-3.494,-3.6445,-3.6546,-3.7094,-3.8311,-3.8362,-3.8497,-3.8802,-3.9225,-3.9469,-3.9469,-3.9893,-4.0096,-4.0096,-4.0096,-4.0096,-4.0096,-4.0096,-4.0282,-4.0544,-4.0544,-4.0756,-4.1027,-4.1027,-4.1027,-4.0907,0.0,0.0,0.0,0.0,-3.6873,-3.5943,-3.5943,-3.575,-3.5504,-3.5504,-3.5504,-3.5487,-3.5508,-3.5505,-3.5502,-3.5507,-3.5892,-3.642,-3.6984,-3.7255,-3.7466,-3.7646,-3.788,-3.8069,-3.7846,-3.7601,-3.7398,-3.7389,-3.7398,0.0,-3.7305,-3.7053,-3.7075,-3.7723,-3.7569,-3.752,-3.7784,-3.7808,-3.7826,-3.7798,-3.8063,-3.8112,-3.7843,-3.8063,0.0,0.0,0.0,-3.6884,-3.5952,-3.5659,0.0,0.0,0.0,-3.3993,-3.3351,-3.3351,0.0,0.0,-2.9705,-2.9548,0.0,0.0,0.0,0.0,0.0,0.0,0.0,0.0,0.0,0.0,0.0,0.0,0.0,0.0,0.0,0.0,-2.8367,-2.9771,-3.1241,-3.1579,-3.1698,-3.1698,-3.2848,-3.4213,-3.5718,-3.5853,-3.6462,-3.7922,-3.8024,-3.8345,-3.9073,-3.9106,0.0,0.0,0.0,-4.0096,-4.0096,-4.0096,-4.0096,-4.0096,-4.018,-4.0231,-4.0231,-4.0316,-4.0722,-4.1322,-4.1322,-4.1694,-4.2286,-4.2286,-4.2286,-4.2151,-4.0754,-4.0154,-3.9982,-3.9171,-3.794,-3.6693,-3.6693,0.0,0.0,-3.5714,-3.5666,-3.5663,-3.5637,-3.5692,-3.5718,-3.5702,-3.6649,-3.7861,-3.8956,-3.8447,-3.7721,-3.8058,-3.8186,-3.8136,-3.7723,-3.7627,-3.7635,-3.7648,-3.7644,-3.7818,-3.8405,-3.7951,-3.7758,-3.8422,-3.8008,-3.7839,-3.8438,-3.8502,-3.8506,-3.8512,-3.9056,0.0,-3.8572,-3.9071,-3.8868,-3.7588,-3.8009,-3.7756,-3.6542,-3.5922,-3.5582,-3.5504,-3.5504,-3.521,-3.4593,-3.4593,-3.4301,-3.3692,-3.2345,-3.2045,0.0,0.0,0.0,0.0,0.0,0.0,0.0,0.0,0.0,0.0,0.0,0.0,0.0,0.0,0.0,-2.9905,-3.0581,-3.1275,-3.278,-3.4015,-3.4737,-3.4737,-3.4991,-3.5769,-3.7313,-3.7466,-3.7838,-3.8717,-3.8785,-3.9106,-3.9859,-3.9893,-3.996,-4.0096,-4.0096,-4.0096,-4.0096,-4.0096,-4.0096,-4.0113,-4.0696,0.0,-4.1018,-4.1593,-4.1948,-4.2083,-4.2083,-4.2168,-4.2286,-4.2286,-4.2286,-4.2199,-4.1194,-4.0455,-3.9828,-3.8966,-3.8048,-3.7236,-3.7236,-3.7151,-3.7045,-3.7045,-3.6809,-3.6558,-3.655,-3.6767,0.0,-3.7015,-3.8001,-3.8926,-3.8447,-3.867,-3.8901,-3.8447,-3.8737,-3.9131,-3.9035,-3.9005,-3.9026,-3.902,-3.9,-3.905,-3.9161,-3.8647,-3.8426,-3.9101,-3.911,-3.9059,-3.9167,-3.9215,-3.9191,-3.92,-3.9334,-3.9358,-3.9211,-3.9343,-3.9053,-3.8275,-3.7813,-3.7258,-3.6509,-3.6388,-3.6062,-3.5504,-3.5504,-3.5442,-3.5302,-3.5302,-3.5225,-3.5088,-3.3755,-3.3159,0.0,0.0,0.0,0.0,0.0,0.0,0.0,0.0,0.0,0.0,0.0,-2.5828,-2.6556,0.0,-2.9448,-3.0954,-3.2121,-3.3237,-3.4349,-3.5487,-3.6062,-3.565,-3.6276,-3.7212,-3.8345,-3.8447,-3.8751,-3.9503,-3.9554,-3.9723,-4.0079,-4.0096,-4.0096,-4.0096,-4.0096,-4.0096,-4.0096,-4.0485,-4.0646,-4.0646,-4.139,-4.1745,-4.1762,-4.2117,-4.2489,-4.2861,-4.2861,-4.3081,-4.3464,-4.3464,-4.3464,-4.3365,-4.251,-4.1712,-4.0996,-4.0128,-3.9298,-3.858,-3.8134,-3.7729,-3.7355,-3.7167,-3.6945,-3.6832,-3.704,-3.7258,-3.7555,-3.8222,-3.8878,-3.93,-3.8868,-3.9063,-3.9329,-3.8993,-3.9152,-3.9388,-3.9388,-3.9388,-3.9388,-3.9388,-3.9388,-3.9388,-3.9388,-3.9127,-3.9013,-3.9349,-3.9388,-3.9388,-3.9388,-3.9388,-3.9388,-3.9388,-3.9388,-3.9388,-3.9388,-3.9388,-3.9262,-3.8924,-3.8265,-3.7769,-3.746,-3.7129,-3.6793,-3.6466,-3.6155,-3.5999,-3.5999,-3.5659,-3.5504,-3.5489,-3.4809,-3.4502,0.0,0.0,0.0,0.0,0.0,0.0,0.0,-2.3962,-2.4657,-2.4965,-2.6165,-2.7233,-2.752,-2.955,-3.1326,-3.1765,-3.3457,-3.4979,-3.574,-3.6637,-3.6975,-3.6326,-3.7364,-3.8396,-3.914,-3.9208,-3.9469,-4.0062,-4.0096,-4.0096,-4.0096,-4.0096,-4.0096,-4.0096,-4.0096,-4.018,-4.0316,-4.0899,-4.1271,-4.1424,-4.2151,-4.2506,-4.2523,-4.2675,-4.3064,-4.3639,-4.3639,-4.3995,-4.4615,-4.4615,-4.4615,-4.4542,-4.3814,-4.3225,-4.2618,-4.1568,-4.0712,-3.996,-3.9259,-3.8464,-3.7729,-3.7411,-3.7317,-3.7377,-3.7684,-3.7788,-3.8017,-3.9083,-3.9388,-3.9388,-3.9388,-3.9388,-3.9388,-3.9388,-3.9388,-3.9388,-3.9388,-3.9388,-3.9388,-3.9388,-3.9388,-3.9388,-3.9388,-3.9388,-3.9388,-3.9388,-3.9388,-3.9388,-3.9388,-3.9388,-3.9388,-3.9388,-3.9388,-3.9388,-3.9388,-3.9388,-3.9388,-3.9388,-3.8909,-3.8521,-3.8411,-3.7895,-3.7519,-3.741,-3.6923,-3.6646,-3.6673,-3.6127,-3.586,-3.5872,-3.5872,-3.5741,-2.3573,-2.3773,-2.413,-2.4408,-2.4813,-2.5149,0.0,-2.6093,-2.6909,-2.6902,-2.7879,-2.9145,-3.0446,-3.097,-3.1833,-3.3795,-3.4895,-3.5774,-3.6535,-3.7855,-3.8717,-3.8616,-3.8768,-3.9157,-3.991,-3.9977,-4.0011,-4.0096,-4.0096,-4.0096,-4.0096,-4.0096,-4.0096,-4.0096,-4.0096,-4.0417,-4.1068,-4.117,-4.1525,-4.2185,-4.2929,-4.3274,-4.3318,-4.4012,-4.4395,-4.4479,-4.4479,-4.453,-4.4615,-4.4615,-4.4615,-4.4598,-4.4485,-4.4412,-4.4131,-4.2494,-4.1339,-4.0593,-4.0492,-3.9886,-3.9149,-3.9119,-3.9119,-3.9134,-3.9179,-3.9194,-3.9224,-3.9343,-3.9388,-3.9388,-3.9388,-3.9388,-3.9388,-3.9388,-3.9388,-3.9388,-3.9388,-3.9388,-3.9388,-3.9388,-3.9388,-3.9388,-3.9388,-3.9388,-3.9388,-3.9388,-3.9388,-3.9388,-3.9388,-3.9388,-3.9388,-3.9388,-3.9388,-3.9388,-3.9388,-3.9388,-3.9388,-3.9388,-3.9343,-3.902,-3.8411,-3.832,-3.7997,-3.7407,-3.7328,-3.731,-3.7289,-3.721,-3.7182,-3.7189,-3.7189,-3.6592,-2.5304,-2.5384,-2.5469,-2.5797,-2.5891,-2.6054,-2.6689,-2.7218,-2.7716,-2.8168,-2.9339,-3.0463,-3.1089,-3.2239,-3.3406,-3.4336,-3.5504,-3.6569,-3.733,-3.8328,-3.9157,-3.9605,-3.9656,-3.9774,-4.0079,-4.0096,-4.0096,-4.0096,-4.0096,-4.0096,-4.0096,-4.0096,-4.0096,-4.0096,-4.0536,-4.0882,-4.1204,-4.2066,-4.2642,-4.2963,-4.3724,-4.4096,-4.4096,-4.4462,-4.4615,-4.4615,-4.4615,-4.4615,-4.4615,-4.4615,-4.4615,-4.4615,-4.4615,-4.4615,-4.4384,-4.2645,-4.1772,-4.1313,-4.0309,-3.9702,-3.9388,-3.9388,-3.9388,-3.9388,-3.9388,-3.9388,-3.9388,-3.9388,-3.9388,-3.9388,-3.9388,-3.9388,-3.9388,-3.9388,-3.9388,-3.9388,-3.9388,-3.9388,-3.9388,-3.9388,-3.9388,-3.9388,-3.9388,-3.9388,-3.9388,-3.9388,-3.9388,-3.9388,-3.9388,-3.9388,-3.9388,-3.9388,-3.9388,-3.9388,-3.9388,-3.9388,-3.9388,-3.9388,-3.9388,-3.9277,-3.9005,-3.899,-3.8843,-3.8572,-3.817,-3.7973,-3.7997,-3.7585,-3.7397,-3.7401,-3.7401,-3.7093,-2.6502,-2.6746,-2.6954,-2.72,-2.7257,-2.7447,-2.8273,-2.862,-2.8868,-2.9223,-3.0482,-3.1562,-3.1765,-3.3271,-3.4624,-3.5086,-3.6231,-3.7347,-3.8108,-3.8836,-3.9503,-4.0045,-4.0096,-4.0096,-4.0096,-4.0096,-4.0096,-4.0096,-4.0096,-4.0096,-4.0096,-4.0096,-4.0197,-4.0417,-4.0916,-4.1407,-4.1813,-4.2878,-4.3494,-4.3741,-4.4316,-4.4615,-4.4615,-4.4615,-4.4615,-4.4615,-4.4615,-4.4615,-4.4615,-4.4615,-4.4615,-4.4615,-4.4615,-4.4615,-4.4412,-4.2892,-4.2363,-4.2157,-4.0909,-4.0331,-4.0092,-3.993,-3.9807,-3.9778,-3.986,-3.9631,-3.9388,-3.9388,-3.9388,-3.9388,-3.9388,-3.9388,-3.9388,-3.9388,-3.9388,-3.9388,-3.9388,-3.9388,-3.9388,-3.9388,-3.9388,-3.9463,-3.9644,-3.9689,-3.9747,-3.992,-3.9931,-3.9828,-3.9433,-3.9388,-3.9388,-3.9388,-3.9388,-3.9388,-3.9388,-3.9388,-3.9388,-3.9388,-3.9388,-3.9388,-3.9388,-3.9388,-3.9388,-3.9388,-3.8924,-3.8692,-3.8672,-3.8176,-3.7968,-3.7958,-3.7958,-3.7958,-2.6814,-2.7739,-2.892,-2.892,-2.9519,-3.0068,-3.0116,-3.068,-3.0985,-3.0211,-3.1241,-3.2496,-3.3203,-3.3964,-3.4979,-3.6491,-3.7364,-3.8125,-3.8853,-3.9605,-4.0079,-4.0096,-4.0096,-4.0096,-4.0096,-4.0096,-4.0096,-4.0096,-4.0096,-4.0096,-4.0096,-4.0096,-4.0434,-4.1136,-4.1187,-4.1897,-4.3308,-4.3375,-4.3792,-4.4564,-4.4598,-4.4615,-4.4615,-4.4615,-4.4615,-4.4615,-4.4615,-4.4615,-4.4615,-4.4615,-4.4615,-4.4615,-4.4615,-4.4615,-4.4485,-4.3591,-4.3276,-4.3246,-4.3216,-4.2637,-4.1834,-4.1256,-4.087,-4.0698,-4.0973,-4.026,-3.9388,-3.9388,-3.9388,-3.9388,-3.9388,-3.9388,-3.9388,-3.9388,-3.9388,-3.9388,-3.9388,-3.9388,-3.9388,-3.9388,-3.9388,-3.9599,-4.027,-4.038,-4.0599,-4.1252,-4.1331,-4.0861,-3.9589,-3.9388,-3.9388,-3.9388,-3.9388,-3.9388,-3.9388,-3.9388,-3.9388,-3.9388,-3.9388,-3.9388,-3.9388,-3.9388,-3.9388,-3.9388,-3.9373,-3.9358,-3.9394,-3.9343,-3.9328,-3.9328,-3.9328,-3.9328,-2.9714,-2.9787,-2.9922,-3.0467,-3.0591,-3.0653,-3.0876,-3.0896,-3.082,-3.0834,-3.2002,-3.3102,-3.3355,-3.4404,-3.5402,-3.5926,-3.7077,-3.799,-3.8244,-3.9326,-4.0096,-4.0096,-4.0096,-4.0096,-4.0096,-4.0096,-4.0096,-4.0096,-4.0096,-4.0096,-4.0096,-4.0544,-4.0933,-4.1204,-4.2168,-4.2885,-4.3392,-4.3927,-4.4316,-4.4615,-4.4615,-4.4615,-4.4615,-4.4615,-4.4615,-4.4615,-4.4615,-4.4615,-4.4615,-4.4615,-4.4615,-4.4615,-4.4615,-4.4615,-4.457,-4.4253,-4.4167,-4.4006,-4.2847,-4.2254,-4.1963,-4.1771,-4.1629,-4.1585,-4.168,-4.1021,-4.026,-4.026,-3.986,-3.9388,-3.9388,-3.9388,-3.9388,-3.9388,-3.9388,-3.9388,-3.9388,-3.9757,-4.0077,-4.0077,-4.0435,-4.0778,-4.1017,-4.1068,-4.115,-4.1377,-4.1409,-4.1086,-4.0175,-4.0067,-3.989,-3.9454,-3.9388,-3.9388,-3.9388,-3.9388,-3.9388,-3.9388,-3.9388,-3.9388,-3.9388,-3.9388,-3.9388,-3.9388,-3.9388,-3.9388,-3.9388,-3.9388,-3.9388,-3.9388,-3.9388,-3.9388,-3.098,-3.1017,-3.1182,-3.1696,-3.1533,-3.1326,-3.1661,-3.1375,-3.1111,-3.1348,-3.2462,-3.3448,-3.3618,-3.4716,-3.5769,-3.6326,-3.7263,-3.8091,-3.8616,-3.9503,-4.0096,-4.0096,-4.0096,-4.0096,-4.0096,-4.0096,-4.0096,-4.0096,-4.0096,-4.0231,-4.0485,-4.0933,-4.1441,-4.1982,-4.2902,-4.3527,-4.3826,-4.4333,-4.4615,-4.4615,-4.4615,-4.4615,-4.4615,-4.4615,-4.4615,-4.4615,-4.4615,-4.4615,-4.4615,-4.4615,-4.4615,-4.4615,-4.4615,-4.4615,-4.4615,-4.4615,-4.4615,-4.444,-4.332,-4.2923,-4.2923,-4.2923,-4.2703,-4.2456,-4.2456,-4.188,-4.1145,-4.1174,-4.0558,-3.9875,-3.9875,-3.9631,-3.9463,-3.9682,-3.977,-3.9822,-4.0047,-4.045,-4.0746,-4.0746,-4.1091,-4.1497,-4.1737,-4.195,-4.2075,-4.2075,-4.2075,-4.1744,-4.0883,-4.0768,-4.0603,-4.0177,-3.9907,-3.9751,-3.9777,-3.9538,-3.9388,-3.9388,-3.9388,-3.9388,-3.9388,-3.9388,-3.9388,-3.9388,-3.9388,-3.9388,-3.9388,-3.9388,-3.9388,-3.9388,-3.9388,-3.9388,-3.0742,-3.1439,-3.2601,-3.2656,-3.2338,-3.2116,-3.2456,-3.2144,-3.1807,-3.1843,-3.2652,-3.3526,-3.3975,-3.4882,-3.6005,-3.7499,-3.7838,-3.8396,-3.9791,-4.0045,-4.0096,-4.0096,-4.0096,-4.0096,-4.0096,-4.0096,-4.0096,-4.0096,-4.0096,-4.0434,-4.117,-4.1238,-4.1931,-4.3341,-4.3426,-4.3826,-4.4598,-4.4615,-4.4615,-4.4615,-4.4615,-4.4615,-4.4615,-4.4615,-4.4615,-4.4615,-4.4615,-4.4615,-4.4615,-4.4615,-4.4615,-4.4615,-4.4615,-4.4615,-4.4615,-4.4649,-4.4666,-4.4666,-4.471,-4.4649,-4.4615,-4.4615,-4.4075,-4.3407,-4.3418,-4.2835,-4.2187,-4.2168,-4.1531,-4.083,-4.083,-4.0179,-3.9666,-4.0285,-4.045,-4.0629,-4.126,-4.1435,-4.1467,-4.1467,-4.1459,-4.1722,-4.2351,-4.2925,-4.329,-4.329,-4.329,-4.2862,-4.1617,-4.1435,-4.143,-4.1385,-4.0833,-4.0422,-4.0405,-3.9815,-3.9454,-3.9388,-3.9388,-3.9388,-3.9388,-3.9388,-3.9388,-3.9388,-3.9388,-3.9388,-3.9388,-3.9388,-3.9388,-3.9388,-3.9388,-3.9388,-3.1953,-3.2289,-3.2729,-3.3348,-3.2936,-3.2497,-3.2914,-3.2383,-3.1897,-3.2247,-3.2733,-3.3143,-3.326,-3.41,-3.4912,-3.5301,-3.6789,-3.8041,-3.8413,-3.9419,-4.0096,-4.0096,-4.0096,-4.0096,-4.0096,-4.0096,-4.0096,-4.0096,-4.0096,-4.0434,-4.117,-4.1711,-4.2439,-4.3358,-4.3978,-4.4384,-4.4615,-4.4615,-4.4615,-4.4615,-4.4615,-4.4615,-4.4615,-4.4615,-4.4615,-4.4615,-4.4615,-4.4615,-4.4615,-4.4615,-4.4615,-4.4615,-4.4615,-4.4615,-4.4682,-4.5213,-4.5415,-4.5506,-4.6062,-4.5518,-4.4615,-4.4615,-4.4812,-4.5107,-4.5073,-4.4856,-4.4613,-4.461,-4.3475,-4.2263,-4.2268,-4.1571,-4.0935,-4.1099,-4.1152,-4.119,-4.1361,-4.1803,-4.2156,-4.2156,-4.2506,-4.2895,-4.306,-4.3185,-4.329,-4.329,-4.329,-4.3021,-4.2243,-4.2147,-4.1946,-4.1445,-4.1258,-4.095,-4.0435,-4.0262,-3.9948,-3.9418,-3.9388,-3.9388,-3.9388,-3.9388,-3.9388,-3.9388,-3.9388,-3.9388,-3.9388,-3.9388,-3.9388,-3.9388,-3.9388,-3.9388,-3.2045,-3.2596,-3.3238,-3.3697,-3.3299,-3.289,-3.3154,-3.2483,-3.1933,-3.2401,-3.2774,-3.3059,-3.3227,-3.4096,-3.4916,-3.5237,-3.6491,-3.7712,-3.8606,-3.9251,-3.9823,-4.039,-4.0254,-4.0096,-4.0096,-4.0096,-4.0096,-4.0096,-4.0417,-4.0899,-4.1644,-4.2388,-4.3132,-4.391,-4.435,-4.4615,-4.4615,-4.4615,-4.4615,-4.4615,-4.4615,-4.4615,-4.4615,-4.4615,-4.4615,-4.4615,-4.4615,-4.4615,-4.4615,-4.4615,-4.4615,-4.4632,-4.4942,-4.5077,-4.5162,-4.5906,-4.6172,-4.623,-4.6657,-4.6243,-4.5563,-4.5571,-4.587,-4.617,-4.6182,-4.6129,-4.6067,-4.606,-4.4754,-4.3479,-4.3892,-4.2989,-4.2206,-4.2906,-4.2741,-4.2648,-4.3353,-4.3115,-4.2776,-4.2776,-4.309,-4.329,-4.329,-4.329,-4.329,-4.329,-4.329,-4.317,-4.2836,-4.2776,-4.2641,-4.2282,-4.1983,-4.1707,-4.1294,-4.0726,-4.0247,-3.9873,-3.9574,-3.9388,-3.9388,-3.9388,-3.9388,-3.9388,-3.9388,-3.9388,-3.9388,-3.9388,-3.9388,-3.9388,-3.9388,-3.9388,-3.1586,-3.2559,-3.3807,-3.3807,-3.3494,-3.3196,-3.3132,-3.2438,-3.1934,-3.2282,-3.2493,-3.2754,-3.3139,-3.403,-3.4921,-3.5721,-3.6295,-3.7319,-3.9267,-3.9232,-3.9445,-4.0647,-4.0392,-4.0096,-4.0096,-4.0096,-4.0096,-4.0096,-4.0865,-4.1627,-4.2252,-4.3014,-4.3775,-4.4581,-4.4615,-4.4615,-4.4615,-4.4615,-4.4615,-4.4615,-4.4615,-4.4615,-4.4615,-4.4615,-4.4615,-4.4615,-4.4615,-4.4615,-4.4615,-4.4615,-4.4666,-4.4818,-4.5449,-4.5771,-4.594,-4.6667,-4.6958,-4.6949,-4.7065,-4.7075,-4.7062,-4.6861,-4.6861,-4.6946,-4.6958,-4.7018,-4.709,-4.6954,-4.5696,-4.4584,-4.5358,-4.4331,-4.3461,-4.496,-4.4717,-4.4496,-4.5904,-4.4803,-4.3512,-4.3512,-4.3409,-4.329,-4.329,-4.329,-4.329,-4.329,-4.329,-4.329,-4.329,-4.329,-4.329,-4.329,-4.2821,-4.25,-4.241,-4.1235,-4.0487,-4.0412,-3.9783,-3.9388,-3.9388,-3.9388,-3.9388,-3.9388,-3.9388,-3.9388,-3.9388,-3.9388,-3.9388,-3.9388,-3.9388,-3.9388,-3.1452,-3.2559,-3.3807,-3.3807,-3.3494,-3.3125,-3.2771,-3.2325,-3.1894,-3.1637,-3.1105,-3.0818,-3.1201,-3.162,-3.2244,-3.3315,-3.4789,-3.6372,-3.7997,-3.8672,-3.9308,-4.0144,-4.0171,-4.0096,-4.0096,-4.0096,-4.0096,-4.0096,-4.1365,-4.2168,-4.2286,-4.3014,-4.3775,-4.4581,-4.4615,-4.4615,-4.4615,-4.4615,-4.4615,-4.4615,-4.4615,-4.4615,-4.4615,-4.4615,-4.4615,-4.4615,-4.4615,-4.4615,-4.4615,-4.4615,-4.4942,-4.5517,-4.5652,-4.6075,-4.6701,-4.7445,-4.7725,-4.7802,-4.8423,-4.8609,-4.8423,-4.7189,-4.7206,-4.7692,-4.7726,-4.8121,-4.8459,-4.7682,-4.6695,-4.5891,-4.603,-4.527,-4.4715,-4.5769,-4.5892,-4.5853,-4.6157,-4.5322,-4.4548,-4.4548,-4.3888,-4.329,-4.329,-4.329,-4.329,-4.329,-4.329,-4.329,-4.329,-4.329,-4.329,-4.329,-4.32,-4.294,-4.244,-4.1692,-4.098,-4.0442,-3.9783,-3.9388,-3.9388,-3.9388,-3.9388,-3.9388,-3.9388,-3.9388,-3.9388,-3.9388,-3.9388,-3.9388,-3.9388,-3.9388,-3.0779,-3.1641,-3.254,-3.254,-3.2423,-3.2201,-3.2025,-3.1665,-3.1321,-3.1134,-3.0778,-3.0563,-3.0754,-3.1235,-3.1794,-3.2528,-3.3852,-3.5419,-3.7321,-3.8071,-3.8908,-4.021,-4.0219,-4.0096,-4.0096,-4.0096,-4.0096,-4.0096,-4.1484,-4.2286,-4.2286,-4.3386,-4.4198,-4.4598,-4.4615,-4.4615,-4.4615,-4.4615,-4.4615,-4.4615,-4.4615,-4.4615,-4.4615,-4.4615,-4.4615,-4.4615,-4.4615,-4.4615,-4.4615,-4.4615,-4.5026,-4.5737,-4.6126,-4.6718,-4.7462,-4.8206,-4.846,-4.8508,-4.8866,-4.9001,-4.8886,-4.8161,-4.8178,-4.8489,-4.8489,-4.8737,-4.8909,-4.8482,-4.7655,-4.702,-4.7523,-4.6968,-4.647,-4.744,-4.7655,-4.7373,-4.6419,-4.6224,-4.5957,-4.4983,-4.4412,-4.3927,-4.3409,-4.329,-4.329,-4.329,-4.329,-4.329,-4.329,-4.329,-4.329,-4.329,-4.329,-4.317,-4.2895,-4.1953,-4.125,-4.0935,-3.9963,-3.9388,-3.9388,-3.9388,-3.9388,-3.9388,-3.9388,-3.9388,-3.9388,-3.9388,-3.9388,-3.9388,-3.9388,-3.9388,-3.021,-3.0797,-3.1397,-3.1397,-3.1397,-3.1323,-3.0962,-3.0644,-3.0329,-2.9985,-2.9773,-2.9714,-2.9868,-3.0463,-3.1174,-3.1911,-3.2949,-3.4497,-3.6925,-3.7568,-3.8437,-4.0196,-4.0225,-4.0096,-4.0096,-4.0096,-4.0096,-4.0096,-4.1484,-4.2422,-4.276,-4.3955,-4.4615,-4.4615,-4.4615,-4.4615,-4.4615,-4.4615,-4.4615,-4.4615,-4.4615,-4.4615,-4.4615,-4.4615,-4.4615,-4.4615,-4.4615,-4.4615,-4.4615,-4.4615,-4.5111,-4.5991,-4.6566,-4.7344,-4.8193,-4.8798,-4.9001,-4.9001,-4.9001,-4.9001,-4.9001,-4.9001,-4.9001,-4.9001,-4.9001,-4.9001,-4.897,-4.8767,-4.8161,-4.777,-4.8513,-4.8144,-4.7836,-4.8798,-4.9001,-4.8593,-4.7138,-4.7239,-4.7172,-4.5685,-4.5227,-4.4796,-4.3771,-4.363,-4.3551,-4.3329,-4.329,-4.329,-4.329,-4.329,-4.329,-4.329,-4.329,-4.329,-4.329,-4.2132,-4.1422,-4.1422,-4.0142,-3.9388,-3.9388,-3.9388,-3.9388,-3.9388,-3.9388,-3.9388,-3.9388,-3.9388,-3.9388,-3.9388,-3.9388,-3.9388,-3.021,-3.0797,-3.1397,-3.1397,-3.1397,-3.1029,-2.9537,-2.9202,-2.8745,-2.7292,-2.6453,-2.6183,-2.6863,-2.738,-2.8408,-3.0513,-3.1819,-3.3618,-3.669,-3.7317,-3.803,-3.9598,-3.9956,-4.0096,-4.0096,-4.0096,-4.0096,-4.0096,-4.1484,-4.2895,-4.4327,-4.453,-4.4615,-4.4615,-4.4615,-4.4615,-4.4615,-4.4615,-4.4615,-4.4615,-4.4615,-4.4615,-4.4615,-4.4615,-4.4615,-4.4615,-4.4615,-4.4615,-4.4615,-4.4615,-4.5444,-4.6701,-4.6769,-4.7665,-4.8917,-4.8984,-4.9001,-4.9001,-4.9001,-4.9001,-4.9001,-4.9001,-4.9001,-4.9001,-4.9001,-4.9001,-4.8829,-4.7982,-4.7655,-4.7622,-4.7704,-4.7655,-4.7836,-4.8798,-4.9001,-4.894,-4.8781,-4.8161,-4.7556,-4.7389,-4.6643,-4.5762,-4.4834,-4.4662,-4.4373,-4.3448,-4.329,-4.329,-4.329,-4.329,-4.329,-4.329,-4.329,-4.329,-4.329,-4.2132,-4.1422,-4.1422,-4.0142,-3.9388,-3.9388,-3.9388,-3.9388,-3.9388,-3.9388,-3.9388,-3.9388,-3.9388,-3.9388,-3.9388,-3.9388,-3.9388,-2.9482,-2.9702,-2.9971,-2.9971,-2.9586,-2.9083,-2.8429,-2.7897,-2.7372,-2.673,-2.6373,-2.6254,-2.6551,-2.715,-2.7962,-2.9089,-3.062,-3.257,-3.5129,-3.6374,-3.7669,-3.9328,-3.9856,-4.0096,-4.0096,-4.0096,-4.0468,-4.1365,-4.1974,-4.2963,-4.453,-4.4615,-4.4615,-4.4615,-4.4615,-4.4615,-4.4615,-4.4615,-4.4615,-4.4615,-4.4615,-4.4615,-4.4615,-4.4615,-4.4615,-4.4615,-4.4615,-4.4615,-4.4615,-4.4615,-4.5478,-4.6786,-4.6786,-4.7699,-4.9001,-4.9001,-4.9001,-4.9001,-4.9001,-4.9001,-4.9001,-4.9001,-4.9001,-4.9001,-4.9001,-4.9001,-4.8923,-4.8545,-4.8433,-4.8433,-4.8433,-4.8433,-4.8545,-4.8909,-4.9001,-4.9001,-4.9001,-4.8719,-4.8289,-4.7688,-4.7306,-4.6574,-4.5058,-4.5264,-4.5101,-4.3551,-4.381,-4.3989,-4.3369,-4.329,-4.314,-4.2791,-4.309,-4.3125,-4.2776,-4.1908,-4.1205,-4.0816,-3.9933,-3.9388,-3.9388,-3.9388,-3.9388,-3.9388,-3.9388,-3.9388,-3.9388,-3.9388,-3.9388,-3.9388,-3.9388,-3.9388,-2.8932,-2.8822,-2.8693,-2.895,-2.8411,-2.7732,-2.7493,-2.6814,-2.6172,-2.5952,-2.5816,-2.5766,-2.5858,-2.6658,-2.749,-2.8063,-2.9893,-3.1992,-3.4091,-3.5939,-3.7619,-3.9,-4.0019,-4.0466,-4.0121,-4.0096,-4.0722,-4.2185,-4.2286,-4.2963,-4.453,-4.4615,-4.4615,-4.4615,-4.4615,-4.4615,-4.4615,-4.4615,-4.4615,-4.4615,-4.4615,-4.4615,-4.4615,-4.4615,-4.4615,-4.4615,-4.4615,-4.4615,-4.4615,-4.4615,-4.5359,-4.6498,-4.6701,-4.7564,-4.8714,-4.8934,-4.9001,-4.9001,-4.9001,-4.9001,-4.9001,-4.9001,-4.9001,-4.9001,-4.9001,-4.9001,-4.9001,-4.9001,-4.9001,-4.9001,-4.9001,-4.9001,-4.9001,-4.9001,-4.9001,-4.9001,-4.9001,-4.9001,-4.8798,-4.8161,-4.8015,-4.7423,-4.5541,-4.5603,-4.523,-4.3328,-4.3472,-4.3526,-4.2824,-4.2761,-4.2581,-4.2156,-4.2476,-4.2581,-4.2156,-4.1512,-4.0891,-4.0427,-3.9783,-3.9388,-3.9388,-3.9388,-3.9388,-3.9388,-3.9388,-3.9388,-3.9388,-3.9388,-3.9388,-3.9388,-3.9388,-3.9388,-2.8785,-2.8429,-2.7989,-2.8803,-2.8411,-2.7585,-2.6796,-2.5988,-2.5191,-2.4392,-2.3963,-2.3824,-2.416,-2.5255,-2.6486,-2.7614,-2.9824,-3.2085,-3.4016,-3.6296,-3.7986,-3.8547,-4.0494,-4.1331,-4.0204,-4.0096,-4.0722,-4.2185,-4.2286,-4.2963,-4.453,-4.4615,-4.4615,-4.4615,-4.4615,-4.4615,-4.4615,-4.4615,-4.4615,-4.4615,-4.4615,-4.4615,-4.4615,-4.4615,-4.4615,-4.4615,-4.4615,-4.4615,-4.4615,-4.4615,-4.5026,-4.5788,-4.6498,-4.7259,-4.799,-4.8731,-4.9001,-4.9001,-4.9001,-4.9001,-4.9001,-4.9001,-4.9001,-4.9001,-4.9001,-4.9001,-4.9001,-4.9001,-4.9001,-4.9001,-4.9001,-4.9001,-4.9001,-4.9001,-4.9001,-4.9001,-4.9001,-4.9001,-4.9001,-4.9001,-4.9001,-4.8401,-4.6488,-4.5632,-4.4555,-4.2689,-4.1856,-4.1437,-4.1399,-4.1399,-4.1399,-4.1384,-4.1437,-4.1399,-4.1384,-4.0786,-4.0412,-4.0397,-3.9783,-3.9388,-3.9388,-3.9388,-3.9388,-3.9388,-3.9388,-3.9388,-3.9388,-3.9388,-3.9388,-3.9388,-3.9388,-3.9388,-2.7281,-2.717,-2.7034,-2.7299,-2.6741,-2.609,-2.5833,-2.5154,-2.4511,-2.4245,-2.4132,-2.4074,-2.418,-2.5421,-2.6571,-2.6932,-2.9241,-3.1683,-3.3678,-3.5938,-3.7966,-3.9516,-4.0584,-4.1201,-4.1263,-4.0891,-4.1285,-4.279,-4.291,-4.339,-4.4558,-4.4615,-4.4615,-4.4615,-4.4615,-4.4615,-4.4615,-4.4615,-4.4615,-4.4615,-4.4615,-4.4615,-4.4615,-4.4615,-4.4615,-4.4615,-4.4615,-4.4615,-4.4615,-4.4615,-4.5026,-4.572,-4.5957,-4.649,-4.7241,-4.7973,-4.8259,-4.831,-4.8821,-4.9001,-4.9001,-4.9001,-4.9001,-4.9001,-4.9001,-4.9001,-4.9001,-4.9001,-4.9001,-4.9001,-4.9001,-4.9001,-4.9001,-4.9001,-4.9001,-4.9001,-4.9001,-4.9001,-4.8849,-4.8359,-4.7776,-4.7006,-4.5865,-4.5011,-4.4071,-4.2802,-4.2471,-4.2129,-4.1483,-4.1422,-4.1205,-4.0756,-4.0711,-4.0711,-4.0711,-4.0516,-4.0202,-3.9768,-3.9529,-3.9388,-3.9388,-3.9388,-3.9388,-3.9388,-3.9388,-3.9388,-3.9388,-3.9388,-3.9388,-3.9388,-3.9388,-3.9388,-2.6447,-2.6374,-2.6227,-2.6521,-2.5988,-2.5393,-2.5393,-2.4787,-2.419,-2.419,-2.419,-2.419,-2.419,-2.5529,-2.6704,-2.6998,-2.9284,-3.1729,-3.3704,-3.6172,-3.8689,-4.1143,-4.1131,-4.1223,-4.2059,-4.1402,-4.1538,-4.3071,-4.3192,-4.3623,-4.4541,-4.4615,-4.4615,-4.4615,-4.4615,-4.4615,-4.4615,-4.4615,-4.4615,-4.4615,-4.4615,-4.4615,-4.4615,-4.4615,-4.4615,-4.4615,-4.4615,-4.4615,0.0,-4.4615,-4.4886,-4.5314,-4.5602,-4.5983,-4.6469,-4.7228,-4.7467,-4.7548,-4.8024,-4.8169,-4.8165,-4.8156,-4.8173,-4.8173,-4.8173,-4.8562,-4.9001,-4.9001,-4.9001,-4.9001,-4.9001,-4.9001,-4.9001,-4.9001,-4.8798,-4.8595,-4.8595,-4.8376,-4.8037,-4.7581,-4.6786,-4.6022,-4.5482,-4.4235,-4.305,-4.2415,-4.1878,-4.1309,-4.071,-4.0651,-4.0487,-4.0068,-4.0023,-4.0023,-4.0023,-4.0023,-3.9858,-3.9454,-3.9388,-3.9388,-3.9388,-3.9388,-3.9388,-3.9388,-3.9388,-3.9388,-3.9388,-3.9388,-3.9388,-3.9388,-3.9388,-3.9388,0.0,-2.5878,-2.5485,-2.6245,-2.586,-2.5301,-2.5301,-2.475,0.0,-2.419,-2.419,-2.4208,-2.4263,-2.5548,-2.6888,-2.775,-2.9898,-3.2153,-3.4081,-3.6963,-4.0029,-4.3129,-4.2047,-4.149,-4.2655,-4.1707,-4.1661,-4.3218,-4.3339,-4.3733,-4.4625,-4.4654,-4.4654,-4.4615,-4.4615,-4.4615,-4.4615,-4.4615,-4.4615,-4.4615,-4.4615,-4.4615,-4.4615,-4.4615,-4.4615,-4.4615,-4.4615,-4.4615,-4.4615,-4.4615,-4.4615,-4.4682,-4.5348,-4.5624,-4.5701,-4.6447,-4.673,-4.6718,-4.6798,-4.6806,-4.6796,-4.6781,-4.6786,-4.6786,-4.6786,-4.775,-4.8849,-4.8849,-4.8849,-4.8849,-4.8849,-4.8849,-4.8849,-4.8849,-4.8325,-4.7804,-4.7804,-4.7293,-4.6769,-4.6718,-4.6018,-4.5395,-4.5346,-4.3323,-4.1755,-4.1806,-4.0436,-3.9409,-3.9481,-3.9445,-3.9388,-3.9388,-3.9388,-3.9388,-3.9388,-3.9388,-3.9388,-3.9388,-3.9388,-3.9388,-3.9388,-3.9388,-3.9388,-3.9388,-3.9388,-3.9388,-3.9388,-3.9388,-3.9388,-3.9388,-3.9388,-3.9388,-2.4667,0.0,-2.453,-2.4722,-2.4612,-2.4493,0.0,-2.4337,-2.419,-2.419,-2.419,-2.4392,-2.5007,-2.5933,-2.706,-2.8491,-3.073,-3.2905,-3.4603,-3.8135,-4.1277,-4.3259,-4.2771,-4.2541,-4.325,-4.2694,-4.2926,-4.446,-4.4586,-4.4797,-4.526,-4.5294,-4.5062,-4.4598,-4.4615,-4.4615,-4.4615,-4.4615,-4.4615,-4.4615,-4.4615,-4.4615,-4.4615,-4.4615,-4.4615,-4.4615,-4.4615,-4.4615,-4.4615,-4.4615,-4.4615,-4.4632,-4.4801,-4.4857,-4.4942,-4.5688,-4.597,-4.6034,-4.6603,-4.6789,-4.6781,-4.6815,-4.6786,-4.6786,-4.6786,-4.7039,-4.731,-4.731,-4.731,-4.731,-4.731,-4.731,-4.731,-4.731,-4.7175,-4.7056,-4.7056,-4.6921,-4.6616,-4.6075,-4.5254,-4.4705,-4.4771,-4.267,-4.1397,-4.2716,-4.0916,-3.9646,-4.0309,-3.9793,-3.9388,-3.9388,-3.9388,-3.9388,-3.9388,-3.9388,-3.9388,-3.9388,-3.9388,-3.9388,-3.9388,-3.9388,-3.9388,-3.9388,-3.9388,-3.9388,-3.9388,-3.9388,-3.9388,-3.9388,-3.9388,-3.9388,-2.419,-2.419,-2.419,-2.419,-2.419,-2.419,-2.419,-2.419,-2.43,-2.4677,-2.475,-2.5007,-2.5797,-2.6906,-2.8106,-2.9354,-3.1586,-3.4119,-3.6857,-3.9774,-4.2121,-4.3349,-4.3032,-4.292,-4.3444,-4.3014,-4.3323,-4.4874,-4.5001,-4.5265,-4.5877,-4.5648,-4.5346,-4.5025,-4.4748,-4.4615,-4.4615,-4.4615,-4.4615,-4.4615,-4.4615,-4.4615,-4.4615,-4.4615,-4.4615,-4.4615,-4.4615,-4.4615,-4.4615,-4.4615,-4.4615,-4.4615,-4.4615,-4.4615,-4.4649,-4.5049,-4.5196,-4.5252,-4.5671,-4.5777,-4.5799,-4.5799,-4.5799,-4.5799,-4.5799,-4.5799,-4.5923,-4.6599,-4.6786,-4.6786,-4.6786,-4.6786,-4.6786,-4.6786,-4.6532,-4.6295,-4.6295,-4.6024,-4.5652,-4.5263,-4.4503,-4.4039,-4.4525,-4.2753,-4.1756,-4.3108,-4.1755,-4.0774,-4.1247,-4.0894,-4.0447,-4.006,-3.999,-3.9829,-3.9409,-3.9388,-3.9388,-3.9388,-3.9388,-3.9388,-3.9388,-3.9388,-3.9388,-3.9388,-3.9388,-3.9388,-3.9388,-3.9388,-3.9388,-3.9388,-3.9388,-3.9388,-2.419,-2.419,-2.419,-2.419,-2.419,-2.419,-2.419,-2.43,-2.4585,-2.5264,-2.5503,-2.587,-2.6796,-2.8088,-2.9372,-3.0558,-3.2889,-3.5844,-3.9551,-4.135,-4.2598,-4.3387,-4.3105,-4.2995,-4.3444,-4.3105,-4.3478,-4.5014,-4.514,-4.5543,-4.6506,-4.6063,-4.5699,-4.5511,-4.4998,-4.4692,-4.4615,-4.4615,-4.4615,-4.4615,-4.4615,-4.4615,-4.4615,-4.4615,-4.4615,-4.4615,-4.4615,-4.4615,-4.4615,-4.4615,-4.4615,-4.4615,-4.4615,-4.4615,-4.4615,-4.4615,-4.4615,-4.4615,-4.4615,-4.4615,-4.4615,-4.4615,-4.4615,-4.4615,-4.4615,-4.4615,-4.4869,-4.6092,-4.6447,-4.6447,-4.6447,-4.6447,-4.6447,-4.6447,-4.5991,-4.5534,-4.5534,-4.5026,-4.4615,-4.4615,-4.4006,-4.3726,-4.4485,-4.3243,-4.2489,-4.3366,-4.2645,-4.2062,-4.2189,-4.2093,-4.1674,-4.0777,-4.069,-4.0343,-3.9481,-3.9388,-3.9388,-3.9388,-3.9388,-3.9388,-3.9388,-3.9388,-3.9388,-3.9388,-3.9388,-3.9388,-3.9388,-3.9388,-3.9481,-3.961,-3.961,-3.9681,-2.419,-2.419,-2.419,-2.419,-2.419,-2.419,-2.419,-2.4732,-2.5246,-2.5374,-2.5933,-2.6869,-2.8363,-2.884,-2.9922,-3.2779,-3.5899,-3.8652,-4.0636,-4.1717,-4.2598,-4.3387,-4.3427,-4.341,-4.3479,-4.3427,-4.4034,-4.5645,-4.5773,-4.6202,-4.7187,-4.715,-4.6612,-4.552,-4.5407,-4.5115,-4.4598,-4.4615,-4.4615,-4.4615,-4.4615,-4.4615,-4.4615,-4.4615,-4.4615,-4.4615,-4.4615,-4.4615,-4.4615,-4.4615,-4.4615,-4.4615,-4.4615,-4.4615,-4.4615,-4.4615,-4.4615,-4.4615,-4.4615,-4.4615,-4.4615,-4.4615,-4.4615,-4.4615,-4.4615,-4.4615,-4.4649,-4.4886,-4.4953,-4.4953,-4.4953,-4.4953,-4.4953,-4.4953,-4.4852,-4.4784,-4.4784,-4.4682,-4.4615,-4.4615,-4.4485,-4.444,-4.457,-4.3785,-4.3396,-4.4253,-4.3031,-4.2252,-4.3017,-4.2458,-4.1674,-4.0777,-4.069,-4.0343,-3.9481,-3.9388,-3.9388,-3.9388,-3.9388,-3.9388,-3.9388,-3.9388,-3.9388,-3.9388,-3.9388,-3.9388,-3.9388,-3.9388,-3.9773,-4.05,-4.05,-4.0894,-2.419,-2.419,-2.43,-2.475,-2.4842,-2.4842,-2.4842,-2.5466,-2.63,-2.7163,-2.7629,-2.8381,-3.0008,-3.1017,-3.2669,-3.5917,-3.8083,-3.9918,-4.1534,-4.2433,-4.3075,-4.346,-4.3515,-4.3515,-4.3515,-4.3515,-4.3975,-4.5168,-4.5645,-4.6286,-4.7204,-4.7337,-4.7128,-4.6542,-4.5858,-4.5372,-4.5089,-4.4759,-4.4615,-4.4615,-4.4615,-4.4615,-4.4615,-4.4615,-4.4615,-4.4615,-4.4615,-4.4615,-4.4615,-4.4615,-4.4615,-4.4615,-4.4615,-4.4615,-4.4615,-4.4615,-4.4615,-4.4615,-4.4615,-4.4615,-4.4615,-4.4615,-4.4615,-4.4615,-4.4615,-4.4615,-4.4615,-4.4615,-4.4615,-4.4615,-4.4615,-4.4615,-4.4615,-4.4615,-4.4615,-4.4615,-4.4615,-4.4615,-4.4615,-4.4615,-4.4615,-4.4615,-4.4615,-4.427,-4.4138,-4.4542,-4.3931,-4.3545,-4.3931,-4.3634,-4.3061,-4.2189,-4.2093,-4.1739,-4.0876,-4.0808,-4.0413,-3.9445,-3.9388,-3.9388,-3.9388,-3.9864,-4.0115,-4.0115,-4.0569,-4.0808,-4.0808,-4.0808,-4.0995,-4.1412,-4.1412,-4.1609,-2.419,-2.4337,-2.464,-2.5246,-2.5393,-2.5448,-2.5631,-2.6447,-2.7501,-2.8748,-2.9299,-3.0051,-3.1659,-3.344,-3.555,-3.8267,-3.9533,-4.0671,-4.2103,-4.2983,-4.3515,-4.3515,-4.3515,-4.3515,-4.3515,-4.3515,-4.3828,-4.4654,-4.5461,-4.625,-4.7058,-4.7419,-4.7551,-4.7406,-4.6448,-4.5808,-4.5494,-4.5052,-4.4748,-4.4615,-4.4615,-4.4615,-4.4615,-4.4615,-4.4615,-4.4615,-4.4615,-4.4615,-4.4615,-4.4615,-4.4615,-4.4615,-4.4615,-4.4615,-4.4615,-4.4615,-4.4615,-4.4615,-4.4615,-4.4615,-4.4615,-4.4615,-4.4615,-4.4615,-4.4615,-4.4615,-4.4615,-4.4615,-4.4615,-4.4615,-4.4615,-4.4615,-4.4615,-4.4615,-4.4615,-4.4615,-4.4615,-4.4615,-4.4615,-4.4615,-4.4615,-4.4615,-4.4615,-4.4615,-4.4615,-4.4615,-4.4615,-4.4615,-4.4615,-4.4615,-4.427,-4.3396,-4.3306,-4.2956,-4.2062,-4.1997,-4.1412,-4.0095,-3.9809,-3.9702,-3.9702,-4.0535,-4.1013,-4.1013,-4.1674,-4.1997,-4.1997,-4.1997,-4.2093,-4.2284,-4.2284,-4.241,-2.419,-2.475,-2.5319,-2.5393,-2.5393,-2.5595,-2.6337,-2.7703,-2.8858,-2.8987,-3.0191,-3.1715,-3.333,-3.5601,-3.7566,-3.8542,-3.9994,-4.1297,-4.2176,-4.2983,-4.3515,-4.3515,-4.3515,-4.3515,-4.3515,-4.3515,-4.3828,-4.4654,-4.5461,-4.625,-4.7058,-4.7827,-4.7977,-4.7406,-4.732,-4.6705,-4.5511,-4.5459,-4.5152,-4.4615,-4.4615,-4.4615,-4.4615,-4.4615,-4.4615,-4.4615,-4.4615,-4.4615,-4.4615,-4.4615,-4.4615,-4.4615,-4.4615,-4.4615,-4.4615,-4.4615,-4.4615,-4.4615,-4.4615,-4.4615,-4.4615,-4.4615,-4.4615,-4.4615,-4.4615,-4.4615,-4.4615,-4.4615,-4.4615,-4.4615,-4.4615,-4.4615,-4.4615,-4.4615,-4.4615,-4.4615,-4.4615,-4.4615,-4.4615,-4.4615,-4.4615,-4.4615,-4.4615,-4.4615,-4.4615,-4.4615,-4.4615,-4.4615,-4.4615,-4.4615,-4.427,-4.3396,-4.3306,-4.2956,-4.2062,-4.1997,-4.1933,-4.1804,-4.1046,-4.0588,-4.0588,-4.1429,-4.1901,-4.1901,-4.1965,-4.1997,-4.1997,-4.1997,-4.2426,-4.3216,-4.3216,-4.3651,-2.419,-2.4787,-2.5631,-2.6641,-2.7273,-2.7732,-2.8014,-2.895,-3.0161,-3.1678,-3.2467,-3.3697,-3.6358,-3.7606,-3.8836,-4.0653,-4.146,-4.2139,-4.2928,-4.3296,-4.3515,-4.3515,-4.3515,-4.3515,-4.3515,-4.3515,-4.3643,-4.392,-4.4709,-4.5498,-4.6305,-4.7113,-4.7678,-4.7939,-4.7593,-4.6955,-4.6063,-4.5681,-4.5205,-4.4615,-4.4615,-4.4615,-4.4615,-4.4615,-4.4615,-4.4615,-4.4615,-4.4615,-4.4615,-4.4615,-4.4615,-4.4615,-4.4615,-4.4615,-4.4615,-4.4615,-4.4615,-4.4615,-4.4615,-4.4615,-4.4615,-4.4615,-4.4615,-4.4615,-4.4615,-4.4615,-4.4615,-4.4615,-4.4615,-4.4615,-4.4615,-4.4615,-4.4615,-4.4615,-4.4615,-4.4615,-4.4615,-4.4615,-4.4615,-4.4615,-4.4615,-4.4615,-4.4615,-4.4615,-4.4615,-4.4615,-4.4615,-4.4615,-4.4615,-4.4615,-4.4468,-4.4138,-4.4109,-4.396,-4.3634,-4.3139,-4.2816,-4.2816,-4.1997,-4.1511,-4.1511,-4.2363,-4.2816,-4.2816,-4.335,-4.3604,-4.3604,-4.3604,-4.3798,-4.4109,-4.4109,-4.4298,-2.419,-2.4961,-2.6035,-2.7145,-2.8411,-2.9445,-2.9702,-3.0381,-3.1513,-3.3403,-3.4633,-3.6028,-3.8303,-3.9129,-4.0084,-4.1992,-4.2304,-4.258,-4.3404,-4.3515,-4.3515,-4.3515,-4.3515,-4.3515,-4.3515,-4.3515,-4.3515,-4.3515,-4.425,-4.5057,-4.5865,-4.6654,-4.7461,-4.8269,-4.7897,-4.7367,-4.671,-4.6305,-4.5699,-4.4879,-4.4879,-4.4786,-4.4615,-4.4615,-4.4615,-4.4615,-4.4615,-4.4615,-4.4615,-4.4615,-4.4615,-4.4615,-4.4615,-4.4615,-4.4615,-4.4615,-4.4615,-4.4615,-4.4615,-4.4615,-4.4615,-4.4615,-4.4615,-4.4615,-4.4615,-4.4615,-4.4615,-4.4615,-4.4615,-4.4615,-4.4615,-4.4615,-4.4615,-4.4615,-4.4615,-4.4615,-4.4615,-4.4615,-4.4615,-4.4615,-4.4615,-4.4615,-4.4615,-4.4615,-4.4615,-4.4615,-4.4615,-4.4615,-4.4615,-4.4615,-4.4615,-4.4615,-4.4615,-4.4615,-4.4615,-4.4064,-4.371,-4.371,-4.3169,-4.2707,-4.2426,-4.3259,-4.371,-4.371,-4.4298,-4.4615,-4.4615,-4.4615,-4.4615,-4.4615,-4.4615,-4.4615,-2.4208,-2.5383,-2.6602,-2.662,-2.8429,-3.0411,-3.1231,-3.2027,-3.2839,-3.3678,-3.645,-3.8707,-3.8726,-4.0031,-4.137,-4.2176,-4.2304,-4.2598,-4.3404,-4.3515,-4.3515,-4.3515,-4.3515,-4.3515,-4.3515,-4.3515,-4.3515,-4.3515,-4.425,-4.5039,-4.5847,-4.6636,-4.7461,-4.8269,-4.8306,-4.8015,-4.7406,-4.7406,-4.6751,-4.5511,-4.5511,-4.5178,-4.4615,-4.4615,-4.4615,-4.4615,-4.4615,-4.4615,-4.4615,-4.4615,-4.4615,-4.4615,-4.4615,-4.4615,-4.4615,-4.4615,-4.4615,-4.4615,-4.4615,-4.4615,-4.4615,-4.4615,-4.4615,-4.4615,-4.4615,-4.4615,-4.4615,-4.4615,-4.4615,-4.4615,-4.4615,-4.4615,-4.4615,-4.4615,-4.4615,-4.4615,-4.4615,-4.4615,-4.4615,-4.4615,-4.4615,-4.4615,-4.4615,-4.4615,-4.4615,-4.4615,-4.4615,-4.4615,-4.4615,-4.4615,-4.4615,-4.4615,-4.4615,-4.4615,-4.4615,-4.4615,-4.4615,-4.4615,-4.4615,-4.4196,-4.3336,-4.4138,-4.4615,-4.4615,-4.4615,-4.4615,-4.4615,-4.4615,-4.4615,-4.4615,-4.4615,-4.4615,-2.4897,-2.5805,-2.6859,-2.8014,-2.9677,-3.1237,-3.2063,-3.2871,-3.4009,-3.5987,-3.8065,-3.9717,-4.027,-4.124,-4.2213,-4.3002,-4.313,-4.3222,-4.3478,-4.3515,-4.3515,-4.3515,-4.3515,-4.3515,-4.3515,-4.3515,-4.3515,-4.3515,-4.3718,-4.4213,-4.5021,-4.5828,-4.6636,-4.7424,-4.8012,-4.8015,-4.7406,-4.7406,-4.6751,-4.5511,-4.5511,-4.5178,-4.4615,-4.4615,-4.4615,-4.4615,-4.4615,-4.4615,-4.4615,-4.4615,-4.4615,-4.4615,-4.4615,-4.4615,-4.4615,-4.4615,-4.4615,-4.4615,-4.4615,-4.4615,-4.4615,-4.4615,-4.4615,-4.4615,-4.4615,-4.4615,-4.4615,-4.4615,-4.4615,-4.4615,-4.4615,-4.4615,-4.4615,-4.4615,-4.4615,-4.4615,-4.4615,-4.4615,-4.4615,-4.4615,-4.4615,-4.4615,-4.4615,-4.4615,-4.4615,-4.4615,-4.4615,-4.4615,-4.4615,-4.4615,-4.4615,-4.4615,-4.4615,-4.4615,-4.4615,-4.4615,-4.4615,-4.4615,-4.4615,-4.4485,-4.4224,-4.444,-4.4615,-4.4615,-4.4615,-4.4615,-4.4615,-4.4615,-4.4615,-4.4615,-4.4615,-4.4615,-2.4787,-2.5731,-2.6822,-2.7794,-2.9751,-3.1874,-3.366,-3.4449,-3.5404,-3.7547,-3.9258,-4.0616,-4.1442,-4.2231,-4.2928,-4.3423,-4.3515,-4.3515,-4.3515,-4.3515,-4.3515,-4.3515,-4.3515,-4.3515,-4.3515,-4.3515,-4.3515,-4.3515,-4.3515,-4.3846,-4.4672,-4.5168,-4.5938,-4.7058,-4.7571,-4.7803,-4.7756,-4.7756,-4.7259,-4.6257,-4.6257,-4.58,-4.4944,-4.4692,-4.4615,-4.4615,-4.4615,-4.4615,-4.4615,-4.4615,-4.4615,-4.4615,-4.4615,-4.4615,-4.4615,-4.4615,-4.4615,-4.4615,-4.4615,-4.4615,-4.4615,-4.4615,-4.4615,-4.4615,-4.4615,-4.4615,-4.4615,-4.4615,-4.4615,-4.4615,-4.4615,-4.4615,-4.4615,-4.4615,-4.4615,-4.4615,-4.4615,-4.4615,-4.4615,-4.4615,-4.4615,-4.4615,-4.4615,-4.4615,-4.4615,-4.4615,-4.4615,-4.4615,-4.4615,-4.4615,-4.4615,-4.4615,-4.4615,-4.4615,-4.4615,-4.4615,-4.4615,-4.4615,-4.4615,-4.4615,-4.4615,-4.4615,-4.4615,-4.4615,-4.4615,-4.4615,-4.4615,-4.4615,-4.4615,-4.4615,-4.4615,-4.4615,-2.4273,-2.5438,-2.662,-2.6704,-2.9072,-3.226,-3.555,-3.6303,-3.678,-3.8469,-4.0031,-4.1352,-4.2158,-4.2947,-4.3515,-4.3515,-4.3515,-4.3515,-4.3515,-4.3515,-4.3515,-4.3515,-4.3515,-4.3515,-4.3515,-4.3515,-4.3515,-4.3515,-4.3515,-4.3809,-4.4562,-4.4672,-4.537,-4.6837,-4.7021,-4.7443,-4.8196,-4.8269,-4.8015,-4.7406,-4.7406,-4.6728,-4.5485,-4.4934,-4.4654,-4.4615,-4.4615,-4.4615,-4.4615,-4.4615,-4.4615,-4.4615,-4.4615,-4.4615,-4.4615,-4.4615,-4.4615,-4.4615,-4.4615,-4.4615,-4.4615,-4.4615,-4.4615,-4.4615,-4.4615,-4.4615,-4.4615,-4.4615,-4.4615,-4.4615,-4.4615,-4.4615,-4.4615,-4.4615,-4.4615,-4.4615,-4.4615,-4.4615,-4.4615,-4.4615,-4.4615,-4.4615,-4.4615,-4.4615,-4.4615,-4.4615,-4.4615,-4.4615,-4.4615,-4.4615,-4.4615,-4.4615,-4.4615,-4.4615,-4.4615,-4.4615,-4.4615,-4.4615,-4.4615,-4.4615,-4.4615,-4.4615,-4.4615,-4.4615,-4.4615,-4.4615,-4.4615,-4.4615,-4.4615,-4.4615,-4.4615,-4.4615,-2.4826,-2.586,-2.6759,-2.7383,-2.9487,-3.226,-3.555,-3.6303,-3.6927,-3.9184,-4.0432,-4.1352,-4.2158,-4.2947,-4.3515,-4.3515,-4.3515,-4.3515,-4.3515,-4.3515,-4.3515,-4.3515,-4.3515,-4.3515,-4.3515,-4.3515,-4.3515,-4.3515,-4.3515,-4.3588,-4.3736,-4.436,-4.4856,-4.5205,-4.6434,-4.7186,-4.7351,-4.7994,-4.8015,-4.7406,-4.7406,-4.6728,-4.5511,-4.5372,-4.5052,-4.4615,-4.4615,-4.4615,-4.4615,-4.4615,-4.4615,-4.4615,-4.4615,-4.4615,-4.4615,-4.4615,-4.4615,-4.4615,-4.4615,-4.4615,-4.4615,-4.4615,-4.4615,-4.4615,-4.4615,-4.4615,-4.4615,-4.4615,-4.4615,-4.4615,-4.4615,-4.4615,-4.4615,-4.4615,-4.4615,-4.4615,-4.4615,-4.4615,-4.4615,-4.4615,-4.4615,-4.4615,-4.4615,-4.4615,-4.4615,-4.4615,-4.4615,-4.4615,-4.4615,-4.4615,-4.4615,-4.4615,-4.4615,-4.4615,-4.4615,-4.4615,-4.4615,-4.4615,-4.4615,-4.4615,-4.4615,-4.4615,-4.4615,-4.4615,-4.4615,-4.4615,-4.4615,-4.4615,-4.4615,-4.4615,-4.4615,-4.4615,-2.4523,-2.5695,-2.7071,-2.9017,-3.076,-3.2724,-3.5642,-3.6597,-3.7551,-3.9974,-4.0802,-4.1462,-4.2653,-4.3222,-4.3515,-4.3515,-4.3515,-4.3515,-4.3515,-4.3515,-4.3515,-4.3515,-4.3515,-4.3515,-4.3515,-4.3515,-4.3515,-4.3515,-4.3515,-4.3515,-4.3515,-4.3901,-4.4305,-4.469,-4.5498,-4.6324,-4.7094,-4.7516,-4.7768,-4.7818,-4.7818,-4.7154,-4.5915,-4.5346,-4.4906,-4.4615,-4.4615,-4.4615,-4.4615,-4.4615,-4.4615,-4.4615,-4.4615,-4.4615,-4.4615,-4.4615,-4.4615,-4.4615,-4.4615,-4.4615,-4.4615,-4.4615,-4.4615,-4.4615,-4.4615,-4.4615,-4.4615,-4.4615,-4.4615,-4.4615,-4.4615,-4.4615,-4.4615,-4.4615,-4.4615,-4.4615,-4.4615,-4.4615,-4.4615,-4.4615,-4.4615,-4.4615,-4.4615,-4.4615,-4.4615,-4.4615,-4.4615,-4.4615,-4.4615,-4.4615,-4.4615,-4.4615,-4.4615,-4.4615,-4.4615,-4.4615,-4.4615,-4.4615,-4.4615,-4.4615,-4.4615,-4.4615,-4.4615,-4.4615,-4.4615,-4.4615,-4.4615,-4.4615,-4.4615,-4.4615,-4.4615,-4.4615,-2.386,-2.5303,-2.7346,-3.0411,-3.1806,-3.3091,-3.5697,-3.6813,-3.7988,-4.0414,-4.1003,-4.1589,-4.3185,-4.3515,-4.3515,-4.3515,-4.3515,-4.3515,-4.3515,-4.3515,-4.3515,-4.3515,-4.3515,-4.3515,-4.3515,-4.3515,-4.3515,-4.3515,-4.3515,-4.3515,-4.3515,-4.3515,-4.3809,-4.447,-4.4635,-4.5333,-4.6672,-4.6966,-4.7424,-4.8104,-4.8136,-4.7575,-4.6524,-4.5294,-4.4692,-4.4615,-4.4615,-4.4615,-4.4615,-4.4615,-4.4615,-4.4615,-4.4615,-4.4615,-4.4615,-4.4615,-4.4615,-4.4615,-4.4615,-4.4615,-4.4615,-4.4615,-4.4615,-4.4615,-4.4615,-4.4615,-4.4615,-4.4615,-4.4615,-4.4615,-4.4615,-4.4615,-4.4615,-4.4615,-4.4615,-4.4615,-4.4615,-4.4615,-4.4615,-4.4615,-4.4615,-4.4615,-4.4615,-4.4615,-4.4615,-4.4615,-4.4615,-4.4615,-4.4615,-4.4615,-4.4615,-4.4615,-4.4615,-4.4615,-4.4615,-4.4615,-4.4615,-4.4615,-4.4615,-4.4615,-4.4615,-4.4615,-4.4615,-4.4615,-4.4615,-4.4615,-4.4615,-4.4615,-4.4615,-4.4615,-4.4615,-4.4615,-2.3151,-2.4921,-2.7218,-2.9732,-3.0962,-3.2375,-3.5569,-3.6376,-3.7147,-3.9551,-4.0616,-4.1589,-4.3185,-4.3515,-4.3515,-4.3515,-4.3515,-4.3515,-4.3515,-4.3515,-4.3515,-4.3515,-4.3515,-4.3515,-4.3515,-4.3515,-4.3515,-4.3515,-4.3515,-4.3515,-4.3515,-4.3515,-4.3551,-4.3644,-4.4342,-4.4801,-4.5021,-4.6397,-4.7149,-4.7259,-4.7429,-4.7428,-4.7216,-4.5957,-4.5089,-4.4615,-4.4615,-4.4615,-4.4615,-4.4615,-4.4615,-4.4615,-4.4615,-4.4615,-4.4615,-4.4615,-4.4615,-4.4615,-4.4615,-4.4615,-4.4615,-4.4615,-4.4615,-4.4615,-4.4615,-4.4615,-4.4615,-4.4615,-4.4615,-4.4615,-4.4615,-4.4615,-4.4615,-4.4615,-4.4615,-4.4615,-4.4615,-4.4615,-4.4615,-4.4615,-4.4615,-4.4615,-4.4615,-4.4615,-4.4615,-4.4615,-4.4615,-4.4615,-4.4615,-4.4615,-4.4615,-4.4615,-4.4615,-4.4615,-4.4615,-4.4615,-4.4615,-4.4615,-4.4615,-4.4615,-4.4615,-4.4615,-4.4615,-4.4615,-4.4615,-4.4615,-4.4615,-4.4615,-4.4615,-4.4615,-4.4615,-4.4615,-2.4182,-2.5671,-2.7202,-2.9069,-3.0467,-3.2021,-3.4357,-3.5624,-3.6853,-3.8817,-3.9863,-4.0928,-4.2525,-4.3185,-4.3515,-4.3515,-4.3515,-4.3515,-4.3515,-4.3515,-4.3515,-4.3515,-4.3515,-4.3515,-4.3515,-4.3515,-4.3515,-4.3515,-4.3515,-4.3515,-4.3515,-4.3515,-4.3515,-4.3515,-4.3828,-4.425,-4.4691,-4.5388,-4.6214,-4.7113,-4.7652,-4.7736,-4.7381,-4.6708,-4.5993,-4.5253,-4.481,-4.4615,-4.4615,-4.4615,-4.4615,-4.4615,-4.4615,-4.4615,-4.4615,-4.4615,-4.4615,-4.4615,-4.4615,-4.4615,-4.4615,-4.4615,-4.4615,-4.4615,-4.4615,-4.4615,-4.4615,-4.4615,-4.4615,-4.4615,-4.4615,-4.4615,-4.4615,-4.4615,-4.4615,-4.4615,-4.4615,-4.4615,-4.4615,-4.4615,-4.4615,-4.4615,-4.4615,-4.4615,-4.4615,-4.4615,-4.4615,-4.4615,-4.4615,-4.4615,-4.4615,-4.4615,-4.4615,-4.4615,-4.4615,-4.4615,-4.4615,-4.4615,-4.4615,-4.4615,-4.4615,-4.4615,-4.4615,-4.4615,-4.4615,-4.4615,-4.4615,-4.4615,-4.4615,-4.4615,-4.4615,-4.4615,-2.4653,-2.5889,-2.7,-2.8418,-2.9826,-3.1378,-3.3343,-3.4761,-3.6174,-3.801,-3.9038,-4.001,-4.1423,-4.2506,-4.3259,-4.3478,-4.3515,-4.3515,-4.3515,-4.3515,-4.3515,-4.3515,-4.3515,-4.3515,-4.3515,-4.3515,-4.3515,-4.3515,-4.3515,-4.3515,-4.3515,-4.3515,-4.3515,-4.3515,-4.3515,-4.3791,-4.4397,-4.4617,-4.5498,-4.7113,-4.7547,-4.7636,-4.7381,-4.6955,-4.6407,-4.5745,-4.4958,-4.4615,-4.4615,-4.4615,-4.4615,-4.4615,-4.4615,-4.4615,-4.4615,-4.4615,-4.4615,-4.4615,-4.4615,-4.4615,-4.4615,-4.4615,-4.4615,-4.4615,-4.4615,-4.4615,-4.4615,-4.4615,-4.4615,-4.4615,-4.4615,-4.4615,-4.4615,-4.4615,-4.4615,-4.4615,-4.4615,-4.4615,-4.4615,-4.4615,-4.4615,-4.4615,-4.4615,-4.4615,-4.4615,-4.4615,-4.4615,-4.4615,-4.4615,-4.4615,-4.4615,-4.4615,-4.4615,-4.4615,-4.4615,-4.4615,-4.4615,-4.4615,-4.4615,-4.4615,-4.4615,-4.4615,-4.4615,-4.4615,-4.4615,-4.4615,-4.4615,-4.4615,-4.4615,-4.4615,-4.4615,-4.4615,-2.34,-2.4802,-2.6384,-2.7792,-2.8773,-3.0183,-3.3125,-3.3862,-3.4614,-3.707,-3.8193,-3.9019,-3.9863,-4.1313,-4.2598,-4.3386,-4.3515,-4.3515,-4.3515,-4.3515,-4.3515,-4.3515,-4.3515,-4.3515,-4.3515,-4.3515,-4.3515,-4.3515,-4.3515,-4.3515,-4.3515,-4.3515,-4.3515,-4.3515,-4.3515,-4.3533,-4.3552,-4.4323,-4.5498,-4.7094,-4.6551,-4.6702,-4.7381,-4.6354,-4.583,-4.5757,-4.4944,-4.4615,-4.4615,-4.4615,-4.4615,-4.4615,-4.4615,-4.4615,-4.4615,-4.4615,-4.4615,-4.4615,-4.4615,-4.4615,-4.4615,-4.4615,-4.4615,-4.4615,-4.4615,-4.4615,-4.4615,-4.4615,-4.4615,-4.4615,-4.4615,-4.4615,-4.4615,-4.4615,-4.4615,-4.4615,-4.4615,-4.4615,-4.4615,-4.4615,-4.4615,-4.4615,-4.4615,-4.4615,-4.4615,-4.4615,-4.4615,-4.4615,-4.4615,-4.4615,-4.4615,-4.4615,-4.4615,-4.4615,-4.4615,-4.4615,-4.4615,-4.4615,-4.4615,-4.4615,-4.4615,-4.4615,-4.4615,-4.4615,-4.4615,-4.4615,-4.4615,-4.4615,-4.4615,-4.4615,-4.4615,-4.4615,-2.3358,-2.4518,-2.5575,-2.6507,-2.8035,-2.9569,-3.0668,-3.2416,-3.4045,-3.4926,-3.6615,-3.819,-3.8982,-4.0873,-4.2396,-4.2671,-4.3149,-4.3515,-4.3515,-4.3515,-4.3515,-4.3515,-4.3515,-4.3515,-4.3515,-4.3515,-4.3515,-4.3515,-4.3515,-4.3515,-4.3515,-4.3515,-4.3515,-4.3515,-4.3515,-4.3515,-4.3515,-4.4305,-4.4984,-4.5553,-4.5863,-4.623,-4.6603,-4.6063,-4.581,-4.5757,-4.4944,-4.4615,-4.4615,-4.4615,-4.4615,-4.4615,-4.4615,-4.4615,-4.4615,-4.4615,-4.4615,-4.4615,-4.4615,-4.4615,-4.4615,-4.4615,-4.4615,-4.4615,-4.4615,-4.4615,-4.4615,-4.4615,-4.4615,-4.4615,-4.4615,-4.4615,-4.4615,-4.4615,-4.4615,-4.4615,-4.4615,-4.4615,-4.4615,-4.4615,-4.4615,-4.4615,-4.4615,-4.4615,-4.4615,-4.4615,-4.4615,-4.4615,-4.4615,-4.4615,-4.4615,-4.4615,-4.4615,-4.4615,-4.4615,-4.4615,-4.4615,-4.4615,-4.4615,-4.4615,-4.4615,-4.4615,-4.4615,-4.4615,-4.4615,-4.4615,-4.4615,-4.4615,-4.4615,-4.4615,-4.4615,-4.4615,-2.3106,-2.4064,-2.4928,-2.5842,-2.7196,-2.8475,-2.9148,-3.0849,-3.2587,-3.3582,-3.511,-3.6593,-3.7698,-3.9662,-4.1277,-4.1809,-4.2561,-4.3094,-4.3094,-4.3331,-4.3515,-4.3515,-4.3515,-4.3515,-4.3515,-4.3515,-4.3515,-4.3515,-4.3515,-4.3515,-4.3515,-4.3515,-4.3515,-4.3515,-4.3515,-4.3515,-4.3515,-4.403,-4.4433,-4.4691,-4.504,-4.5412,-4.5791,-4.5508,-4.5376,-4.5286,-4.4807,-4.4615,-4.4615,-4.4615,-4.4615,-4.4615,-4.4615,-4.4615,-4.4615,-4.4615,-4.4615,-4.4615,-4.4615,-4.4615,-4.4615,-4.4615,-4.4615,-4.4615,-4.4615,-4.4615,-4.4615,-4.4615,-4.4615,-4.4615,-4.4615,-4.4615,-4.4615,-4.4615,-4.4615,-4.4615,-4.4615,-4.4615,-4.4615,-4.4615,-4.4615,-4.4615,-4.4615,-4.4615,-4.4615,-4.4615,-4.4615,-4.4615,-4.4615,-4.4615,-4.4615,-4.4615,-4.4615,-4.4615,-4.4615,-4.4615,-4.4615,-4.4615,-4.4615,-4.4615,-4.4615,-4.4615,-4.4615,-4.4615,-4.4615,-4.4615,-4.4615,-4.4615,-4.4615,-4.4615,-4.4615,-4.4615,0.0,0.0,0.0,-2.5812,-2.6244,-2.6818,-2.8782,-2.9258,-3.0139,-3.3064,-3.3715,-3.4266,-3.5917,-3.7514,-3.9095,-4.0691,-4.1682,-4.2268,-4.2268,-4.2928,-4.3441,-4.346,-4.346,-4.3478,-4.3515,-4.3515,-4.3515,-4.3515,-4.3515,-4.3515,-4.3515,-4.3515,-4.3515,-4.3515,-4.3515,-4.3515,-4.3515,-4.3515,-4.3883,-4.4654,-4.4082,-4.4207,-4.496,-4.4694,-4.4482,-4.4311,-4.4519,-4.4598,-4.4615,-4.4615,-4.4615,-4.4615,-4.4615,-4.4615,-4.4615,-4.4615,-4.4615,-4.4615,-4.4615,-4.4615,-4.4615,-4.4615,-4.4615,-4.4615,-4.4615,-4.4615,-4.4615,-4.4615,-4.4615,-4.4615,-4.4615,-4.4615,-4.4615,-4.4615,-4.4615,-4.4615,-4.4615,-4.4615,-4.4615,-4.4615,-4.4615,-4.4615,-4.4615,-4.4615,-4.4615,-4.4615,-4.4615,-4.4615,-4.4615,-4.4615,-4.4615,-4.4615,-4.4615,-4.4615,-4.4615,-4.4615,-4.4615,-4.4615,-4.4615,-4.4615,-4.4615,-4.4615,-4.4615,-4.4615,-4.4615,-4.4615,-4.4615,-4.4615,-4.4615,-4.4615,-4.4615,-4.4615,-2.2566,0.0,0.0,0.0,0.0,0.0,-2.6983,-2.8267,-2.9543,-3.0376,-3.182,-3.3256,-3.4302,-3.533,-3.638,-3.7459,-3.9772,-4.1425,-4.1425,-4.1625,-4.1992,-4.2561,-4.2635,-4.2855,-4.3441,-4.3515,-4.3515,-4.3515,-4.3515,-4.3515,-4.3515,-4.3515,-4.3515,-4.3515,-4.3515,-4.3515,-4.3515,-4.3515,-4.3608,-4.3828,-4.365,-4.3777,-4.4131,-4.4074,-4.4113,-4.4294,-4.4373,-4.4485,-4.4615,-4.4615,-4.4615,-4.4615,-4.4615,-4.4615,-4.4615,-4.4615,-4.4615,-4.4615,-4.4615,-4.4615,-4.4615,-4.4615,-4.4615,-4.4615,-4.4615,-4.4615,-4.4615,-4.4615,-4.4615,-4.4615,-4.4615,-4.4615,-4.4615,-4.4615,-4.4615,-4.4615,-4.4615,-4.4615,-4.4615,-4.4615,-4.4615,-4.4615,-4.4615,-4.4615,-4.4615,-4.4615,-4.4615,-4.4615,-4.4615,-4.4615,-4.4615,-4.4615,-4.4615,-4.4615,-4.4615,-4.4615,-4.4615,-4.4615,-4.4615,-4.4615,-4.4615,-4.4615,-4.4615,-4.4615,-4.4615,-4.4615,-4.4615,-4.4615,-4.4615,-4.4615,-4.4615,-4.4615,-2.3009,-2.3086,-2.3197,-2.4885,0.0,0.0,-2.6126,-2.7083,-2.8156,-2.9003,-3.0194,-3.1445,-3.2577,-3.3445,-3.427,-3.511,-3.7096,-3.8912,-3.9939,-4.0673,-4.126,-4.1754,-4.1809,-4.2121,-4.291,-4.3002,-4.313,-4.3478,-4.3515,-4.3515,-4.3515,-4.3515,-4.3515,-4.3515,-4.3515,-4.3515,-4.3515,-4.3515,-4.3515,-4.3515,-4.3515,-4.3559,-4.3685,-4.3763,-4.3914,-4.409,-4.4226,-4.4374,-4.447,-4.4567,-4.4615,-4.4615,-4.4615,-4.4615,-4.4615,-4.4615,-4.4615,-4.4615,-4.4615,-4.4615,-4.4615,-4.4615,-4.4615,-4.4615,-4.4615,-4.4615,-4.4615,-4.4615,-4.4615,-4.4615,-4.4615,-4.4615,-4.4615,-4.4615,-4.4615,-4.4615,-4.4615,-4.4615,-4.4615,-4.4615,-4.4615,-4.4615,-4.4615,-4.4615,-4.4615,-4.4615,-4.4615,-4.4615,-4.4615,-4.4615,-4.4615,-4.4615,-4.4615,-4.4615,-4.4615,-4.4615,-4.4615,-4.4615,-4.4615,-4.4615,-4.4615,-4.4615,-4.4615,-4.4615,-4.4615,-4.4615,-4.4615,-4.4615,-4.4615,-4.4615,-4.4615,-4.4615,-2.3687,-2.3528,-2.3312,-2.4904,-2.5308,0.0,-2.5823,-2.5974,-2.6537,-2.8323,-2.8758,-2.9269,-3.0754,-3.1703,-3.2513,-3.3288,-3.4169,-3.5634,-3.8083,-3.9646,-4.0618,-4.0802,-4.082,-4.1168,-4.2084,-4.2176,-4.2506,-4.3296,-4.346,-4.3515,-4.3515,-4.3515,-4.3515,-4.3515,-4.3515,-4.3515,-4.3515,-4.3515,-4.3515,-4.3515,-4.3515,-4.3515,-4.3516,-4.3703,-4.3796,-4.3813,-4.4126,-4.4303,-4.4401,-4.4592,-4.4652,-4.4615,-4.4615,-4.4615,-4.4615,-4.4615,-4.4615,-4.4615,-4.4615,-4.4615,-4.4615,-4.4615,-4.4615,-4.4615,-4.4615,-4.4615,-4.4615,-4.4615,-4.4615,-4.4615,-4.4615,-4.4615,-4.4615,-4.4615,-4.4615,-4.4615,-4.4615,-4.4615,-4.4615,-4.4615,-4.4615,-4.4615,-4.4615,-4.4615,-4.4615,-4.4615,-4.4615,-4.4615,-4.4615,-4.4615,-4.4615,-4.4615,-4.4615,-4.4615,-4.4615,-4.4615,-4.4615,-4.4615,-4.4615,-4.4615,-4.4615,-4.4615,-4.4615,-4.4615,-4.4615,-4.4615,-4.4615,-4.4615,-4.4615,-4.4615,-4.4615,-4.4615,-2.4014,-2.3975,-2.4086,-2.5058,-2.5308,0.0,-2.5423,-2.5818,-2.6277,-2.6665,-2.7177,-2.7802,-2.8606,-2.9527,-3.0348,-3.0814,-3.2299,-3.4191,-3.6456,-3.7037,-3.7716,-3.9019,-3.9184,-3.9738,-4.1187,-4.1334,-4.168,-4.247,-4.313,-4.3515,-4.3515,-4.3515,-4.3515,-4.3515,-4.3515,-4.3515,-4.3515,-4.3515,-4.3515,-4.3515,-4.3515,-4.3515,-4.3497,-4.3539,-4.3648,-4.3809,-4.3868,-4.4345,-4.5014,-4.507,-4.4888,-4.4615,-4.4615,-4.4615,-4.4615,-4.4615,-4.4615,-4.4615,-4.4615,-4.4615,-4.4615,-4.4615,-4.4615,-4.4615,-4.4615,-4.4615,-4.4615,-4.4615,-4.4615,-4.4615,-4.4615,-4.4615,-4.4615,-4.4615,-4.4615,-4.4615,-4.4615,-4.4615,-4.4615,-4.4615,-4.4615,-4.4615,-4.4615,-4.4615,-4.4615,-4.4615,-4.4615,-4.4615,-4.4615,-4.4615,-4.4615,-4.4615,-4.4615,-4.4615,-4.4615,-4.4615,-4.4615,-4.4615,-4.4615,-4.4615,-4.4615,-4.4615,-4.4615,-4.4615,-4.4615,-4.4615,-4.4615,-4.4615,-4.4615,-4.4615,-4.4615,-4.4615,-2.4697,-2.4413,-2.4298,-2.5096,-2.5308,0.0,0.0,-2.5371,-2.5698,-2.6034,-2.6367,-2.6822,-2.7519,-2.8049,-2.8612,-2.9196,-3.0344,-3.1674,-3.3185,-3.4696,-3.594,-3.6765,-3.7239,-3.8138,-3.9753,-3.9884,-4.0579,-4.2176,-4.2671,-4.3075,-4.3478,-4.3515,-4.3515,-4.3515,-4.3515,-4.3515,-4.3515,-4.3515,-4.3515,-4.3515,-4.3515,-4.3515,-4.3515,-4.3515,-4.3551,-4.3663,-4.3754,-4.407,-4.454,-4.5013,-4.5067,-4.4897,-4.5014,-4.4852,-4.4615,-4.4615,-4.4615,-4.4615,-4.4615,-4.4615,-4.4615,-4.4615,-4.4615,-4.4615,-4.4615,-4.4615,-4.4615,-4.4615,-4.4615,-4.4615,-4.4615,-4.4615,-4.4615,-4.4615,-4.4615,-4.4615,-4.4615,-4.4615,-4.4615,-4.4615,-4.4615,-4.4615,-4.4615,-4.4615,-4.4615,-4.4615,-4.4615,-4.4615,-4.4615,-4.4615,-4.4615,-4.4615,-4.4615,-4.4615,-4.4615,-4.4615,-4.4615,-4.4615,-4.4615,-4.4615,-4.4615,-4.4615,-4.4615,-4.4615,-4.4615,-4.4615,-4.4615,-4.4615,-4.4615,-4.4615,-4.4615,-4.4615,-2.5558,-2.4947,-2.449,-2.5135,-2.5308,-2.5259,0.0,0.0,0.0,-2.5754,-2.587,-2.6045,-2.6662,-2.6949,-2.7168,-2.7387,-2.8278,-2.9052,-2.9336,-3.1885,-3.3937,-3.4472,-3.5312,-3.6395,-3.7848,-3.8432,-3.9515,-4.146,-4.1901,-4.2415,-4.3222,-4.3276,-4.3332,-4.3515,-4.3515,-4.3515,-4.3515,-4.3515,-4.3515,-4.3515,-4.3515,-4.3515,-4.3515,-4.3515,-4.3515,-4.3498,-4.3667,-4.382,-4.4035,-4.4789,-4.5134,-4.5189,-4.554,-4.5372,-4.4934,-4.4814,-4.4759,-4.4776,-4.4654,-4.4615,-4.4615,-4.4615,-4.4615,-4.4615,-4.4615,-4.4615,-4.4615,-4.4615,-4.4615,-4.4615,-4.4615,-4.4615,-4.4615,-4.4615,-4.4615,-4.4615,-4.4615,-4.4615,-4.4615,-4.4615,-4.4615,-4.4615,-4.4615,-4.4615,-4.4615,-4.4615,-4.4615,-4.4615,-4.4615,-4.4615,-4.4615,-4.4615,-4.4615,-4.4615,-4.4615,-4.4615,-4.4615,-4.4615,-4.4615,-4.4615,-4.4615,-4.4615,-4.4615,-4.4615,-4.4615,-4.4615,-4.4615,-4.4615,-4.4615,-4.4615,-4.4615,-4.453,-2.6447,-2.5827,-2.5192,-2.5288,-2.5308,-2.5284,-2.5269,0.0,-2.5297,-2.5358,0.0,-2.5354,-2.5265,0.0,0.0,-2.4266,-2.6079,-2.7138,-2.5507,-2.7509,-3.0085,-3.2579,-3.3587,-3.4449,-3.5334,-3.7408,-3.8817,-3.9093,-4.0432,-4.1589,-4.2396,-4.2433,-4.2763,-4.3478,-4.3515,-4.3515,-4.3515,-4.3515,-4.3515,-4.3515,-4.3515,-4.3515,-4.3515,-4.3515,-4.3515,-4.3497,-4.3519,-4.3942,-4.4619,-4.4711,-4.4848,-4.5105,-4.5957,-4.6264,-4.6119,-4.5597,-4.5399,-4.532,-4.4803,-4.4615,-4.4615,-4.4615,-4.4615,-4.4615,-4.4615,-4.4615,-4.4615,-4.4615,-4.4615,-4.4615,-4.4615,-4.4615,-4.4615,-4.4615,-4.4615,-4.4615,-4.4615,-4.4615,-4.4615,-4.4615,-4.4615,-4.4615,-4.4615,-4.4615,-4.4615,-4.4615,-4.4615,-4.4615,-4.4615,-4.4615,-4.4615,-4.4615,-4.4615,-4.4615,-4.4615,-4.4615,-4.4615,-4.4615,-4.4615,-4.4615,-4.4615,-4.4615,-4.4615,-4.4615,-4.4615,-4.4615,-4.4615,-4.4615,-4.4615,-4.4615,-4.4615,-4.4215,-2.8198,-2.7448,-2.6697,-2.6173,-2.6058,-2.5923,-2.5423,-2.5308,-2.5308,-2.5308,0.0,0.0,0.0,0.0,0.0,0.0,-2.5768,-2.6477,-2.5691,-2.6808,-2.8313,-2.9961,-3.1184,-3.2521,-3.4137,-3.5665,-3.7151,-3.8597,-3.9331,-4.0469,-4.2213,-4.2304,-4.2671,-4.3478,-4.3515,-4.3515,-4.3515,-4.3515,-4.3515,-4.3515,-4.3515,-4.3515,-4.3515,-4.3515,-4.3515,-4.3515,-4.3515,-4.3681,-4.403,-4.4525,-4.4766,-4.4908,-4.5764,-4.595,-4.5723,-4.5936,-4.6014,-4.594,-4.5346,-4.5115,-4.5062,-4.472,-4.4615,-4.4615,-4.4615,-4.4615,-4.4615,-4.4615,-4.4615,-4.4615,-4.4615,-4.4615,-4.4615,-4.4615,-4.4615,-4.4615,-4.4615,-4.4615,-4.4615,-4.4615,-4.4615,-4.4615,-4.4615,-4.4615,-4.4615,-4.4615,-4.4615,-4.4615,-4.4615,-4.4615,-4.4615,-4.4615,-4.4615,-4.4615,-4.4615,-4.4615,-4.4615,-4.4615,-4.4615,-4.4615,-4.4615,-4.4615,-4.4615,-4.4615,-4.4615,-4.4615,-4.4615,-4.413,-4.391,-4.391,-4.391,-4.3487,-2.9698,-2.8857,-2.803,-2.7178,-2.6774,-2.6428,-2.5808,-2.5462,-2.5308,-2.5308,-2.5308,0.0,0.0,0.0,-2.4731,-2.4038,0.0,-2.5124,-2.4698,-2.5424,-2.6511,-2.7903,-2.9109,-3.0658,-3.2705,-3.376,-3.5188,-3.7202,-3.7991,-3.9239,-4.1203,-4.1735,-4.2341,-4.3149,-4.3404,-4.3515,-4.3515,-4.3515,-4.3515,-4.3515,-4.3515,-4.3515,-4.3515,-4.3515,-4.3515,-4.3515,-4.3515,-4.3515,-4.3551,-4.4121,-4.4378,-4.4452,-4.5259,-4.5356,-4.5172,-4.6033,-4.6486,-4.6594,-4.5965,-4.5648,-4.5381,-4.4786,-4.4615,-4.4615,-4.4615,-4.4615,-4.4615,-4.4615,-4.4615,-4.4615,-4.4615,-4.4615,-4.4615,-4.4615,-4.4615,-4.4615,-4.4615,-4.4615,-4.4615,-4.4615,-4.4615,-4.4615,-4.4615,-4.4615,-4.4615,-4.4615,-4.4615,-4.4615,-4.4615,-4.4615,-4.4615,-4.4615,-4.4615,-4.4615,-4.4615,-4.4615,-4.4615,-4.4615,-4.4615,-4.4615,-4.4615,-4.4615,-4.4615,-4.4615,-4.4395,-4.4265,-4.4265,-4.3487,-4.2997,-4.2784,-4.2987,-4.2709,-3.0596,-2.9717,-2.8876,-2.8068,-2.7217,-2.6601,-2.6563,-2.5904,-2.5308,-2.5308,-2.5308,-2.5058,-2.4279,-2.4149,-2.3336,-2.0865,-2.1846,0.0,0.0,-2.1915,-2.4003,-2.6895,-2.7802,-2.8812,-3.0453,-3.1851,-3.3023,-3.3899,-3.6189,-3.7915,-3.8781,-4.0288,-4.1499,-4.2304,-4.3075,-4.3515,-4.3515,-4.3515,-4.3515,-4.3515,-4.3515,-4.3515,-4.3515,-4.3515,-4.3515,-4.3515,-4.3515,-4.3515,-4.3515,-4.3533,-4.3551,-4.3608,-4.4415,-4.4728,-4.4839,-4.5832,-4.6693,-4.7259,-4.6594,-4.5989,-4.5381,-4.4786,-4.4615,-4.4615,-4.4615,-4.4615,-4.4615,-4.4615,-4.4615,-4.4615,-4.4615,-4.4615,-4.4615,-4.4615,-4.4615,-4.4615,-4.4615,-4.4615,-4.4615,-4.4615,-4.4615,-4.4615,-4.4615,-4.4615,-4.4615,-4.4615,-4.4615,-4.4615,-4.4615,-4.4615,-4.4615,-4.4615,-4.4615,-4.4615,-4.4615,-4.4615,-4.4615,-4.4615,-4.4615,-4.4615,-4.4615,-4.4615,-4.4615,-4.4615,-4.3842,-4.3426,-4.3426,-4.2692,-4.1965,-4.1288,-4.1999,-4.1931,-3.3141,-3.2275,-3.1275,-2.991,-2.9327,-2.8827,-2.7717,-2.6794,-2.6154,-2.6154,-2.5692,-2.5212,-2.4947,-2.4889,-2.4447,-2.3047,-2.3297,-2.3259,0.0,-2.2451,-2.3371,-2.4968,-2.5675,-2.6795,-2.8731,-2.9823,-3.1131,-3.2871,-3.4284,-3.6119,-3.8579,-3.9221,-4.0377,-4.2249,-4.2561,-4.2947,-4.3496,-4.3515,-4.3515,-4.3515,-4.3515,-4.3515,-4.3515,-4.3515,-4.3515,-4.3515,-4.3515,-4.3515,-4.3515,-4.3515,-4.3515,-4.3533,-4.3791,-4.4232,-4.4875,-4.6283,-4.6973,-4.7186,-4.7079,-4.6659,-4.6046,-4.5858,-4.552,-4.5205,-4.5205,-4.4906,-4.4615,-4.4615,-4.4615,-4.4615,-4.4615,-4.4615,-4.4615,-4.4615,-4.4615,-4.4615,-4.4615,-4.4615,-4.4615,-4.4615,-4.4615,-4.4615,-4.4615,-4.4615,-4.4615,-4.4615,-4.4615,-4.4615,-4.4615,-4.4615,-4.4615,-4.4615,-4.4615,-4.4615,-4.4615,-4.4615,-4.4615,-4.4615,-4.4615,-4.4615,-4.4615,-4.4079,-4.3809,-4.3809,-4.3064,-4.2675,-4.2675,-4.1931,-4.1441,-4.1204,-4.095,-4.0722,-3.4988,-3.4257,-3.343,-3.1712,-3.1077,-3.05,-2.9102,-2.8102,-2.7409,-2.7121,-2.637,-2.5673,-2.5365,-2.5077,-2.4601,-2.3778,-2.3374,-2.2874,0.0,-2.1908,-2.2336,-2.349,-2.4195,-2.5425,-2.7568,-2.8434,-2.9791,-3.2003,-3.3183,-3.4981,-3.7698,-3.8395,-3.968,-4.1809,-4.2158,-4.269,-4.3496,-4.3515,-4.3515,-4.3515,-4.3515,-4.3515,-4.3515,-4.3515,-4.3515,-4.3515,-4.3515,-4.3515,-4.3515,-4.3515,-4.3515,-4.3515,-4.3515,-4.3809,-4.4433,-4.5755,-4.6617,-4.7129,-4.7322,-4.7128,-4.671,-4.6478,-4.6143,-4.5833,-4.5833,-4.5399,-4.4934,-4.4934,-4.4776,-4.4615,-4.4615,-4.4615,-4.4615,-4.4615,-4.4615,-4.4615,-4.4615,-4.4615,-4.4615,-4.4615,-4.4615,-4.4615,-4.4615,-4.4615,-4.4615,-4.4615,-4.4615,-4.4615,-4.4615,-4.4615,-4.4615,-4.4615,-4.4615,-4.4615,-4.4615,-4.4615,-4.4615,-4.4615,-4.4316,-4.4164,-4.4164,-4.342,-4.3284,-4.3826,-4.2557,-4.2168,-4.2692,-4.1424,-4.0798,-4.0798,-4.0333,-4.0096]},{"header":{"parameterUnit":"m.s-1","parameterCategory":1,"la1":30.6,"la2":29.2853,"lo1":-89.7004,"lo2":-87.6739,"dx":0.0162,"dy":0.0183,"nx":112,"ny":82,"refTime":"2022-12-01T06:00:00:Z","depth":0,"parameterNumber":3,"parameterNumberName":"V-component_of_WINDS"},"data":[0.0,0.0,0.0,0.0,0.0,0.0,0.0,0.0,0.0,0.0,0.0,0.0,0.0,0.0,0.0,0.0,0.0,0.0,0.0,0.0,0.0,0.0,0.0,0.0,0.0,0.0,0.0,0.0,0.0,0.0,0.0,0.0,0.0,0.0,0.0,0.0,0.0,0.0,0.0,0.0,0.0,0.0,0.0,0.0,0.0,0.0,0.0,0.0,0.0,0.0,0.0,0.0,0.0,0.0,0.0,0.0,0.0,0.0,0.0,0.0,0.0,0.0,0.0,0.0,0.0,0.0,0.0,0.0,0.0,0.0,0.0,0.0,0.0,0.0,0.0,0.0,0.0,0.0,0.0,0.0,0.0,0.0,0.0,0.0,0.0,0.0,0.0,0.0,0.0,0.0,-1.7465,-1.7633,-1.8054,-1.8312,-1.8318,-1.7903,-1.7586,-1.741,0.0,0.0,0.0,0.0,0.0,0.0,0.0,0.0,0.0,0.0,0.0,0.0,0.0,0.0,0.0,0.0,0.0,0.0,0.0,0.0,0.0,0.0,0.0,0.0,0.0,0.0,0.0,0.0,0.0,0.0,0.0,0.0,0.0,0.0,0.0,0.0,0.0,0.0,0.0,0.0,0.0,0.0,0.0,0.0,0.0,0.0,0.0,0.0,0.0,0.0,0.0,0.0,0.0,0.0,0.0,0.0,0.0,0.0,0.0,0.0,0.0,0.0,0.0,0.0,0.0,0.0,0.0,0.0,0.0,0.0,0.0,0.0,0.0,0.0,0.0,0.0,0.0,0.0,0.0,0.0,0.0,0.0,0.0,0.0,0.0,0.0,0.0,0.0,0.0,0.0,0.0,0.0,0.0,0.0,0.0,0.0,0.0,0.0,0.0,0.0,0.0,0.0,0.0,0.0,-1.7738,-1.8661,-1.8846,-1.8883,-1.8882,-1.8795,-1.838,-1.7461,0.0,0.0,0.0,0.0,0.0,0.0,0.0,0.0,0.0,0.0,0.0,0.0,0.0,0.0,0.0,0.0,0.0,0.0,0.0,0.0,0.0,0.0,0.0,0.0,0.0,0.0,0.0,0.0,0.0,0.0,0.0,0.0,0.0,0.0,0.0,0.0,0.0,0.0,0.0,0.0,0.0,0.0,0.0,0.0,0.0,0.0,0.0,0.0,0.0,0.0,0.0,0.0,0.0,0.0,0.0,0.0,0.0,0.0,0.0,0.0,0.0,0.0,0.0,0.0,0.0,0.0,0.0,0.0,0.0,0.0,0.0,0.0,0.0,0.0,0.0,0.0,0.0,0.0,0.0,0.0,0.0,0.0,0.0,0.0,0.0,0.0,0.0,0.0,0.0,0.0,0.0,0.0,0.0,0.0,0.0,0.0,0.0,0.0,0.0,0.0,0.0,0.0,0.0,-1.7906,-1.8571,-1.9366,-1.942,-1.9421,-1.9421,-1.9171,-1.8657,-1.7877,-1.73,0.0,0.0,0.0,0.0,0.0,0.0,0.0,0.0,0.0,0.0,0.0,0.0,0.0,0.0,0.0,0.0,0.0,0.0,0.0,0.0,0.0,0.0,0.0,0.0,0.0,0.0,0.0,0.0,0.0,0.0,0.0,0.0,0.0,0.0,0.0,0.0,0.0,0.0,0.0,0.0,0.0,0.0,0.0,0.0,0.0,0.0,0.0,0.0,0.0,0.0,0.0,0.0,0.0,0.0,0.0,0.0,0.0,0.0,0.0,0.0,0.0,0.0,0.0,0.0,0.0,0.0,0.0,0.0,0.0,0.0,0.0,0.0,0.0,0.0,0.0,0.0,0.0,0.0,0.0,0.0,0.0,0.0,0.0,0.0,0.0,0.0,0.0,0.0,0.0,0.0,0.0,0.0,0.0,0.0,0.0,0.0,0.0,0.0,0.0,0.0,0.0,0.0,-1.8783,-1.9397,-1.9961,-2.0125,-2.015,-2.0012,-1.9648,-1.907,-1.8254,-1.7815,0.0,0.0,0.0,0.0,0.0,0.0,0.0,0.0,0.0,0.0,0.0,0.0,0.0,0.0,0.0,0.0,0.0,0.0,0.0,0.0,0.0,0.0,0.0,0.0,0.0,0.0,0.0,0.0,0.0,0.0,0.0,0.0,0.0,0.0,0.0,0.0,0.0,0.0,0.0,0.0,0.0,0.0,0.0,0.0,0.0,0.0,0.0,0.0,0.0,0.0,0.0,0.0,0.0,0.0,0.0,0.0,0.0,0.0,0.0,0.0,0.0,0.0,0.0,0.0,0.0,0.0,0.0,0.0,0.0,0.0,0.0,0.0,0.0,0.0,0.0,0.0,0.0,0.0,0.0,0.0,0.0,0.0,0.0,0.0,0.0,0.0,0.0,0.0,0.0,0.0,0.0,0.0,0.0,0.0,0.0,0.0,0.0,0.0,0.0,0.0,0.0,0.0,-1.9106,-1.9966,-2.0562,-2.1094,-2.1194,-2.0679,-2.0591,-1.9912,-1.8304,-1.8166,0.0,0.0,0.0,0.0,0.0,0.0,0.0,0.0,0.0,0.0,0.0,0.0,0.0,0.0,0.0,0.0,0.0,0.0,0.0,0.0,0.0,0.0,0.0,0.0,0.0,0.0,0.0,0.0,0.0,0.0,0.0,0.0,0.0,0.0,0.0,0.0,0.0,0.0,0.0,0.0,0.0,0.0,0.0,0.0,0.0,0.0,0.0,0.0,0.0,0.0,0.0,0.0,0.0,0.0,0.0,0.0,0.0,0.0,0.0,0.0,0.0,0.0,0.0,0.0,0.0,0.0,0.0,0.0,0.0,0.0,0.0,0.0,0.0,0.0,0.0,0.0,0.0,0.0,0.0,0.0,0.0,0.0,0.0,0.0,0.0,0.0,0.0,0.0,0.0,0.0,0.0,0.0,0.0,0.0,0.0,0.0,0.0,0.0,0.0,0.0,0.0,0.0,-1.9673,-2.059,-2.1142,-2.1395,-2.1405,-2.1232,-2.0893,-2.0277,-1.9258,0.0,0.0,0.0,0.0,0.0,0.0,0.0,0.0,0.0,0.0,0.0,0.0,0.0,0.0,0.0,0.0,0.0,0.0,0.0,0.0,0.0,0.0,0.0,0.0,0.0,0.0,0.0,0.0,0.0,0.0,0.0,0.0,0.0,0.0,0.0,0.0,0.0,0.0,0.0,0.0,0.0,0.0,0.0,0.0,0.0,0.0,0.0,0.0,0.0,0.0,0.0,0.0,0.0,0.0,0.0,0.0,0.0,0.0,0.0,0.0,0.0,0.0,0.0,0.0,0.0,0.0,0.0,0.0,0.0,0.0,0.0,0.0,0.0,0.0,0.0,0.0,0.0,0.0,0.0,0.0,0.0,0.0,0.0,0.0,0.0,0.0,0.0,0.0,0.0,0.0,0.0,0.0,0.0,0.0,0.0,0.0,0.0,0.0,0.0,0.0,0.0,0.0,-1.9191,-2.0393,-2.1358,-2.1707,-2.1907,-2.1945,-2.1769,-2.1405,-2.0817,-1.9861,0.0,0.0,0.0,0.0,0.0,0.0,0.0,0.0,0.0,0.0,0.0,0.0,0.0,0.0,0.0,0.0,0.0,0.0,0.0,0.0,0.0,0.0,0.0,0.0,0.0,0.0,0.0,0.0,0.0,0.0,0.0,0.0,0.0,0.0,0.0,0.0,0.0,0.0,0.0,0.0,0.0,0.0,0.0,0.0,0.0,0.0,0.0,0.0,0.0,0.0,0.0,0.0,0.0,0.0,0.0,0.0,0.0,0.0,0.0,0.0,0.0,0.0,0.0,0.0,0.0,0.0,0.0,0.0,0.0,0.0,0.0,0.0,0.0,0.0,0.0,0.0,0.0,0.0,0.0,0.0,0.0,0.0,0.0,0.0,0.0,0.0,0.0,0.0,0.0,0.0,0.0,0.0,0.0,0.0,0.0,0.0,0.0,0.0,0.0,0.0,0.0,0.0,-1.9734,-2.128,-2.2322,-2.2334,-2.2794,-2.2895,-2.2343,-2.2293,-2.1606,0.0,0.0,0.0,0.0,0.0,0.0,0.0,0.0,0.0,0.0,0.0,0.0,0.0,0.0,0.0,0.0,0.0,0.0,0.0,0.0,0.0,0.0,0.0,0.0,0.0,0.0,0.0,0.0,0.0,0.0,0.0,0.0,0.0,0.0,0.0,0.0,0.0,0.0,0.0,0.0,0.0,0.0,0.0,0.0,0.0,0.0,0.0,0.0,0.0,0.0,0.0,0.0,0.0,0.0,0.0,0.0,0.0,0.0,0.0,0.0,0.0,0.0,0.0,0.0,0.0,0.0,0.0,0.0,0.0,0.0,0.0,0.0,0.0,0.0,0.0,0.0,0.0,0.0,0.0,0.0,0.0,0.0,0.0,0.0,0.0,0.0,0.0,0.0,0.0,0.0,0.0,0.0,0.0,0.0,0.0,0.0,0.0,0.0,0.0,0.0,0.0,0.0,0.0,-2.0299,-2.187,-2.302,-2.3452,-2.396,-2.4073,-2.3552,-2.3095,-2.2481,-2.1631,0.0,0.0,0.0,0.0,0.0,0.0,0.0,0.0,0.0,0.0,0.0,0.0,0.0,0.0,0.0,0.0,0.0,0.0,0.0,0.0,0.0,0.0,0.0,0.0,0.0,0.0,0.0,0.0,0.0,0.0,0.0,0.0,0.0,0.0,0.0,0.0,0.0,0.0,0.0,0.0,0.0,0.0,0.0,0.0,0.0,0.0,0.0,0.0,0.0,0.0,0.0,0.0,0.0,0.0,0.0,0.0,0.0,0.0,0.0,0.0,0.0,0.0,0.0,0.0,0.0,0.0,0.0,0.0,0.0,0.0,0.0,0.0,0.0,0.0,0.0,0.0,0.0,0.0,0.0,0.0,0.0,0.0,0.0,0.0,0.0,0.0,0.0,0.0,0.0,0.0,0.0,0.0,0.0,0.0,0.0,0.0,0.0,0.0,0.0,0.0,0.0,0.0,-2.1475,-2.2723,-2.3672,-2.4268,-2.4619,-2.4662,-2.4356,-2.3973,-2.3446,-2.2656,0.0,0.0,0.0,0.0,0.0,0.0,0.0,0.0,0.0,0.0,0.0,0.0,0.0,0.0,0.0,0.0,0.0,0.0,0.0,0.0,0.0,0.0,0.0,0.0,0.0,0.0,0.0,0.0,0.0,0.0,0.0,0.0,0.0,0.0,0.0,0.0,0.0,0.0,0.0,0.0,0.0,0.0,0.0,0.0,0.0,0.0,0.0,0.0,0.0,0.0,0.0,0.0,0.0,0.0,0.0,0.0,0.0,0.0,0.0,0.0,0.0,0.0,0.0,0.0,0.0,0.0,0.0,0.0,0.0,0.0,0.0,0.0,0.0,0.0,0.0,0.0,0.0,0.0,0.0,0.0,0.0,0.0,0.0,0.0,0.0,0.0,0.0,0.0,0.0,0.0,0.0,0.0,0.0,0.0,0.0,0.0,0.0,0.0,0.0,0.0,0.0,0.0,-2.291,-2.3697,-2.4343,-2.4813,-2.4913,-2.4958,-2.4863,-2.4863,-2.4399,-2.3333,0.0,0.0,0.0,0.0,0.0,0.0,0.0,0.0,0.0,0.0,0.0,0.0,0.0,0.0,0.0,0.0,0.0,0.0,0.0,0.0,0.0,0.0,0.0,0.0,0.0,0.0,0.0,0.0,0.0,0.0,0.0,0.0,0.0,0.0,0.0,0.0,0.0,0.0,0.0,0.0,0.0,0.0,0.0,0.0,0.0,0.0,0.0,0.0,0.0,0.0,0.0,0.0,0.0,0.0,0.0,0.0,0.0,0.0,0.0,0.0,-1.4864,-1.4699,0.0,0.0,0.0,0.0,0.0,0.0,0.0,0.0,0.0,0.0,0.0,0.0,0.0,0.0,0.0,0.0,0.0,0.0,0.0,0.0,0.0,0.0,0.0,0.0,0.0,0.0,0.0,0.0,0.0,0.0,0.0,0.0,0.0,0.0,0.0,0.0,0.0,0.0,0.0,0.0,-2.299,-2.4368,-2.5297,-2.5423,-2.5837,-2.5959,-2.5473,-2.5435,-2.5159,-2.4474,-2.3371,0.0,0.0,0.0,0.0,0.0,0.0,0.0,0.0,0.0,0.0,0.0,0.0,0.0,0.0,0.0,0.0,0.0,0.0,0.0,0.0,0.0,0.0,0.0,0.0,0.0,0.0,0.0,0.0,0.0,0.0,0.0,0.0,0.0,0.0,0.0,0.0,0.0,0.0,0.0,0.0,0.0,0.0,0.0,0.0,0.0,0.0,0.0,0.0,0.0,0.0,0.0,0.0,0.0,0.0,0.0,0.0,0.0,0.0,0.0,-1.5353,-1.5322,0.0,0.0,0.0,0.0,0.0,0.0,0.0,0.0,0.0,0.0,0.0,0.0,0.0,0.0,0.0,0.0,0.0,0.0,0.0,0.0,0.0,0.0,0.0,0.0,0.0,0.0,0.0,0.0,0.0,0.0,0.0,0.0,0.0,0.0,0.0,0.0,0.0,0.0,0.0,0.0,-2.4556,-2.5485,-2.6214,-2.6741,-2.7067,-2.713,-2.6829,-2.6565,-2.6176,-2.5636,-2.4556,0.0,0.0,0.0,0.0,0.0,0.0,0.0,0.0,0.0,0.0,0.0,0.0,0.0,0.0,0.0,0.0,0.0,0.0,0.0,0.0,0.0,0.0,0.0,0.0,0.0,0.0,0.0,0.0,0.0,0.0,0.0,0.0,0.0,0.0,0.0,0.0,0.0,0.0,0.0,0.0,0.0,0.0,0.0,0.0,0.0,0.0,0.0,0.0,0.0,0.0,0.0,0.0,0.0,-1.5771,-1.5947,-1.633,-1.6398,-1.6427,-1.64,-1.5847,-1.5844,-1.6255,-1.6383,0.0,0.0,0.0,0.0,0.0,0.0,0.0,0.0,0.0,0.0,0.0,0.0,0.0,0.0,0.0,0.0,0.0,0.0,0.0,0.0,0.0,0.0,-1.9685,-2.0137,-2.0315,-2.0128,-1.9245,0.0,0.0,0.0,0.0,0.0,0.0,0.0,0.0,0.0,0.0,0.0,-2.626,-2.6663,-2.7128,-2.8009,-2.8109,-2.8109,-2.8109,-2.7682,-2.7231,-2.6813,-2.5711,-2.4644,0.0,0.0,0.0,0.0,0.0,0.0,0.0,0.0,0.0,0.0,0.0,0.0,0.0,0.0,0.0,0.0,0.0,0.0,0.0,0.0,0.0,0.0,0.0,0.0,0.0,0.0,0.0,0.0,0.0,0.0,0.0,0.0,-1.0224,-1.0663,0.0,0.0,0.0,0.0,0.0,0.0,0.0,0.0,0.0,0.0,0.0,0.0,0.0,-1.4665,-1.4747,-1.5517,-1.5979,-1.6048,-1.6792,-1.7181,-1.7259,-1.7588,-1.7754,-1.7744,-1.7678,0.0,-1.6427,-1.7126,0.0,0.0,0.0,0.0,0.0,0.0,0.0,0.0,0.0,0.0,0.0,0.0,0.0,0.0,0.0,0.0,0.0,0.0,0.0,0.0,0.0,0.0,-2.1866,-2.1942,-2.2315,-2.2621,-2.2467,-2.1004,-1.9838,-2.0274,-2.0843,-2.1392,0.0,0.0,0.0,0.0,0.0,0.0,-2.6461,-2.7293,-2.7946,-2.8084,-2.8109,-2.8109,-2.8109,-2.8047,-2.7959,-2.7896,-2.6854,-2.5984,-2.5297,-2.369,0.0,0.0,0.0,0.0,0.0,0.0,0.0,0.0,0.0,0.0,0.0,0.0,0.0,0.0,0.0,0.0,0.0,0.0,0.0,0.0,0.0,0.0,0.0,0.0,0.0,0.0,0.0,0.0,0.0,-1.0361,-1.1183,-1.158,-1.2031,-1.2416,0.0,0.0,0.0,0.0,0.0,0.0,0.0,0.0,0.0,-1.5195,-1.5429,-1.5772,-1.6271,-1.6846,-1.7275,-1.7519,-1.8154,-1.8492,-1.8457,-1.8643,-1.873,-1.873,-1.873,-1.8463,-1.8044,-1.8333,-1.8857,-1.9515,0.0,0.0,0.0,0.0,-1.9756,-1.9949,-1.9949,-1.9786,-1.961,-1.961,0.0,0.0,0.0,0.0,0.0,0.0,0.0,-2.2133,-2.246,-2.2899,-2.3339,-2.3622,-2.4104,-2.4507,-2.4507,-2.3996,-2.3255,-2.2246,-2.2776,-2.3433,-2.3661,-2.4378,0.0,0.0,0.0,-2.7178,-2.777,-2.8273,-2.8699,-2.9013,-2.9051,-2.9051,-2.9051,-2.875,-2.8561,-2.8561,-2.7821,-2.7027,-2.6147,-2.5071,-2.359,0.0,0.0,0.0,0.0,0.0,0.0,0.0,0.0,0.0,0.0,0.0,0.0,0.0,0.0,0.0,0.0,0.0,0.0,0.0,0.0,0.0,0.0,0.0,0.0,0.0,0.0,0.0,0.0,-1.1349,-1.1956,-1.2467,-1.2842,-1.3203,0.0,0.0,0.0,0.0,0.0,0.0,-1.5116,-1.5225,-1.5625,-1.6408,-1.6643,-1.7041,-1.7695,-1.8232,-1.8652,-1.8929,-1.9521,-1.9785,-1.9795,-1.9902,-1.9951,-1.9951,-1.9951,-1.9951,-1.9938,-1.9618,-1.9802,-2.0281,-2.0224,-2.057,-2.1086,-2.0319,-2.0514,-2.1156,-2.1156,-2.1238,-2.1292,-2.1292,-2.1292,-2.1267,-2.1129,0.0,0.0,0.0,0.0,-2.3873,-2.4481,-2.4732,-2.4953,-2.5345,-2.5864,-2.6246,-2.6251,-2.6611,-2.6355,-2.4532,-2.4863,-2.5477,-2.5624,-2.5993,0.0,-2.7369,-2.7607,-2.7996,-2.8787,-2.9013,-2.9315,-2.9741,-2.9792,-2.9792,-2.9792,-2.9402,-2.9113,-2.9113,-2.8624,-2.7946,-2.7165,-2.6298,-2.4971,-2.3188,0.0,0.0,0.0,0.0,0.0,0.0,0.0,0.0,0.0,0.0,0.0,0.0,0.0,0.0,0.0,0.0,0.0,0.0,0.0,0.0,0.0,0.0,0.0,0.0,0.0,0.0,0.0,0.0,0.0,-1.3315,-1.3467,0.0,0.0,0.0,0.0,-1.4746,-1.5117,-1.5537,-1.6007,-1.6406,-1.6846,-1.7337,-1.8086,-1.849,-1.8539,-1.9368,-1.9824,-1.9826,-2.0683,-2.1093,-2.1112,-2.1562,-2.1758,-2.1758,-2.1758,-2.1758,-2.1703,-2.0851,-2.054,-2.067,-2.1465,-2.1809,-2.1832,-2.1776,-2.2033,-2.242,-2.242,-2.2676,-2.2982,-2.2982,-2.2982,-2.3183,-2.4224,-2.4243,0.0,0.0,-2.5473,-2.5598,-2.6223,-2.6763,-2.7148,-2.7181,-2.758,-2.795,-2.7976,-2.8002,-2.7826,-2.723,-2.713,-2.7361,-2.7838,0.0,-2.7996,-2.8059,-2.8511,-2.8825,-2.8888,-2.9415,-2.9767,-2.9792,-2.9792,-2.9792,-2.9792,-2.9767,-2.9741,-2.9741,-2.9202,-2.8825,-2.8762,-2.7268,-2.6135,-2.5448,-2.3351,0.0,0.0,0.0,0.0,0.0,0.0,0.0,0.0,0.0,0.0,0.0,0.0,0.0,0.0,0.0,0.0,0.0,0.0,0.0,0.0,0.0,0.0,0.0,0.0,0.0,0.0,0.0,0.0,-1.3821,-1.4367,0.0,-1.4913,-1.5615,-1.6152,-1.6436,-1.6602,-1.6982,-1.7686,-1.7837,-1.812,-1.8594,-1.916,-1.959,-1.9873,-2.0469,-2.0908,-2.1182,-2.1504,-2.165,-2.166,-2.1816,-2.1885,-2.1885,-2.1885,-2.1885,-2.1877,-2.1561,-2.145,-2.1498,-2.2235,-2.2892,-2.3436,-2.3861,-2.4453,-2.5068,-2.5068,-2.5157,-2.5272,-2.5272,-2.5272,-2.5423,-2.6176,-2.6276,-2.6264,-2.7005,-2.7205,-2.7266,-2.7458,-2.7657,-2.7809,-2.7811,-2.8204,-2.8613,-2.8602,-2.8925,-2.9148,-2.895,-2.8324,-2.8002,-2.8537,-2.8599,-2.8762,-2.9139,-2.9365,-2.9478,-2.9478,-2.9666,-2.9792,-2.9792,-2.9792,-2.9792,-2.9792,-2.9792,-2.9792,-2.9792,-2.9603,-2.9315,-2.8913,-2.836,-2.7457,-2.621,-2.5418,-2.44,0.0,0.0,0.0,0.0,0.0,0.0,0.0,0.0,0.0,0.0,0.0,0.0,0.0,0.0,0.0,0.0,0.0,0.0,0.0,0.0,0.0,0.0,0.0,0.0,0.0,-1.3584,-1.4092,-1.4484,-1.5195,-1.5752,-1.6055,-1.6707,-1.7311,-1.7773,-1.7939,-1.833,-1.8997,-1.9173,-1.9492,-1.9932,-2.0352,-2.0713,-2.1045,-2.1445,-2.1765,-2.21,-2.2236,-2.2305,-2.2305,-2.2305,-2.2305,-2.2305,-2.2305,-2.2305,-2.2305,-2.2305,-2.2305,-2.233,-2.2493,-2.2914,-2.3515,-2.4318,-2.5213,-2.6081,-2.6793,-2.7052,-2.7052,-2.7052,-2.7052,-2.7115,-2.7444,-2.7557,-2.767,-2.8221,-2.8372,-2.8422,-2.8608,-2.867,-2.8671,-2.8674,-2.8937,-2.9187,-2.9187,-2.9517,-2.9792,-2.9792,-2.9189,-2.88,-2.9151,-2.9176,-2.9415,-2.998,-2.9917,-2.9867,-3.0043,-3.0068,-3.0068,-3.0068,-3.0231,-3.0269,-3.008,-3.0231,-3.0181,-2.9817,-2.9967,-2.9817,-2.9252,-2.8976,-2.8349,-2.7318,-2.6784,-2.5749,-2.4268,0.0,0.0,0.0,0.0,0.0,0.0,0.0,0.0,0.0,0.0,0.0,0.0,0.0,0.0,0.0,0.0,0.0,0.0,0.0,0.0,0.0,0.0,0.0,-1.3564,-1.4277,-1.4971,-1.542,-1.5859,-1.6496,-1.7334,-1.7803,-1.8223,-1.8627,-1.9082,-1.9512,-1.9951,-2.0371,-2.081,-2.12,-2.168,-2.1904,-2.1904,-2.2324,-2.2529,-2.2539,-2.2896,-2.3091,-2.3091,-2.3091,-2.3091,-2.3091,-2.3091,-2.3091,-2.3091,-2.3091,-2.3091,-2.3013,-2.2278,-2.2007,-2.2121,-2.3234,-2.4291,-2.5438,-2.7458,-2.816,-2.816,-2.816,-2.816,-2.816,-2.816,-2.816,-2.8247,-2.8761,-2.8925,-2.9076,-2.9667,-2.9817,-2.9829,-2.9829,-2.9842,-2.9854,-2.9854,-2.9842,-2.9842,-2.9842,-2.9842,-2.9829,-2.9817,-2.9817,-3.0005,-3.0557,-3.0181,0.0,-3.057,-3.0633,-3.0633,-3.0633,-3.1085,-3.1185,-3.0683,-3.1097,-3.0934,-2.9892,-3.0319,-3.0317,-2.9817,-2.9126,-2.8787,-2.8938,-2.7369,-2.598,-2.485,0.0,0.0,0.0,0.0,0.0,0.0,0.0,0.0,0.0,0.0,0.0,0.0,0.0,0.0,0.0,0.0,0.0,0.0,0.0,0.0,0.0,-1.4619,-1.4883,-1.4883,-1.5088,-1.5644,-1.6709,-1.7217,-1.7686,-1.8208,-1.8682,-1.9238,-1.998,-2.0184,-2.0586,-2.1299,-2.1455,-2.1582,-2.1699,-2.2119,-2.2344,-2.2344,-2.2711,-2.2925,-2.2925,-2.3042,-2.3091,-2.3091,-2.3091,-2.3091,-2.3091,-2.3091,-2.3091,-2.3091,-2.3091,-2.3091,-2.3159,-2.3785,-2.4011,-2.421,-2.6116,-2.751,-2.856,-2.9124,-2.9327,-2.9327,-2.9327,-2.9327,-2.9327,-2.9327,-2.9327,-2.9352,-2.9516,-2.9554,-2.9591,-2.9741,-3.0099,-3.0388,-3.0388,-3.0677,-3.0954,-3.0954,-3.0951,-3.0947,-3.0947,-3.0751,-3.0548,-3.0405,-3.0394,-3.057,-3.1097,-3.1047,-3.0997,-3.116,-3.1173,-3.1173,-3.1173,-3.1298,-3.1336,-3.1185,-3.1088,-3.0901,-3.0626,-3.0221,-2.997,-2.9817,-2.9628,-2.9504,-2.9542,-2.8309,-2.7105,0.0,0.0,0.0,0.0,0.0,0.0,0.0,0.0,0.0,0.0,0.0,0.0,0.0,0.0,0.0,0.0,0.0,0.0,0.0,0.0,0.0,0.0,-1.5566,-1.6063,-1.6455,-1.6504,-1.6787,-1.7549,-1.8174,-1.8779,-1.9385,-1.9668,-2.0224,-2.1094,-2.1153,-2.1416,-2.2119,-2.2148,-2.2227,-2.2402,-2.2646,-2.273,-2.273,-2.2974,-2.3091,-2.3091,-2.3091,-2.3091,-2.3091,-2.3091,-2.3198,-2.3408,-2.3408,-2.3471,-2.3627,-2.3627,-2.3627,-2.3677,0.0,0.0,0.0,0.0,-2.7723,-2.9106,-2.9106,-2.9404,-2.9792,-2.9792,-2.9792,-2.9843,-3.006,-3.0124,-3.0188,-3.0393,-3.0452,-3.0493,-3.0487,-3.0711,-3.0885,-3.0758,-3.1088,-3.1381,-3.1406,-3.1272,-3.1242,-3.1373,-3.1242,0.0,-3.0957,-3.0954,-3.111,-3.1583,-3.1524,-3.1553,-3.2057,-3.1725,-3.146,-3.1646,-3.1938,-3.2122,-3.2108,-3.1938,0.0,0.0,0.0,-3.027,-2.9835,-2.9789,0.0,0.0,0.0,-2.8524,-2.7861,-2.7861,0.0,0.0,-2.3365,-2.2418,0.0,0.0,0.0,0.0,0.0,0.0,0.0,0.0,0.0,0.0,0.0,0.0,0.0,0.0,0.0,0.0,-1.6336,-1.7145,-1.8037,-1.8232,-1.8301,-1.8301,-1.8965,-1.9803,-2.0674,-2.0752,-2.1104,-2.1894,-2.1953,-2.2139,-2.2559,-2.2578,0.0,0.0,0.0,-2.3091,-2.3091,-2.3091,-2.3091,-2.3091,-2.314,-2.3169,-2.3169,-2.3218,-2.3452,-2.3857,-2.3857,-2.4072,-2.4414,-2.4414,-2.4414,-2.4336,-2.3708,-2.3535,-2.3787,-2.4955,-2.6689,-2.8475,-2.8475,0.0,0.0,-2.9967,-2.9994,-3.0058,-3.0571,-3.0687,-3.0777,-3.1241,-3.1371,-3.1419,-3.1406,-3.1413,-3.1372,-3.1025,-3.1269,-3.1577,-3.1583,-3.1364,-3.1231,-3.1521,-3.1587,-3.1592,-3.1588,-3.1493,-3.1542,-3.2026,-3.1822,-3.1962,-3.2975,-3.2235,-3.1742,-3.2101,-3.2699,0.0,-3.3089,-3.3076,-3.2254,-3.0302,-3.1054,-3.1055,-2.9856,-2.981,-2.979,-2.9792,-2.9792,-2.9807,-2.9808,-2.9808,-2.9817,-2.9742,-2.7809,-2.7917,0.0,0.0,0.0,0.0,0.0,0.0,0.0,0.0,0.0,0.0,0.0,0.0,0.0,0.0,0.0,-1.7266,-1.7656,-1.8057,-1.8926,-1.9639,-2.0106,-2.0106,-2.0253,-2.0703,-2.1543,-2.1631,-2.1846,-2.2353,-2.2393,-2.2578,-2.2955,-2.2974,-2.3013,-2.3091,-2.3091,-2.3091,-2.3091,-2.3091,-2.3091,-2.3101,-2.3496,0.0,-2.3682,-2.4014,-2.4219,-2.4297,-2.4297,-2.4346,-2.4414,-2.4414,-2.4414,-2.4487,-2.5368,-2.6209,-2.7118,-2.8376,-2.9659,-3.0764,-3.0764,-3.0898,-3.1085,-3.1085,-3.1092,-3.1086,-3.1217,-3.1263,0.0,-3.106,-3.1187,-3.1381,-3.1413,-3.1665,-3.1783,-3.1413,-3.2075,-3.2762,-3.2754,-3.2729,-3.2674,-3.2742,-3.2797,-3.2767,-3.2787,-3.2,-3.1746,-3.2737,-3.2817,-3.2847,-3.3084,-3.2905,-3.2812,-3.2893,-3.3006,-3.3099,-3.3122,-3.3086,-3.2915,-3.2474,-3.2654,-3.1891,-2.9896,-2.9797,-2.9793,-2.9792,-2.9792,-2.9805,-2.9819,-2.9819,-2.982,-2.977,-2.9343,-2.9401,0.0,0.0,0.0,0.0,0.0,0.0,0.0,0.0,0.0,0.0,0.0,-1.4874,-1.5332,0.0,-1.7002,-1.7871,-1.8545,-1.9189,-1.9881,-2.0488,-2.082,-2.0635,-2.0997,-2.1484,-2.2139,-2.2197,-2.2373,-2.275,-2.2779,-2.2877,-2.3081,-2.3091,-2.3091,-2.3091,-2.3091,-2.3091,-2.3091,-2.3315,-2.3467,-2.3467,-2.3896,-2.4102,-2.4111,-2.4316,-2.4531,-2.4746,-2.4746,-2.4873,-2.5031,-2.5031,-2.5031,-2.5163,-2.6434,-2.6638,-2.6307,-2.7579,-2.8749,-2.9738,-3.0401,-3.0964,-3.1414,-3.1395,-3.1415,-3.1458,-3.1635,-3.1681,-3.1723,-3.193,-3.212,-3.2252,-3.2254,-3.2416,-3.2493,-3.2287,-3.2707,-3.3124,-3.3124,-3.3124,-3.3124,-3.3124,-3.3124,-3.3124,-3.3124,-3.2614,-3.2446,-3.3018,-3.3124,-3.3124,-3.3124,-3.3124,-3.3124,-3.3124,-3.3124,-3.3124,-3.3124,-3.3124,-3.3091,-3.3098,-3.3117,-3.2615,-3.1502,-3.0403,-2.9794,-2.9794,-2.9804,-2.9808,-2.9808,-2.9789,-2.9792,-2.9779,-2.9796,-2.9794,0.0,0.0,0.0,0.0,0.0,0.0,0.0,-1.2341,-1.3076,-1.3981,-1.4954,-1.5683,-1.5889,-1.7061,-1.8086,-1.834,-1.9316,-2.0195,-2.0635,-2.1152,-2.1348,-2.1026,-2.1572,-2.2168,-2.2598,-2.2637,-2.273,-2.3071,-2.3091,-2.3091,-2.3091,-2.3091,-2.3091,-2.3091,-2.3091,-2.314,-2.3218,-2.3613,-2.3828,-2.3916,-2.4336,-2.4541,-2.4551,-2.4639,-2.4863,-2.5195,-2.5195,-2.54,-2.5693,-2.5693,-2.5693,-2.5781,-2.6849,-2.6165,-2.4854,-2.6355,-2.759,-2.8701,-2.9718,-3.0802,-3.1729,-3.1741,-3.1731,-3.1782,-3.2114,-3.2203,-3.2326,-3.294,-3.3124,-3.3124,-3.3124,-3.3124,-3.3124,-3.3124,-3.3124,-3.3124,-3.3124,-3.3124,-3.3124,-3.3124,-3.3124,-3.3124,-3.3124,-3.3124,-3.3124,-3.3124,-3.3124,-3.3124,-3.3124,-3.3124,-3.3124,-3.3124,-3.3124,-3.3124,-3.3124,-3.3124,-3.3124,-3.3124,-3.3085,-3.3119,-3.3097,-3.1377,-3.045,-3.0429,-3.0437,-3.0343,-3.0096,-3.0113,-3.0157,-3.0234,-3.0234,-3.0057,-0.9434,-1.0275,-1.087,-1.0329,-1.0918,-1.1694,0.0,-1.2974,-1.4083,-1.4304,-1.5533,-1.6785,-1.7578,-1.7881,-1.8379,-1.9512,-2.0146,-2.0654,-2.1094,-2.1855,-2.2353,-2.2295,-2.2383,-2.2607,-2.2984,-2.3023,-2.3042,-2.3091,-2.3091,-2.3091,-2.3091,-2.3091,-2.3091,-2.3091,-2.3091,-2.3276,-2.3711,-2.3769,-2.3975,-2.4355,-2.4785,-2.5047,-2.501,-2.541,-2.5567,-2.5615,-2.5615,-2.5645,-2.5693,-2.5693,-2.5693,-2.5684,-2.5878,-2.5771,-2.5866,-2.8193,-2.9828,-3.0868,-3.1,-3.1869,-3.2923,-3.2898,-3.2898,-3.291,-3.2948,-3.296,-3.2986,-3.3086,-3.3124,-3.3124,-3.3124,-3.3124,-3.3124,-3.3124,-3.3124,-3.3124,-3.3124,-3.3124,-3.3124,-3.3124,-3.3124,-3.3124,-3.3124,-3.3124,-3.3124,-3.3124,-3.3124,-3.3124,-3.3124,-3.3124,-3.3124,-3.3124,-3.3124,-3.3124,-3.3124,-3.3124,-3.3124,-3.3124,-3.3086,-3.3106,-3.3097,-3.2873,-3.274,-3.2733,-3.2735,-3.222,-3.122,-3.1223,-3.1407,-3.1762,-3.1762,-3.1046,-0.9618,-1.032,-1.0778,-1.0129,-1.0526,-1.1396,-1.241,-1.3165,-1.4008,-1.5454,-1.6642,-1.7588,-1.7949,-1.8613,-1.9287,-1.9824,-2.0498,-2.1113,-2.1553,-2.2129,-2.2607,-2.2808,-2.2838,-2.2906,-2.3081,-2.3091,-2.3091,-2.3091,-2.3091,-2.3091,-2.3091,-2.3091,-2.3091,-2.3091,-2.3344,-2.3603,-2.3789,-2.4287,-2.4619,-2.4805,-2.5244,-2.5459,-2.5459,-2.5606,-2.5693,-2.5693,-2.5693,-2.5693,-2.5693,-2.5693,-2.5693,-2.5693,-2.5693,-2.5693,-2.6014,-2.8495,-2.9727,-3.0361,-3.1777,-3.2655,-3.3124,-3.3124,-3.3124,-3.3124,-3.3124,-3.3124,-3.3124,-3.3124,-3.3124,-3.3124,-3.3124,-3.3124,-3.3124,-3.3124,-3.3124,-3.3124,-3.3124,-3.3124,-3.3124,-3.3124,-3.3124,-3.3124,-3.3124,-3.3124,-3.3124,-3.3124,-3.3124,-3.3124,-3.3124,-3.3124,-3.3124,-3.3124,-3.3124,-3.3124,-3.3124,-3.3124,-3.3124,-3.3124,-3.3124,-3.3104,-3.3093,-3.3081,-3.3102,-3.3089,-3.3107,-3.2648,-3.1743,-3.1748,-3.1729,-3.1663,-3.1663,-3.1332,-0.9646,-1.0167,-1.055,-1.0068,-1.0361,-1.1264,-1.3034,-1.3536,-1.4236,-1.645,-1.7555,-1.8223,-1.834,-1.9209,-1.999,-2.0206,-2.0918,-2.1562,-2.2002,-2.2422,-2.275,-2.3062,-2.3091,-2.3091,-2.3091,-2.3091,-2.3091,-2.3091,-2.3091,-2.3091,-2.3091,-2.3091,-2.3149,-2.3276,-2.3623,-2.3906,-2.4141,-2.4756,-2.5174,-2.5254,-2.5586,-2.5693,-2.5693,-2.5693,-2.5693,-2.5693,-2.5693,-2.5693,-2.5693,-2.5693,-2.5693,-2.5693,-2.5693,-2.5693,-2.5965,-2.8121,-2.8912,-2.9177,-3.0968,-3.1937,-3.2393,-3.2407,-3.2742,-3.3083,-3.3077,-3.3107,-3.3124,-3.3124,-3.3124,-3.3124,-3.3124,-3.3124,-3.3124,-3.3124,-3.3124,-3.3124,-3.3124,-3.3124,-3.3124,-3.3124,-3.3124,-3.3187,-3.3487,-3.3525,-3.3426,-3.3127,-3.3358,-3.342,-3.3162,-3.3124,-3.3124,-3.3124,-3.3124,-3.3124,-3.3124,-3.3124,-3.3124,-3.3124,-3.3124,-3.3124,-3.3124,-3.3124,-3.3124,-3.3124,-3.3098,-3.2828,-3.2306,-3.2319,-3.2142,-3.1851,-3.1851,-3.1851,-0.976,-1.0131,-1.0598,-1.0598,-1.078,-1.1542,-1.3606,-1.4388,-1.5154,-1.7005,-1.8037,-1.8715,-1.917,-1.9609,-2.0195,-2.1015,-2.1572,-2.2012,-2.2432,-2.2808,-2.3081,-2.3091,-2.3091,-2.3091,-2.3091,-2.3091,-2.3091,-2.3091,-2.3091,-2.3091,-2.3091,-2.3091,-2.3286,-2.375,-2.3779,-2.4189,-2.5067,-2.5106,-2.5283,-2.5664,-2.5684,-2.5693,-2.5693,-2.5693,-2.5693,-2.5693,-2.5693,-2.5693,-2.5693,-2.5693,-2.5693,-2.5693,-2.5693,-2.5693,-2.5878,-2.7173,-2.7636,-2.7683,-2.7731,-2.9031,-3.0674,-3.0668,-3.1788,-3.3104,-3.3105,-3.3114,-3.3124,-3.3124,-3.3124,-3.3124,-3.3124,-3.3124,-3.3124,-3.3124,-3.3124,-3.3124,-3.3124,-3.3124,-3.3124,-3.3124,-3.3124,-3.3449,-3.447,-3.4641,-3.4294,-3.3257,-3.3995,-3.4286,-3.3219,-3.3124,-3.3124,-3.3124,-3.3124,-3.3124,-3.3124,-3.3124,-3.3124,-3.3124,-3.3124,-3.3124,-3.3124,-3.3124,-3.3124,-3.3124,-3.3111,-3.3099,-3.3056,-3.3086,-3.3074,-3.3074,-3.3074,-3.3074,-1.0815,-1.0842,-1.0928,-1.1089,-1.1705,-1.2658,-1.4152,-1.5069,-1.6044,-1.749,-1.8477,-1.9111,-1.9258,-1.9863,-2.0439,-2.0742,-2.1406,-2.1934,-2.208,-2.2705,-2.3091,-2.3091,-2.3091,-2.3091,-2.3091,-2.3091,-2.3091,-2.3091,-2.3091,-2.3091,-2.3091,-2.3408,-2.3633,-2.3789,-2.4346,-2.4822,-2.5116,-2.5361,-2.5586,-2.5693,-2.5693,-2.5693,-2.5693,-2.5693,-2.5693,-2.5693,-2.5693,-2.5693,-2.5693,-2.5693,-2.5693,-2.5693,-2.5693,-2.5693,-2.5732,-2.6197,-2.6342,-2.6572,-2.8226,-2.9244,-2.9794,-2.9795,-2.9081,-2.8181,-2.818,-3.0493,-3.3114,-3.3114,-3.3077,-3.3124,-3.3124,-3.3124,-3.3124,-3.3124,-3.3124,-3.3124,-3.3124,-3.3656,-3.4154,-3.4154,-3.4155,-3.4293,-3.4647,-3.5309,-3.5692,-3.5339,-3.5602,-3.5168,-3.3339,-3.3102,-3.3102,-3.3106,-3.3124,-3.3124,-3.3124,-3.3124,-3.3124,-3.3124,-3.3124,-3.3124,-3.3124,-3.3124,-3.3124,-3.3124,-3.3124,-3.3124,-3.3124,-3.3124,-3.3124,-3.3124,-3.3124,-3.3124,-1.1276,-1.1289,-1.1349,-1.1536,-1.2302,-1.3378,-1.4596,-1.56,-1.6498,-1.7332,-1.846,-1.9214,-1.8875,-1.9791,-2.0703,-2.1026,-2.1514,-2.1992,-2.2295,-2.275,-2.3091,-2.3091,-2.3091,-2.3091,-2.3091,-2.3091,-2.3091,-2.3091,-2.3091,-2.3169,-2.3315,-2.3633,-2.3926,-2.4238,-2.4832,-2.5194,-2.5303,-2.5596,-2.5693,-2.5693,-2.5693,-2.5693,-2.5693,-2.5693,-2.5693,-2.5693,-2.5693,-2.5693,-2.5693,-2.5693,-2.5693,-2.5693,-2.5693,-2.5693,-2.5693,-2.5693,-2.5693,-2.5917,-2.7531,-2.8075,-2.8075,-2.8075,-2.7009,-2.57,-2.57,-2.7917,-3.0654,-3.1523,-3.2406,-3.309,-3.309,-3.3107,-3.3187,-3.3593,-3.3519,-3.3488,-3.3827,-3.4319,-3.4724,-3.4724,-3.471,-3.4743,-3.4944,-3.575,-3.6414,-3.6414,-3.6414,-3.5811,-3.4077,-3.3756,-3.3619,-3.3489,-3.3264,-3.3208,-3.3451,-3.325,-3.3124,-3.3124,-3.3124,-3.3124,-3.3124,-3.3124,-3.3124,-3.3124,-3.3124,-3.3124,-3.3124,-3.3124,-3.3124,-3.3124,-3.3124,-3.3124,-1.1189,-1.1443,-1.1906,-1.1926,-1.2657,-1.3715,-1.4877,-1.5895,-1.6602,-1.6532,-1.796,-1.892,-1.8017,-1.9336,-2.084,-2.165,-2.1846,-2.2168,-2.2916,-2.3062,-2.3091,-2.3091,-2.3091,-2.3091,-2.3091,-2.3091,-2.3091,-2.3091,-2.3091,-2.3286,-2.3769,-2.3809,-2.4209,-2.5086,-2.5135,-2.5303,-2.5684,-2.5693,-2.5693,-2.5693,-2.5693,-2.5693,-2.5693,-2.5693,-2.5693,-2.5693,-2.5693,-2.5693,-2.5693,-2.5693,-2.5693,-2.5693,-2.5693,-2.5693,-2.5693,-2.5713,-2.5723,-2.5723,-2.5684,-2.5713,-2.5693,-2.5693,-2.5768,-2.5824,-2.5767,-2.5865,-2.6361,-2.8644,-3.1083,-3.3064,-3.3064,-3.3121,-3.3431,-3.4482,-3.4319,-3.4167,-3.5084,-3.4999,-3.4718,-3.4718,-3.4788,-3.4931,-3.5458,-3.6019,-3.6405,-3.6405,-3.6405,-3.6125,-3.5388,-3.4999,-3.461,-3.4267,-3.3586,-3.347,-3.413,-3.3557,-3.3106,-3.3124,-3.3124,-3.3124,-3.3124,-3.3124,-3.3124,-3.3124,-3.3124,-3.3124,-3.3124,-3.3124,-3.3124,-3.3124,-3.3124,-3.3124,-1.163,-1.1792,-1.1953,-1.2138,-1.3475,-1.4596,-1.4183,-1.5403,-1.6384,-1.5685,-1.6723,-1.7669,-1.7406,-1.8853,-2.0156,-2.0381,-2.124,-2.1963,-2.2178,-2.2701,-2.3091,-2.3091,-2.3091,-2.3091,-2.3091,-2.3091,-2.3091,-2.3091,-2.3091,-2.3286,-2.3769,-2.4082,-2.4502,-2.5096,-2.5391,-2.5625,-2.5693,-2.5693,-2.5693,-2.5693,-2.5693,-2.5693,-2.5693,-2.5693,-2.5693,-2.5693,-2.5693,-2.5693,-2.5693,-2.5693,-2.5693,-2.5693,-2.5693,-2.5693,-2.5732,-2.6103,-2.6221,-2.6141,-2.5796,-2.5687,-2.5693,-2.5693,-2.6594,-2.7506,-2.6882,-2.769,-2.8627,-2.7606,-2.995,-3.2797,-3.2727,-3.3514,-3.4349,-3.464,-3.4607,-3.4562,-3.4783,-3.5077,-3.5295,-3.5295,-3.5667,-3.5994,-3.6132,-3.6317,-3.6405,-3.6405,-3.6405,-3.6179,-3.5525,-3.5366,-3.5119,-3.4623,-3.439,-3.4209,-3.4004,-3.3784,-3.352,-3.3149,-3.3124,-3.3124,-3.3124,-3.3124,-3.3124,-3.3124,-3.3124,-3.3124,-3.3124,-3.3124,-3.3124,-3.3124,-3.3124,-3.3124,-1.1663,-1.1864,-1.2098,-1.2265,-1.3411,-1.4386,-1.3818,-1.519,-1.6315,-1.5411,-1.6251,-1.7072,-1.6657,-1.8081,-1.9354,-1.9582,-2.0698,-2.1554,-2.14,-2.2207,-2.2703,-2.2331,-2.2775,-2.3091,-2.3091,-2.3091,-2.3091,-2.3091,-2.3276,-2.3613,-2.4043,-2.4473,-2.4902,-2.5352,-2.5605,-2.5693,-2.5693,-2.5693,-2.5693,-2.5693,-2.5693,-2.5693,-2.5693,-2.5693,-2.5693,-2.5693,-2.5693,-2.5693,-2.5693,-2.5693,-2.5693,-2.5703,-2.5947,-2.6025,-2.6074,-2.6504,-2.659,-2.6489,-2.633,-2.603,-2.5844,-2.6576,-2.7222,-2.7673,-2.7271,-2.7854,-2.8368,-2.7131,-2.9272,-3.1734,-3.1092,-3.2394,-3.3722,-3.3371,-3.377,-3.4076,-3.3719,-3.4836,-3.5893,-3.5893,-3.6157,-3.6405,-3.6405,-3.6405,-3.6405,-3.6405,-3.6405,-3.6304,-3.5943,-3.5893,-3.578,-3.5479,-3.5228,-3.4919,-3.465,-3.4173,-3.3771,-3.3458,-3.3206,-3.3124,-3.3124,-3.3124,-3.3124,-3.3124,-3.3124,-3.3124,-3.3124,-3.3124,-3.3124,-3.3124,-3.3124,-3.3124,-1.1496,-1.185,-1.2305,-1.2305,-1.3025,-1.3665,-1.3512,-1.4869,-1.5878,-1.4882,-1.5804,-1.6509,-1.5585,-1.7059,-1.8568,-1.8893,-2.0171,-2.106,-2.0879,-2.1802,-2.226,-2.1612,-2.2448,-2.3091,-2.3091,-2.3091,-2.3091,-2.3091,-2.3594,-2.4033,-2.4394,-2.4834,-2.5273,-2.5674,-2.5693,-2.5693,-2.5693,-2.5693,-2.5693,-2.5693,-2.5693,-2.5693,-2.5693,-2.5693,-2.5693,-2.5693,-2.5693,-2.5693,-2.5693,-2.5693,-2.5723,-2.581,-2.624,-2.6426,-2.6523,-2.6943,-2.6907,-2.6766,-2.7036,-2.6702,-2.6288,-2.781,-2.781,-2.7241,-2.7454,-2.7351,-2.7187,-2.7383,-2.9182,-3.0785,-2.9597,-3.1113,-3.2676,-3.1848,-3.2489,-3.3151,-3.2442,-3.4301,-3.6108,-3.6108,-3.6263,-3.6405,-3.6405,-3.6405,-3.6405,-3.6405,-3.6405,-3.6405,-3.6405,-3.6405,-3.6405,-3.6405,-3.5931,-3.5583,-3.5508,-3.46,-3.3972,-3.3909,-3.3382,-3.3124,-3.3124,-3.3124,-3.3124,-3.3124,-3.3124,-3.3124,-3.3124,-3.3124,-3.3124,-3.3124,-3.3124,-3.3124,-1.1409,-1.185,-1.2305,-1.2305,-1.3025,-1.3425,-1.2457,-1.306,-1.3538,-1.2303,-1.3444,-1.4371,-1.3567,-1.5981,-1.8011,-1.7761,-1.9383,-2.0947,-2.1607,-2.2159,-2.258,-2.277,-2.296,-2.3091,-2.3091,-2.3091,-2.3091,-2.3091,-2.3822,-2.4346,-2.4414,-2.4834,-2.5273,-2.5674,-2.5693,-2.5693,-2.5693,-2.5693,-2.5693,-2.5693,-2.5693,-2.5693,-2.5693,-2.5693,-2.5693,-2.5693,-2.5693,-2.5693,-2.5693,-2.5693,-2.5947,-2.6279,-2.6357,-2.6602,-2.6963,-2.7393,-2.7415,-2.7321,-2.7887,-2.7994,-2.7887,-2.8214,-2.8224,-2.8093,-2.8113,-2.8134,-2.8331,-2.9434,-3.0834,-3.1984,-3.1784,-3.2891,-3.3772,-3.2497,-3.2358,-3.2481,-3.232,-3.3613,-3.4727,-3.4727,-3.5619,-3.6405,-3.6405,-3.6405,-3.6405,-3.6405,-3.6405,-3.6405,-3.6405,-3.6405,-3.6405,-3.6405,-3.6329,-3.6031,-3.5533,-3.4906,-3.4387,-3.3935,-3.3382,-3.3124,-3.3124,-3.3124,-3.3124,-3.3124,-3.3124,-3.3124,-3.3124,-3.3124,-3.3124,-3.3124,-3.3124,-3.3124,-1.1202,-1.1516,-1.1844,-1.1844,-1.2163,-1.2361,-1.1775,-1.2393,-1.2934,-1.2303,-1.2867,-1.3369,-1.2975,-1.44,-1.5809,-1.6262,-1.7999,-1.9331,-1.9376,-2.0995,-2.1901,-2.11,-2.2236,-2.3091,-2.3091,-2.3091,-2.3091,-2.3091,-2.389,-2.4414,-2.4414,-2.5049,-2.5518,-2.5684,-2.5693,-2.5693,-2.5693,-2.5693,-2.5693,-2.5693,-2.5693,-2.5693,-2.5693,-2.5693,-2.5693,-2.5693,-2.5693,-2.5693,-2.5693,-2.5693,-2.5996,-2.6406,-2.6631,-2.6973,-2.7402,-2.7832,-2.7978,-2.7935,-2.8213,-2.8291,-2.8295,-2.8298,-2.8308,-2.8278,-2.8278,-2.828,-2.8451,-2.9059,-3.0214,-3.1122,-3.0421,-3.1235,-3.1938,-3.0514,-3.0214,-3.0618,-3.1977,-3.2292,-3.2705,-3.4129,-3.4933,-3.5571,-3.6263,-3.6405,-3.6405,-3.6405,-3.6405,-3.6405,-3.6405,-3.6405,-3.6405,-3.6405,-3.6405,-3.6304,-3.5994,-3.5203,-3.4613,-3.4349,-3.3533,-3.3124,-3.3124,-3.3124,-3.3124,-3.3124,-3.3124,-3.3124,-3.3124,-3.3124,-3.3124,-3.3124,-3.3124,-3.3124,-1.0995,-1.1209,-1.1389,-1.1389,-1.1389,-1.1362,-1.1269,-1.184,-1.2369,-1.2229,-1.2485,-1.2575,-1.2257,-1.3009,-1.392,-1.4753,-1.6383,-1.7435,-1.7218,-1.9661,-2.0978,-1.9659,-2.1614,-2.3091,-2.3091,-2.3091,-2.3091,-2.3091,-2.389,-2.4492,-2.4687,-2.5313,-2.5693,-2.5693,-2.5693,-2.5693,-2.5693,-2.5693,-2.5693,-2.5693,-2.5693,-2.5693,-2.5693,-2.5693,-2.5693,-2.5693,-2.5693,-2.5693,-2.5693,-2.5693,-2.6045,-2.6553,-2.6885,-2.7334,-2.7894,-2.8174,-2.8291,-2.8291,-2.8291,-2.8291,-2.8291,-2.8291,-2.8291,-2.8291,-2.8291,-2.8291,-2.8344,-2.8654,-2.9513,-3.0068,-2.9006,-2.9503,-2.9964,-2.8601,-2.8291,-2.891,-3.0979,-3.0824,-3.0927,-3.3116,-3.3773,-3.4374,-3.5763,-3.5966,-3.6061,-3.6358,-3.6405,-3.6405,-3.6405,-3.6405,-3.6405,-3.6405,-3.6405,-3.6405,-3.6405,-3.5353,-3.468,-3.468,-3.3684,-3.3124,-3.3124,-3.3124,-3.3124,-3.3124,-3.3124,-3.3124,-3.3124,-3.3124,-3.3124,-3.3124,-3.3124,-3.3124,-1.0995,-1.1209,-1.1389,-1.1389,-1.1389,-1.1255,-1.0787,-1.0737,-1.0676,-1.0102,-1.1059,-1.1589,-1.0244,-1.2262,-1.3932,-1.3386,-1.4627,-1.608,-1.7304,-1.8912,-2.0168,-2.0669,-2.2148,-2.3091,-2.3091,-2.3091,-2.3091,-2.3091,-2.389,-2.4766,-2.5528,-2.5645,-2.5693,-2.5693,-2.5693,-2.5693,-2.5693,-2.5693,-2.5693,-2.5693,-2.5693,-2.5693,-2.5693,-2.5693,-2.5693,-2.5693,-2.5693,-2.5693,-2.5693,-2.5693,-2.6171,-2.6963,-2.7002,-2.7519,-2.8242,-2.8281,-2.8291,-2.8291,-2.8291,-2.8291,-2.8291,-2.8291,-2.8291,-2.8291,-2.8291,-2.8291,-2.8548,-2.9765,-3.0214,-3.0266,-3.0172,-3.0214,-2.9964,-2.8601,-2.8291,-2.8398,-2.8591,-2.9513,-3.0369,-3.0628,-3.1684,-3.2944,-3.4325,-3.4581,-3.4981,-3.6216,-3.6405,-3.6405,-3.6405,-3.6405,-3.6405,-3.6405,-3.6405,-3.6405,-3.6405,-3.5353,-3.468,-3.468,-3.3684,-3.3124,-3.3124,-3.3124,-3.3124,-3.3124,-3.3124,-3.3124,-3.3124,-3.3124,-3.3124,-3.3124,-3.3124,-3.3124,-1.0767,-1.0847,-1.0909,-1.0909,-1.0768,-1.055,-1.0347,-1.0154,-0.9997,-0.9762,-1.0157,-1.0408,-0.9795,-1.0798,-1.1905,-1.2348,-1.3914,-1.5188,-1.5457,-1.8483,-2.0346,-1.9608,-2.164,-2.3091,-2.3091,-2.3091,-2.3305,-2.3822,-2.4173,-2.4805,-2.5645,-2.5693,-2.5693,-2.5693,-2.5693,-2.5693,-2.5693,-2.5693,-2.5693,-2.5693,-2.5693,-2.5693,-2.5693,-2.5693,-2.5693,-2.5693,-2.5693,-2.5693,-2.5693,-2.5693,-2.6191,-2.7012,-2.7012,-2.7539,-2.8291,-2.8291,-2.8291,-2.8291,-2.8291,-2.8291,-2.8291,-2.8291,-2.8291,-2.8291,-2.8291,-2.8291,-2.8388,-2.8953,-2.9102,-2.9102,-2.9102,-2.9102,-2.8953,-2.8451,-2.8291,-2.8291,-2.8291,-2.8698,-2.9303,-3.0162,-3.0721,-3.1785,-3.403,-3.3723,-3.3909,-3.6061,-3.5715,-3.5463,-3.631,-3.6405,-3.6279,-3.5906,-3.6157,-3.6267,-3.5893,-3.5165,-3.4575,-3.4248,-3.3508,-3.3124,-3.3124,-3.3124,-3.3124,-3.3124,-3.3124,-3.3124,-3.3124,-3.3124,-3.3124,-3.3124,-3.3124,-3.3124,-1.0566,-1.0526,-1.0479,-1.0573,-1.0341,-1.0094,-1.0007,-0.976,-0.9526,-0.9446,-0.9588,-0.9666,-0.9475,-0.9901,-1.0518,-1.1303,-1.2804,-1.3952,-1.4208,-1.7383,-1.9479,-1.9127,-2.0833,-2.2315,-2.3047,-2.3091,-2.3452,-2.4355,-2.4414,-2.4805,-2.5645,-2.5693,-2.5693,-2.5693,-2.5693,-2.5693,-2.5693,-2.5693,-2.5693,-2.5693,-2.5693,-2.5693,-2.5693,-2.5693,-2.5693,-2.5693,-2.5693,-2.5693,-2.5693,-2.5693,-2.6122,-2.6846,-2.6963,-2.7461,-2.8125,-2.8252,-2.8291,-2.8291,-2.8291,-2.8291,-2.8291,-2.8291,-2.8291,-2.8291,-2.8291,-2.8291,-2.8291,-2.8291,-2.8291,-2.8291,-2.8291,-2.8291,-2.8291,-2.8291,-2.8291,-2.8291,-2.8291,-2.8291,-2.8601,-2.9513,-2.9713,-3.0577,-3.3315,-3.283,-3.3012,-3.5717,-3.5203,-3.4855,-3.5775,-3.5881,-3.573,-3.5295,-3.5642,-3.573,-3.5295,-3.4756,-3.4311,-3.3922,-3.3382,-3.3124,-3.3124,-3.3124,-3.3124,-3.3124,-3.3124,-3.3124,-3.3124,-3.3124,-3.3124,-3.3124,-3.3124,-3.3124,-1.0512,-1.0347,-1.0187,-1.0519,-1.0341,-1.004,-0.9753,-0.9459,-0.9138,-0.8878,-0.9349,-0.9595,-0.8943,-0.9853,-1.0567,-1.0187,-1.0855,-1.2116,-1.4134,-1.5313,-1.7012,-1.9853,-1.9805,-2.0494,-2.2862,-2.3091,-2.3452,-2.4355,-2.4414,-2.4805,-2.5645,-2.5693,-2.5693,-2.5693,-2.5693,-2.5693,-2.5693,-2.5693,-2.5693,-2.5693,-2.5693,-2.5693,-2.5693,-2.5693,-2.5693,-2.5693,-2.5693,-2.5693,-2.5693,-2.5693,-2.5996,-2.6435,-2.6846,-2.7285,-2.7777,-2.8135,-2.8291,-2.8291,-2.8291,-2.8291,-2.8291,-2.8291,-2.8291,-2.8291,-2.8291,-2.8291,-2.8291,-2.8291,-2.8291,-2.8291,-2.8291,-2.8291,-2.8291,-2.8291,-2.8291,-2.8291,-2.8291,-2.8291,-2.8291,-2.8291,-2.8291,-2.9154,-3.1876,-3.1878,-3.2446,-3.5112,-3.5044,-3.4693,-3.4738,-3.4738,-3.4738,-3.4726,-3.4693,-3.4738,-3.4726,-3.4223,-3.3909,-3.3897,-3.3382,-3.3124,-3.3124,-3.3124,-3.3124,-3.3124,-3.3124,-3.3124,-3.3124,-3.3124,-3.3124,-3.3124,-3.3124,-3.3124,-0.9963,-0.9923,-0.984,-0.997,-0.9733,-0.9464,-0.9371,-0.9124,-0.8891,-0.8824,-0.8962,-0.9061,-0.8831,-0.9473,-0.9967,-0.9836,-1.1298,-1.256,-1.2928,-1.5208,-1.7103,-1.78,-1.9575,-2.0711,-2.0629,-2.14,-2.2241,-2.3112,-2.3177,-2.3928,-2.5596,-2.5693,-2.5693,-2.5693,-2.5693,-2.5693,-2.5693,-2.5693,-2.5693,-2.5693,-2.5693,-2.5693,-2.5693,-2.5693,-2.5693,-2.5693,-2.5693,-2.5693,-2.5693,-2.5693,-2.5996,-2.6396,-2.6533,-2.6976,-2.755,-2.8117,-2.8285,-2.8315,-2.8329,-2.8291,-2.8291,-2.8291,-2.8291,-2.8291,-2.8291,-2.8291,-2.8291,-2.8291,-2.8291,-2.8291,-2.8291,-2.8291,-2.8291,-2.8291,-2.8291,-2.8291,-2.8291,-2.8291,-2.8203,-2.792,-2.8565,-2.9301,-2.9928,-3.0575,-3.1581,-3.344,-3.3482,-3.3662,-3.4577,-3.468,-3.4575,-3.4198,-3.4161,-3.4161,-3.4161,-3.3997,-3.3734,-3.337,-3.3169,-3.3124,-3.3124,-3.3124,-3.3124,-3.3124,-3.3124,-3.3124,-3.3124,-3.3124,-3.3124,-3.3124,-3.3124,-3.3124,-0.9626,-0.9599,-0.9546,-0.9653,-0.9459,-0.9211,-0.9211,-0.8991,-0.8804,-0.8804,-0.8804,-0.8804,-0.8804,-0.9292,-0.9719,-0.9826,-1.1241,-1.2498,-1.3022,-1.4798,-1.6174,-1.6414,-1.9289,-2.0666,-1.9001,-2.0305,-2.1681,-2.2541,-2.2604,-2.3501,-2.5586,-2.5693,-2.5693,-2.5693,-2.5693,-2.5693,-2.5693,-2.5693,-2.5693,-2.5693,-2.5693,-2.5693,-2.5693,-2.5693,-2.5693,-2.5693,-2.5693,-2.5693,0.0,-2.5693,-2.5849,-2.6162,-2.6328,-2.6682,-2.7168,-2.7611,-2.7821,-2.7799,-2.7796,-2.774,-2.7668,-2.7803,-2.7812,-2.7812,-2.7812,-2.8037,-2.8291,-2.8291,-2.8291,-2.8291,-2.8291,-2.8291,-2.8291,-2.8291,-2.8174,-2.8057,-2.8057,-2.793,-2.7734,-2.7471,-2.8391,-2.9178,-2.9045,-3.0189,-3.1493,-3.2472,-3.2719,-3.3154,-3.4009,-3.411,-3.3972,-3.3621,-3.3583,-3.3583,-3.3583,-3.3583,-3.3445,-3.3106,-3.3124,-3.3124,-3.3124,-3.3124,-3.3124,-3.3124,-3.3124,-3.3124,-3.3124,-3.3124,-3.3124,-3.3124,-3.3124,-3.3124,0.0,-0.9419,-0.9244,-0.9552,-0.9412,-0.9178,-0.9178,-0.8978,0.0,-0.8804,-0.8804,-0.8811,-0.8831,-0.9299,-0.9786,-1.01,-1.0882,-1.2102,-1.403,-1.4235,-1.4569,-1.5644,-1.8886,-2.0124,-1.7777,-1.967,-2.1399,-2.2259,-2.2321,-2.3253,-2.5441,-2.5586,-2.5586,-2.5693,-2.5693,-2.5693,-2.5693,-2.5693,-2.5693,-2.5693,-2.5693,-2.5693,-2.5693,-2.5693,-2.5693,-2.5693,-2.5693,-2.5693,-2.5693,-2.5693,-2.5693,-2.5732,-2.6182,-2.6407,-2.6585,-2.6816,-2.6912,-2.6973,-2.6951,-2.682,-2.6679,-2.6941,-2.7012,-2.7012,-2.7012,-2.7568,-2.8203,-2.8203,-2.8203,-2.8203,-2.8203,-2.8203,-2.8203,-2.8203,-2.79,-2.7669,-2.7669,-2.7305,-2.7002,-2.6973,-2.7925,-2.8781,-2.8749,-3.0476,-3.1823,-3.179,-3.2526,-3.3068,-3.2982,-3.3025,-3.3124,-3.3124,-3.3124,-3.3124,-3.3124,-3.3124,-3.3124,-3.3124,-3.3124,-3.3124,-3.3124,-3.3124,-3.3124,-3.3124,-3.3124,-3.3124,-3.3124,-3.3124,-3.3124,-3.3124,-3.3124,-3.3124,-0.8978,0.0,-0.8898,-0.8998,-0.8958,-0.8884,0.0,-0.8858,-0.8804,-0.8804,-0.8804,-0.8878,-0.9071,-0.9439,-0.9883,-1.0405,-1.1223,-1.2098,-1.3024,-1.4116,-1.5023,-1.5745,-1.7444,-1.7948,-1.6386,-1.763,-1.8832,-1.9563,-1.9618,-2.0949,-2.4002,-2.4146,-2.4658,-2.5684,-2.5693,-2.5693,-2.5693,-2.5693,-2.5693,-2.5693,-2.5693,-2.5693,-2.5693,-2.5693,-2.5693,-2.5693,-2.5693,-2.5693,-2.5693,-2.5693,-2.5693,-2.5703,-2.5801,-2.5898,-2.5947,-2.5981,-2.6274,-2.6712,-2.6703,-2.681,-2.6941,-2.6961,-2.7012,-2.7012,-2.7012,-2.7158,-2.7314,-2.7314,-2.7314,-2.7314,-2.7314,-2.7314,-2.7314,-2.7314,-2.7236,-2.7168,-2.7168,-2.709,-2.6914,-2.6602,-2.7528,-2.7935,-2.6702,-2.919,-3.0772,-2.8948,-3.1184,-3.2754,-3.1777,-3.2513,-3.3124,-3.3124,-3.3124,-3.3124,-3.3124,-3.3124,-3.3124,-3.3124,-3.3124,-3.3124,-3.3124,-3.3124,-3.3124,-3.3124,-3.3124,-3.3124,-3.3124,-3.3124,-3.3124,-3.3124,-3.3124,-3.3124,-0.8804,-0.8804,-0.8804,-0.8804,-0.8804,-0.8804,-0.8804,-0.8804,-0.8844,-0.8951,-0.8978,-0.9071,-0.9357,-0.9793,-1.0265,-1.072,-1.1496,-1.2418,-1.346,-1.4526,-1.5331,-1.5724,-1.6897,-1.7178,-1.592,-1.6943,-1.8,-1.8645,-1.8697,-1.9917,-2.2624,-2.3384,-2.4048,-2.4766,-2.5382,-2.5693,-2.5693,-2.5693,-2.5693,-2.5693,-2.5693,-2.5693,-2.5693,-2.5693,-2.5693,-2.5693,-2.5693,-2.5693,-2.5693,-2.5693,-2.5693,-2.5693,-2.5693,-2.5693,-2.5713,-2.5682,-2.5897,-2.6192,-2.6169,-2.6297,-2.6376,-2.6376,-2.6376,-2.6376,-2.6376,-2.6376,-2.6514,-2.6904,-2.7012,-2.7012,-2.7012,-2.7012,-2.7012,-2.7012,-2.6865,-2.6728,-2.6728,-2.6572,-2.6357,-2.6133,-2.7071,-2.7452,-2.5966,-2.8297,-2.9715,-2.7861,-2.9784,-3.1146,-3.0451,-3.0956,-3.1601,-3.2152,-3.2239,-3.2469,-3.3068,-3.3124,-3.3124,-3.3124,-3.3124,-3.3124,-3.3124,-3.3124,-3.3124,-3.3124,-3.3124,-3.3124,-3.3124,-3.3124,-3.3124,-3.3124,-3.3124,-3.3124,-0.8804,-0.8804,-0.8804,-0.8804,-0.8804,-0.8804,-0.8804,-0.8844,-0.8918,-0.9164,-0.9251,-0.9384,-0.9753,-1.0258,-1.0727,-1.1122,-1.1971,-1.3046,-1.4396,-1.505,-1.5504,-1.5792,-1.6763,-1.699,-1.592,-1.6763,-1.7676,-1.8358,-1.841,-1.9273,-2.1255,-2.2466,-2.3285,-2.3692,-2.4815,-2.5479,-2.5693,-2.5693,-2.5693,-2.5693,-2.5693,-2.5693,-2.5693,-2.5693,-2.5693,-2.5693,-2.5693,-2.5693,-2.5693,-2.5693,-2.5693,-2.5693,-2.5693,-2.5693,-2.5693,-2.5693,-2.5693,-2.5693,-2.5693,-2.5693,-2.5693,-2.5693,-2.5693,-2.5693,-2.5693,-2.5693,-2.584,-2.6611,-2.6816,-2.6816,-2.6816,-2.6816,-2.6816,-2.6816,-2.6553,-2.6289,-2.6289,-2.5996,-2.5693,-2.5693,-2.6572,-2.6993,-2.5878,-2.7615,-2.8727,-2.7494,-2.8495,-2.9315,-2.9131,-2.9269,-2.9863,-3.1078,-3.1223,-3.1733,-3.2982,-3.3124,-3.3124,-3.3124,-3.3124,-3.3124,-3.3124,-3.3124,-3.3124,-3.3124,-3.3124,-3.3124,-3.3124,-3.3124,-3.2982,-3.2797,-3.2797,-3.2711,-0.8804,-0.8804,-0.8804,-0.8804,-0.8804,-0.8804,-0.8804,-0.8971,-0.9158,-0.9204,-0.9439,-0.978,-1.0358,-1.0533,-1.0928,-1.1931,-1.3066,-1.4068,-1.4841,-1.5184,-1.5504,-1.5792,-1.5967,-1.6015,-1.5825,-1.5967,-1.6354,-1.6953,-1.7,-1.7851,-1.9848,-2.0135,-2.1304,-2.3633,-2.389,-2.4559,-2.5684,-2.5693,-2.5693,-2.5693,-2.5693,-2.5693,-2.5693,-2.5693,-2.5693,-2.5693,-2.5693,-2.5693,-2.5693,-2.5693,-2.5693,-2.5693,-2.5693,-2.5693,-2.5693,-2.5693,-2.5693,-2.5693,-2.5693,-2.5693,-2.5693,-2.5693,-2.5693,-2.5693,-2.5693,-2.5693,-2.5713,-2.5849,-2.5888,-2.5888,-2.5888,-2.5888,-2.5888,-2.5888,-2.583,-2.5791,-2.5791,-2.5732,-2.5693,-2.5693,-2.5878,-2.5917,-2.5732,-2.6897,-2.7447,-2.6197,-2.7945,-2.9039,-2.8002,-2.8773,-2.9863,-3.1078,-3.1223,-3.1733,-3.2982,-3.3124,-3.3124,-3.3124,-3.3124,-3.3124,-3.3124,-3.3124,-3.3124,-3.3124,-3.3124,-3.3124,-3.3124,-3.3124,-3.2568,-3.15,-3.15,-3.0956,-0.8804,-0.8804,-0.8844,-0.8978,-0.9011,-0.9011,-0.9011,-0.9237,-0.9573,-0.9886,-1.009,-1.0365,-1.0922,-1.1289,-1.1891,-1.3073,-1.3861,-1.4529,-1.5117,-1.5444,-1.5678,-1.5764,-1.5784,-1.5784,-1.5784,-1.5784,-1.6005,-1.644,-1.6613,-1.7191,-1.8238,-1.9125,-2.0187,-2.1456,-2.2926,-2.3998,-2.4609,-2.5323,-2.5693,-2.5693,-2.5693,-2.5693,-2.5693,-2.5693,-2.5693,-2.5693,-2.5693,-2.5693,-2.5693,-2.5693,-2.5693,-2.5693,-2.5693,-2.5693,-2.5693,-2.5693,-2.5693,-2.5693,-2.5693,-2.5693,-2.5693,-2.5693,-2.5693,-2.5693,-2.5693,-2.5693,-2.5693,-2.5693,-2.5693,-2.5693,-2.5693,-2.5693,-2.5693,-2.5693,-2.5693,-2.5693,-2.5693,-2.5693,-2.5693,-2.5693,-2.5693,-2.5693,-2.5693,-2.6207,-2.639,-2.5781,-2.6658,-2.721,-2.6658,-2.7067,-2.7898,-2.9131,-2.9269,-2.9772,-3.1012,-3.1101,-3.1645,-3.3025,-3.3124,-3.3124,-3.3124,-3.2426,-3.2052,-3.2052,-3.1412,-3.1101,-3.1101,-3.1101,-3.0822,-3.0226,-3.0226,-2.9954,-0.8804,-0.8858,-0.8938,-0.9158,-0.9211,-0.9231,-0.9297,-0.9626,-1.0043,-1.0499,-1.07,-1.0975,-1.1523,-1.2171,-1.2939,-1.3928,-1.4389,-1.4803,-1.5324,-1.5645,-1.5784,-1.5784,-1.5784,-1.5784,-1.5784,-1.5784,-1.5952,-1.6253,-1.6547,-1.6834,-1.7186,-1.844,-1.9272,-1.9576,-2.1659,-2.3026,-2.3683,-2.4716,-2.5382,-2.5693,-2.5693,-2.5693,-2.5693,-2.5693,-2.5693,-2.5693,-2.5693,-2.5693,-2.5693,-2.5693,-2.5693,-2.5693,-2.5693,-2.5693,-2.5693,-2.5693,-2.5693,-2.5693,-2.5693,-2.5693,-2.5693,-2.5693,-2.5693,-2.5693,-2.5693,-2.5693,-2.5693,-2.5693,-2.5693,-2.5693,-2.5693,-2.5693,-2.5693,-2.5693,-2.5693,-2.5693,-2.5693,-2.5693,-2.5693,-2.5693,-2.5693,-2.5693,-2.5693,-2.5693,-2.5693,-2.5693,-2.5693,-2.5693,-2.5693,-2.5693,-2.6207,-2.7447,-2.7589,-2.8096,-2.9315,-2.9407,-3.0226,-3.2108,-3.2525,-3.2655,-3.2655,-3.1456,-3.0765,-3.0765,-2.9863,-2.9407,-2.9407,-2.9407,-2.9269,-2.8993,-2.8993,-2.8808,-0.8804,-0.8978,-0.9184,-0.9211,-0.9211,-0.9284,-0.9586,-1.0117,-1.0539,-1.0586,-1.0989,-1.1543,-1.2131,-1.2914,-1.3626,-1.4028,-1.4606,-1.5082,-1.5351,-1.5645,-1.5784,-1.5784,-1.5784,-1.5784,-1.5784,-1.5784,-1.5952,-1.6253,-1.6547,-1.6834,-1.7186,-1.7526,-1.8297,-1.9576,-1.9782,-2.11,-2.3692,-2.3791,-2.4452,-2.5693,-2.5693,-2.5693,-2.5693,-2.5693,-2.5693,-2.5693,-2.5693,-2.5693,-2.5693,-2.5693,-2.5693,-2.5693,-2.5693,-2.5693,-2.5693,-2.5693,-2.5693,-2.5693,-2.5693,-2.5693,-2.5693,-2.5693,-2.5693,-2.5693,-2.5693,-2.5693,-2.5693,-2.5693,-2.5693,-2.5693,-2.5693,-2.5693,-2.5693,-2.5693,-2.5693,-2.5693,-2.5693,-2.5693,-2.5693,-2.5693,-2.5693,-2.5693,-2.5693,-2.5693,-2.5693,-2.5693,-2.5693,-2.5693,-2.5693,-2.5693,-2.6207,-2.7447,-2.7589,-2.8096,-2.9315,-2.9407,-2.9498,-2.9681,-3.0721,-3.1356,-3.1356,-3.0169,-2.9544,-2.9544,-2.9453,-2.9407,-2.9407,-2.9407,-2.8819,-2.7731,-2.7731,-2.7078,-0.8804,-0.8991,-0.9297,-0.9664,-0.9927,-1.0094,-1.0231,-1.0573,-1.1015,-1.153,-1.1817,-1.2265,-1.3233,-1.3687,-1.4135,-1.4796,-1.509,-1.5337,-1.5625,-1.5758,-1.5784,-1.5784,-1.5784,-1.5784,-1.5784,-1.5784,-1.5831,-1.5985,-1.6273,-1.656,-1.6854,-1.7206,-1.7649,-1.8342,-1.9169,-2.0538,-2.2466,-2.3276,-2.4353,-2.5693,-2.5693,-2.5693,-2.5693,-2.5693,-2.5693,-2.5693,-2.5693,-2.5693,-2.5693,-2.5693,-2.5693,-2.5693,-2.5693,-2.5693,-2.5693,-2.5693,-2.5693,-2.5693,-2.5693,-2.5693,-2.5693,-2.5693,-2.5693,-2.5693,-2.5693,-2.5693,-2.5693,-2.5693,-2.5693,-2.5693,-2.5693,-2.5693,-2.5693,-2.5693,-2.5693,-2.5693,-2.5693,-2.5693,-2.5693,-2.5693,-2.5693,-2.5693,-2.5693,-2.5693,-2.5693,-2.5693,-2.5693,-2.5693,-2.5693,-2.5693,-2.5868,-2.639,-2.6438,-2.661,-2.7067,-2.7814,-2.8272,-2.8272,-2.9407,-3.009,-3.009,-2.8912,-2.8272,-2.8272,-2.7484,-2.7115,-2.7115,-2.7115,-2.6839,-2.6438,-2.6438,-2.6159,-0.8804,-0.9085,-0.9444,-0.988,-1.0341,-1.0754,-1.0847,-1.1095,-1.147,-1.2158,-1.2605,-1.3113,-1.3941,-1.4242,-1.4589,-1.5284,-1.5398,-1.5498,-1.5744,-1.5784,-1.5784,-1.5784,-1.5784,-1.5784,-1.5784,-1.5784,-1.5784,-1.5784,-1.6106,-1.64,-1.6693,-1.7038,-1.7333,-1.7569,-1.8506,-1.962,-2.1041,-2.1963,-2.3285,-2.5069,-2.5069,-2.5274,-2.5693,-2.5693,-2.5693,-2.5693,-2.5693,-2.5693,-2.5693,-2.5693,-2.5693,-2.5693,-2.5693,-2.5693,-2.5693,-2.5693,-2.5693,-2.5693,-2.5693,-2.5693,-2.5693,-2.5693,-2.5693,-2.5693,-2.5693,-2.5693,-2.5693,-2.5693,-2.5693,-2.5693,-2.5693,-2.5693,-2.5693,-2.5693,-2.5693,-2.5693,-2.5693,-2.5693,-2.5693,-2.5693,-2.5693,-2.5693,-2.5693,-2.5693,-2.5693,-2.5693,-2.5693,-2.5693,-2.5693,-2.5693,-2.5693,-2.5693,-2.5693,-2.5693,-2.5693,-2.6476,-2.6982,-2.6982,-2.7767,-2.8402,-2.8819,-2.7626,-2.6982,-2.6982,-2.6159,-2.5693,-2.5693,-2.5693,-2.5693,-2.5693,-2.5693,-2.5693,-0.8811,-0.9239,-0.9715,-0.9722,-1.0347,-1.1069,-1.1329,-1.1657,-1.1993,-1.2258,-1.3267,-1.4088,-1.4095,-1.462,-1.5109,-1.5351,-1.5398,-1.5504,-1.5744,-1.5784,-1.5784,-1.5784,-1.5784,-1.5784,-1.5784,-1.5784,-1.5784,-1.5784,-1.6106,-1.6393,-1.6687,-1.7032,-1.7333,-1.7569,-1.7582,-1.8251,-1.9576,-1.9576,-2.0998,-2.3692,-2.3692,-2.4402,-2.5693,-2.5693,-2.5693,-2.5693,-2.5693,-2.5693,-2.5693,-2.5693,-2.5693,-2.5693,-2.5693,-2.5693,-2.5693,-2.5693,-2.5693,-2.5693,-2.5693,-2.5693,-2.5693,-2.5693,-2.5693,-2.5693,-2.5693,-2.5693,-2.5693,-2.5693,-2.5693,-2.5693,-2.5693,-2.5693,-2.5693,-2.5693,-2.5693,-2.5693,-2.5693,-2.5693,-2.5693,-2.5693,-2.5693,-2.5693,-2.5693,-2.5693,-2.5693,-2.5693,-2.5693,-2.5693,-2.5693,-2.5693,-2.5693,-2.5693,-2.5693,-2.5693,-2.5693,-2.5693,-2.5693,-2.5693,-2.5693,-2.6294,-2.7542,-2.639,-2.5693,-2.5693,-2.5693,-2.5693,-2.5693,-2.5693,-2.5693,-2.5693,-2.5693,-2.5693,-0.9031,-0.9392,-0.9809,-1.0231,-1.0802,-1.1369,-1.167,-1.1964,-1.2378,-1.3054,-1.3854,-1.4456,-1.4707,-1.501,-1.5364,-1.5651,-1.5698,-1.5732,-1.5771,-1.5784,-1.5784,-1.5784,-1.5784,-1.5784,-1.5784,-1.5784,-1.5784,-1.5784,-1.5912,-1.6092,-1.6386,-1.668,-1.6974,-1.732,-1.7475,-1.8251,-1.9576,-1.9576,-2.0998,-2.3692,-2.3692,-2.4402,-2.5693,-2.5693,-2.5693,-2.5693,-2.5693,-2.5693,-2.5693,-2.5693,-2.5693,-2.5693,-2.5693,-2.5693,-2.5693,-2.5693,-2.5693,-2.5693,-2.5693,-2.5693,-2.5693,-2.5693,-2.5693,-2.5693,-2.5693,-2.5693,-2.5693,-2.5693,-2.5693,-2.5693,-2.5693,-2.5693,-2.5693,-2.5693,-2.5693,-2.5693,-2.5693,-2.5693,-2.5693,-2.5693,-2.5693,-2.5693,-2.5693,-2.5693,-2.5693,-2.5693,-2.5693,-2.5693,-2.5693,-2.5693,-2.5693,-2.5693,-2.5693,-2.5693,-2.5693,-2.5693,-2.5693,-2.5693,-2.5693,-2.5878,-2.6245,-2.5917,-2.5693,-2.5693,-2.5693,-2.5693,-2.5693,-2.5693,-2.5693,-2.5693,-2.5693,-2.5693,-0.8991,-0.9365,-0.9796,-1.0151,-1.0828,-1.1562,-1.2251,-1.2538,-1.2886,-1.362,-1.4289,-1.4783,-1.5084,-1.5371,-1.5625,-1.5751,-1.5784,-1.5784,-1.5784,-1.5784,-1.5784,-1.5784,-1.5784,-1.5784,-1.5784,-1.5784,-1.5784,-1.5784,-1.5784,-1.5959,-1.6259,-1.644,-1.672,-1.7186,-1.7373,-1.7873,-1.8812,-1.8812,-1.9878,-2.2064,-2.2064,-2.3085,-2.4913,-2.5479,-2.5693,-2.5693,-2.5693,-2.5693,-2.5693,-2.5693,-2.5693,-2.5693,-2.5693,-2.5693,-2.5693,-2.5693,-2.5693,-2.5693,-2.5693,-2.5693,-2.5693,-2.5693,-2.5693,-2.5693,-2.5693,-2.5693,-2.5693,-2.5693,-2.5693,-2.5693,-2.5693,-2.5693,-2.5693,-2.5693,-2.5693,-2.5693,-2.5693,-2.5693,-2.5693,-2.5693,-2.5693,-2.5693,-2.5693,-2.5693,-2.5693,-2.5693,-2.5693,-2.5693,-2.5693,-2.5693,-2.5693,-2.5693,-2.5693,-2.5693,-2.5693,-2.5693,-2.5693,-2.5693,-2.5693,-2.5693,-2.5693,-2.5693,-2.5693,-2.5693,-2.5693,-2.5693,-2.5693,-2.5693,-2.5693,-2.5693,-2.5693,-2.5693,-0.8805,-0.9259,-0.9722,-0.9719,-1.0581,-1.1702,-1.2939,-1.3213,-1.3387,-1.4001,-1.462,-1.5102,-1.5344,-1.5631,-1.5784,-1.5784,-1.5784,-1.5784,-1.5784,-1.5784,-1.5784,-1.5784,-1.5784,-1.5784,-1.5784,-1.5784,-1.5784,-1.5784,-1.5784,-1.5945,-1.6219,-1.6259,-1.6569,-1.7105,-1.7172,-1.7326,-1.7542,-1.7569,-1.8251,-1.9576,-1.9576,-2.1049,-2.3741,-2.4971,-2.5586,-2.5693,-2.5693,-2.5693,-2.5693,-2.5693,-2.5693,-2.5693,-2.5693,-2.5693,-2.5693,-2.5693,-2.5693,-2.5693,-2.5693,-2.5693,-2.5693,-2.5693,-2.5693,-2.5693,-2.5693,-2.5693,-2.5693,-2.5693,-2.5693,-2.5693,-2.5693,-2.5693,-2.5693,-2.5693,-2.5693,-2.5693,-2.5693,-2.5693,-2.5693,-2.5693,-2.5693,-2.5693,-2.5693,-2.5693,-2.5693,-2.5693,-2.5693,-2.5693,-2.5693,-2.5693,-2.5693,-2.5693,-2.5693,-2.5693,-2.5693,-2.5693,-2.5693,-2.5693,-2.5693,-2.5693,-2.5693,-2.5693,-2.5693,-2.5693,-2.5693,-2.5693,-2.5693,-2.5693,-2.5693,-2.5693,-2.5693,-2.5693,-0.8883,-0.9412,-0.974,-0.9967,-1.0696,-1.1702,-1.2939,-1.3213,-1.344,-1.4262,-1.4716,-1.5102,-1.5344,-1.5631,-1.5784,-1.5784,-1.5784,-1.5784,-1.5784,-1.5784,-1.5784,-1.5784,-1.5784,-1.5784,-1.5784,-1.5784,-1.5784,-1.5784,-1.5784,-1.5811,-1.5919,-1.6146,-1.6382,-1.6509,-1.6958,-1.7233,-1.7293,-1.7468,-1.8251,-1.9576,-1.9576,-2.1049,-2.3692,-2.3998,-2.4716,-2.5693,-2.5693,-2.5693,-2.5693,-2.5693,-2.5693,-2.5693,-2.5693,-2.5693,-2.5693,-2.5693,-2.5693,-2.5693,-2.5693,-2.5693,-2.5693,-2.5693,-2.5693,-2.5693,-2.5693,-2.5693,-2.5693,-2.5693,-2.5693,-2.5693,-2.5693,-2.5693,-2.5693,-2.5693,-2.5693,-2.5693,-2.5693,-2.5693,-2.5693,-2.5693,-2.5693,-2.5693,-2.5693,-2.5693,-2.5693,-2.5693,-2.5693,-2.5693,-2.5693,-2.5693,-2.5693,-2.5693,-2.5693,-2.5693,-2.5693,-2.5693,-2.5693,-2.5693,-2.5693,-2.5693,-2.5693,-2.5693,-2.5693,-2.5693,-2.5693,-2.5693,-2.5693,-2.5693,-2.5693,-2.5693,-2.5693,-2.5693,-0.8744,-0.9352,-0.9853,-1.0561,-1.1196,-1.1911,-1.2973,-1.332,-1.3667,-1.4549,-1.4901,-1.5142,-1.5524,-1.5732,-1.5784,-1.5784,-1.5784,-1.5784,-1.5784,-1.5784,-1.5784,-1.5784,-1.5784,-1.5784,-1.5784,-1.5784,-1.5784,-1.5784,-1.5784,-1.5784,-1.5784,-1.5979,-1.6126,-1.6266,-1.6616,-1.6918,-1.7199,-1.7353,-1.78,-1.8655,-1.8655,-2.0076,-2.2767,-2.4048,-2.502,-2.5693,-2.5693,-2.5693,-2.5693,-2.5693,-2.5693,-2.5693,-2.5693,-2.5693,-2.5693,-2.5693,-2.5693,-2.5693,-2.5693,-2.5693,-2.5693,-2.5693,-2.5693,-2.5693,-2.5693,-2.5693,-2.5693,-2.5693,-2.5693,-2.5693,-2.5693,-2.5693,-2.5693,-2.5693,-2.5693,-2.5693,-2.5693,-2.5693,-2.5693,-2.5693,-2.5693,-2.5693,-2.5693,-2.5693,-2.5693,-2.5693,-2.5693,-2.5693,-2.5693,-2.5693,-2.5693,-2.5693,-2.5693,-2.5693,-2.5693,-2.5693,-2.5693,-2.5693,-2.5693,-2.5693,-2.5693,-2.5693,-2.5693,-2.5693,-2.5693,-2.5693,-2.5693,-2.5693,-2.5693,-2.5693,-2.5693,-2.5693,-0.8332,-0.9116,-0.9953,-1.1069,-1.1577,-1.2044,-1.2993,-1.3353,-1.378,-1.471,-1.4975,-1.5137,-1.5718,-1.5784,-1.5784,-1.5784,-1.5784,-1.5784,-1.5784,-1.5784,-1.5784,-1.5784,-1.5784,-1.5784,-1.5784,-1.5784,-1.5784,-1.5784,-1.5784,-1.5784,-1.5784,-1.5784,-1.5945,-1.6186,-1.6246,-1.6556,-1.7045,-1.7152,-1.732,-1.7508,-1.7818,-1.9161,-2.1448,-2.4146,-2.5479,-2.5693,-2.5693,-2.5693,-2.5693,-2.5693,-2.5693,-2.5693,-2.5693,-2.5693,-2.5693,-2.5693,-2.5693,-2.5693,-2.5693,-2.5693,-2.5693,-2.5693,-2.5693,-2.5693,-2.5693,-2.5693,-2.5693,-2.5693,-2.5693,-2.5693,-2.5693,-2.5693,-2.5693,-2.5693,-2.5693,-2.5693,-2.5693,-2.5693,-2.5693,-2.5693,-2.5693,-2.5693,-2.5693,-2.5693,-2.5693,-2.5693,-2.5693,-2.5693,-2.5693,-2.5693,-2.5693,-2.5693,-2.5693,-2.5693,-2.5693,-2.5693,-2.5693,-2.5693,-2.5693,-2.5693,-2.5693,-2.5693,-2.5693,-2.5693,-2.5693,-2.5693,-2.5693,-2.5693,-2.5693,-2.5693,-2.5693,-2.5693,-0.7438,-0.8672,-0.9907,-1.0822,-1.1269,-1.1784,-1.2946,-1.324,-1.352,-1.4396,-1.4783,-1.5137,-1.5718,-1.5784,-1.5784,-1.5784,-1.5784,-1.5784,-1.5784,-1.5784,-1.5784,-1.5784,-1.5784,-1.5784,-1.5784,-1.5784,-1.5784,-1.5784,-1.5784,-1.5784,-1.5784,-1.5784,-1.5798,-1.5885,-1.6139,-1.6362,-1.6442,-1.6945,-1.7219,-1.7259,-1.8683,-1.9524,-1.9981,-2.2726,-2.4609,-2.5693,-2.5693,-2.5693,-2.5693,-2.5693,-2.5693,-2.5693,-2.5693,-2.5693,-2.5693,-2.5693,-2.5693,-2.5693,-2.5693,-2.5693,-2.5693,-2.5693,-2.5693,-2.5693,-2.5693,-2.5693,-2.5693,-2.5693,-2.5693,-2.5693,-2.5693,-2.5693,-2.5693,-2.5693,-2.5693,-2.5693,-2.5693,-2.5693,-2.5693,-2.5693,-2.5693,-2.5693,-2.5693,-2.5693,-2.5693,-2.5693,-2.5693,-2.5693,-2.5693,-2.5693,-2.5693,-2.5693,-2.5693,-2.5693,-2.5693,-2.5693,-2.5693,-2.5693,-2.5693,-2.5693,-2.5693,-2.5693,-2.5693,-2.5693,-2.5693,-2.5693,-2.5693,-2.5693,-2.5693,-2.5693,-2.5693,-2.5693,-0.748,-0.8465,-0.9366,-1.0473,-1.1089,-1.1615,-1.2505,-1.2966,-1.3414,-1.4128,-1.4509,-1.4897,-1.5478,-1.5718,-1.5784,-1.5784,-1.5784,-1.5784,-1.5784,-1.5784,-1.5784,-1.5784,-1.5784,-1.5784,-1.5784,-1.5784,-1.5784,-1.5784,-1.5784,-1.5784,-1.5784,-1.5784,-1.5784,-1.5784,-1.5952,-1.6106,-1.6321,-1.6576,-1.6878,-1.7206,-1.8054,-1.8864,-1.9687,-2.1656,-2.3309,-2.4634,-2.5352,-2.5693,-2.5693,-2.5693,-2.5693,-2.5693,-2.5693,-2.5693,-2.5693,-2.5693,-2.5693,-2.5693,-2.5693,-2.5693,-2.5693,-2.5693,-2.5693,-2.5693,-2.5693,-2.5693,-2.5693,-2.5693,-2.5693,-2.5693,-2.5693,-2.5693,-2.5693,-2.5693,-2.5693,-2.5693,-2.5693,-2.5693,-2.5693,-2.5693,-2.5693,-2.5693,-2.5693,-2.5693,-2.5693,-2.5693,-2.5693,-2.5693,-2.5693,-2.5693,-2.5693,-2.5693,-2.5693,-2.5693,-2.5693,-2.5693,-2.5693,-2.5693,-2.5693,-2.5693,-2.5693,-2.5693,-2.5693,-2.5693,-2.5693,-2.5693,-2.5693,-2.5693,-2.5693,-2.5693,-2.5693,-2.5693,-0.7273,-0.7977,-0.8546,-0.9854,-1.0562,-1.115,-1.2095,-1.2652,-1.3166,-1.3834,-1.4208,-1.4563,-1.5077,-1.5471,-1.5745,-1.5771,-1.5784,-1.5784,-1.5784,-1.5784,-1.5784,-1.5784,-1.5784,-1.5784,-1.5784,-1.5784,-1.5784,-1.5784,-1.5784,-1.5784,-1.5784,-1.5784,-1.5784,-1.5784,-1.5784,-1.5939,-1.6159,-1.6239,-1.6616,-1.7206,-1.7777,-1.8584,-1.9687,-2.1399,-2.2697,-2.3623,-2.5049,-2.5693,-2.5693,-2.5693,-2.5693,-2.5693,-2.5693,-2.5693,-2.5693,-2.5693,-2.5693,-2.5693,-2.5693,-2.5693,-2.5693,-2.5693,-2.5693,-2.5693,-2.5693,-2.5693,-2.5693,-2.5693,-2.5693,-2.5693,-2.5693,-2.5693,-2.5693,-2.5693,-2.5693,-2.5693,-2.5693,-2.5693,-2.5693,-2.5693,-2.5693,-2.5693,-2.5693,-2.5693,-2.5693,-2.5693,-2.5693,-2.5693,-2.5693,-2.5693,-2.5693,-2.5693,-2.5693,-2.5693,-2.5693,-2.5693,-2.5693,-2.5693,-2.5693,-2.5693,-2.5693,-2.5693,-2.5693,-2.5693,-2.5693,-2.5693,-2.5693,-2.5693,-2.5693,-2.5693,-2.5693,-2.5693,-0.6243,-0.682,-0.7472,-0.8763,-0.9349,-1.0063,-1.1893,-1.2325,-1.2599,-1.3447,-1.3901,-1.4202,-1.4509,-1.5037,-1.5504,-1.5738,-1.5784,-1.5784,-1.5784,-1.5784,-1.5784,-1.5784,-1.5784,-1.5784,-1.5784,-1.5784,-1.5784,-1.5784,-1.5784,-1.5784,-1.5784,-1.5784,-1.5784,-1.5784,-1.5784,-1.5791,-1.5852,-1.6132,-1.6616,-1.7199,-1.8513,-1.9285,-1.9687,-2.2359,-2.3415,-2.3126,-2.4913,-2.5693,-2.5693,-2.5693,-2.5693,-2.5693,-2.5693,-2.5693,-2.5693,-2.5693,-2.5693,-2.5693,-2.5693,-2.5693,-2.5693,-2.5693,-2.5693,-2.5693,-2.5693,-2.5693,-2.5693,-2.5693,-2.5693,-2.5693,-2.5693,-2.5693,-2.5693,-2.5693,-2.5693,-2.5693,-2.5693,-2.5693,-2.5693,-2.5693,-2.5693,-2.5693,-2.5693,-2.5693,-2.5693,-2.5693,-2.5693,-2.5693,-2.5693,-2.5693,-2.5693,-2.5693,-2.5693,-2.5693,-2.5693,-2.5693,-2.5693,-2.5693,-2.5693,-2.5693,-2.5693,-2.5693,-2.5693,-2.5693,-2.5693,-2.5693,-2.5693,-2.5693,-2.5693,-2.5693,-2.5693,-2.5693,-0.5446,-0.5971,-0.6495,-0.7538,-0.8638,-0.9679,-1.0336,-1.1439,-1.2392,-1.2712,-1.3327,-1.3853,-1.4188,-1.4877,-1.5431,-1.5531,-1.5705,-1.5784,-1.5784,-1.5784,-1.5784,-1.5784,-1.5784,-1.5784,-1.5784,-1.5784,-1.5784,-1.5784,-1.5784,-1.5784,-1.5784,-1.5784,-1.5784,-1.5784,-1.5784,-1.5784,-1.5784,-1.6126,-1.6429,-1.6636,-1.7262,-1.821,-1.9423,-2.1235,-2.2405,-2.3126,-2.4913,-2.5693,-2.5693,-2.5693,-2.5693,-2.5693,-2.5693,-2.5693,-2.5693,-2.5693,-2.5693,-2.5693,-2.5693,-2.5693,-2.5693,-2.5693,-2.5693,-2.5693,-2.5693,-2.5693,-2.5693,-2.5693,-2.5693,-2.5693,-2.5693,-2.5693,-2.5693,-2.5693,-2.5693,-2.5693,-2.5693,-2.5693,-2.5693,-2.5693,-2.5693,-2.5693,-2.5693,-2.5693,-2.5693,-2.5693,-2.5693,-2.5693,-2.5693,-2.5693,-2.5693,-2.5693,-2.5693,-2.5693,-2.5693,-2.5693,-2.5693,-2.5693,-2.5693,-2.5693,-2.5693,-2.5693,-2.5693,-2.5693,-2.5693,-2.5693,-2.5693,-2.5693,-2.5693,-2.5693,-2.5693,-2.5693,-0.4675,-0.506,-0.5498,-0.6473,-0.7542,-0.8536,-0.933,-1.0472,-1.154,-1.2181,-1.2779,-1.3273,-1.3721,-1.4436,-1.5023,-1.5217,-1.5491,-1.5685,-1.5685,-1.5718,-1.5784,-1.5784,-1.5784,-1.5784,-1.5784,-1.5784,-1.5784,-1.5784,-1.5784,-1.5784,-1.5784,-1.5784,-1.5784,-1.5784,-1.5784,-1.5784,-1.5784,-1.6025,-1.6172,-1.6321,-1.6952,-1.7888,-1.9085,-2.104,-2.2624,-2.3952,-2.5157,-2.5693,-2.5693,-2.5693,-2.5693,-2.5693,-2.5693,-2.5693,-2.5693,-2.5693,-2.5693,-2.5693,-2.5693,-2.5693,-2.5693,-2.5693,-2.5693,-2.5693,-2.5693,-2.5693,-2.5693,-2.5693,-2.5693,-2.5693,-2.5693,-2.5693,-2.5693,-2.5693,-2.5693,-2.5693,-2.5693,-2.5693,-2.5693,-2.5693,-2.5693,-2.5693,-2.5693,-2.5693,-2.5693,-2.5693,-2.5693,-2.5693,-2.5693,-2.5693,-2.5693,-2.5693,-2.5693,-2.5693,-2.5693,-2.5693,-2.5693,-2.5693,-2.5693,-2.5693,-2.5693,-2.5693,-2.5693,-2.5693,-2.5693,-2.5693,-2.5693,-2.5693,-2.5693,-2.5693,-2.5693,-2.5693,0.0,0.0,0.0,-0.5663,-0.5968,-0.6593,-0.8868,-0.9436,-1.0011,-1.1831,-1.2271,-1.2472,-1.3073,-1.3654,-1.4278,-1.4861,-1.5223,-1.5384,-1.5384,-1.5625,-1.5758,-1.5764,-1.5764,-1.5771,-1.5784,-1.5784,-1.5784,-1.5784,-1.5784,-1.5784,-1.5784,-1.5784,-1.5784,-1.5784,-1.5784,-1.5784,-1.5784,-1.5784,-1.5972,-1.6308,-1.7587,-1.8368,-1.8796,-2.1799,-2.4089,-2.5712,-2.5703,-2.5684,-2.5693,-2.5693,-2.5693,-2.5693,-2.5693,-2.5693,-2.5693,-2.5693,-2.5693,-2.5693,-2.5693,-2.5693,-2.5693,-2.5693,-2.5693,-2.5693,-2.5693,-2.5693,-2.5693,-2.5693,-2.5693,-2.5693,-2.5693,-2.5693,-2.5693,-2.5693,-2.5693,-2.5693,-2.5693,-2.5693,-2.5693,-2.5693,-2.5693,-2.5693,-2.5693,-2.5693,-2.5693,-2.5693,-2.5693,-2.5693,-2.5693,-2.5693,-2.5693,-2.5693,-2.5693,-2.5693,-2.5693,-2.5693,-2.5693,-2.5693,-2.5693,-2.5693,-2.5693,-2.5693,-2.5693,-2.5693,-2.5693,-2.5693,-2.5693,-2.5693,-2.5693,-2.5693,-2.5693,-2.5693,-0.3954,0.0,0.0,0.0,0.0,0.0,-0.6822,-0.8273,-0.9635,-1.0164,-1.119,-1.2104,-1.2485,-1.2859,-1.3286,-1.3634,-1.4476,-1.5129,-1.5129,-1.515,-1.5284,-1.5491,-1.5518,-1.5598,-1.5758,-1.5784,-1.5784,-1.5784,-1.5784,-1.5784,-1.5784,-1.5784,-1.5784,-1.5784,-1.5784,-1.5784,-1.5784,-1.5784,-1.5872,-1.5952,-1.632,-1.7189,-1.8449,-1.9278,-2.1874,-2.5702,-2.5683,-2.5684,-2.5693,-2.5693,-2.5693,-2.5693,-2.5693,-2.5693,-2.5693,-2.5693,-2.5693,-2.5693,-2.5693,-2.5693,-2.5693,-2.5693,-2.5693,-2.5693,-2.5693,-2.5693,-2.5693,-2.5693,-2.5693,-2.5693,-2.5693,-2.5693,-2.5693,-2.5693,-2.5693,-2.5693,-2.5693,-2.5693,-2.5693,-2.5693,-2.5693,-2.5693,-2.5693,-2.5693,-2.5693,-2.5693,-2.5693,-2.5693,-2.5693,-2.5693,-2.5693,-2.5693,-2.5693,-2.5693,-2.5693,-2.5693,-2.5693,-2.5693,-2.5693,-2.5693,-2.5693,-2.5693,-2.5693,-2.5693,-2.5693,-2.5693,-2.5693,-2.5693,-2.5693,-2.5693,-2.5693,-2.5693,-0.4031,-0.4045,-0.409,-0.4416,0.0,0.0,-0.6302,-0.7511,-0.8776,-0.9775,-1.0692,-1.1484,-1.1857,-1.2214,-1.2516,-1.2779,-1.3548,-1.4211,-1.4586,-1.4854,-1.5068,-1.5197,-1.5217,-1.5331,-1.5618,-1.5651,-1.5698,-1.5771,-1.5784,-1.5784,-1.5784,-1.5784,-1.5784,-1.5784,-1.5784,-1.5784,-1.5784,-1.5784,-1.5784,-1.5784,-1.5784,-1.6286,-1.7263,-1.796,-1.9494,-2.1743,-2.4515,-2.517,-2.4397,-2.5344,-2.5693,-2.5693,-2.5693,-2.5693,-2.5693,-2.5693,-2.5693,-2.5693,-2.5693,-2.5693,-2.5693,-2.5693,-2.5693,-2.5693,-2.5693,-2.5693,-2.5693,-2.5693,-2.5693,-2.5693,-2.5693,-2.5693,-2.5693,-2.5693,-2.5693,-2.5693,-2.5693,-2.5693,-2.5693,-2.5693,-2.5693,-2.5693,-2.5693,-2.5693,-2.5693,-2.5693,-2.5693,-2.5693,-2.5693,-2.5693,-2.5693,-2.5693,-2.5693,-2.5693,-2.5693,-2.5693,-2.5693,-2.5693,-2.5693,-2.5693,-2.5693,-2.5693,-2.5693,-2.5693,-2.5693,-2.5693,-2.5693,-2.5693,-2.5693,-2.5693,-2.5693,-2.5693,-0.4123,-0.4122,-0.4111,-0.4419,-0.4491,0.0,-0.6468,-0.6899,-0.7578,-0.9649,-1.0184,-1.0437,-1.1042,-1.1344,-1.1633,-1.2075,-1.2394,-1.2882,-1.3861,-1.4479,-1.4834,-1.4901,-1.4908,-1.5035,-1.5317,-1.5351,-1.5471,-1.5758,-1.5764,-1.5784,-1.5784,-1.5784,-1.5784,-1.5784,-1.5784,-1.5784,-1.5784,-1.5784,-1.5784,-1.5784,-1.5784,-1.5784,-1.5838,-1.7325,-1.7196,-1.6163,-2.2241,-2.3805,-2.2259,-2.4337,-2.5392,-2.5693,-2.5693,-2.5693,-2.5693,-2.5693,-2.5693,-2.5693,-2.5693,-2.5693,-2.5693,-2.5693,-2.5693,-2.5693,-2.5693,-2.5693,-2.5693,-2.5693,-2.5693,-2.5693,-2.5693,-2.5693,-2.5693,-2.5693,-2.5693,-2.5693,-2.5693,-2.5693,-2.5693,-2.5693,-2.5693,-2.5693,-2.5693,-2.5693,-2.5693,-2.5693,-2.5693,-2.5693,-2.5693,-2.5693,-2.5693,-2.5693,-2.5693,-2.5693,-2.5693,-2.5693,-2.5693,-2.5693,-2.5693,-2.5693,-2.5693,-2.5693,-2.5693,-2.5693,-2.5693,-2.5693,-2.5693,-2.5693,-2.5693,-2.5693,-2.5693,-2.5693,-0.418,-0.4174,-0.422,-0.4447,-0.4491,0.0,-0.4942,-0.5635,-0.6339,-0.6803,-0.7537,-0.84,-0.9295,-0.9168,-0.9423,-1.0988,-1.1121,-1.1565,-1.3134,-1.348,-1.3728,-1.4202,-1.4262,-1.4512,-1.5042,-1.5095,-1.517,-1.5458,-1.5698,-1.5784,-1.5784,-1.5784,-1.5784,-1.5784,-1.5784,-1.5784,-1.5784,-1.5784,-1.5784,-1.5784,-1.5784,-1.5784,-1.5832,-1.6116,-1.6103,-1.5945,-1.8621,-1.9918,-2.0336,-2.1558,-2.3492,-2.5693,-2.5693,-2.5693,-2.5693,-2.5693,-2.5693,-2.5693,-2.5693,-2.5693,-2.5693,-2.5693,-2.5693,-2.5693,-2.5693,-2.5693,-2.5693,-2.5693,-2.5693,-2.5693,-2.5693,-2.5693,-2.5693,-2.5693,-2.5693,-2.5693,-2.5693,-2.5693,-2.5693,-2.5693,-2.5693,-2.5693,-2.5693,-2.5693,-2.5693,-2.5693,-2.5693,-2.5693,-2.5693,-2.5693,-2.5693,-2.5693,-2.5693,-2.5693,-2.5693,-2.5693,-2.5693,-2.5693,-2.5693,-2.5693,-2.5693,-2.5693,-2.5693,-2.5693,-2.5693,-2.5693,-2.5693,-2.5693,-2.5693,-2.5693,-2.5693,-2.5693,-0.4355,-0.4277,-0.4257,-0.4453,-0.4491,0.0,0.0,-0.5393,-0.5903,-0.6431,-0.6942,-0.7502,-0.8119,-0.8043,-0.8204,-0.9311,-0.9823,-1.0406,-1.1427,-1.2372,-1.3125,-1.3427,-1.3554,-1.3881,-1.4469,-1.4566,-1.477,-1.5351,-1.5531,-1.5678,-1.5771,-1.5784,-1.5784,-1.5784,-1.5784,-1.5784,-1.5784,-1.5784,-1.5784,-1.5784,-1.5784,-1.5784,-1.5784,-1.5784,-1.5798,-1.5892,-1.7567,-1.8593,-1.9136,-2.0573,-2.2102,-2.3559,-2.4377,-2.5118,-2.5693,-2.5693,-2.5693,-2.5693,-2.5693,-2.5693,-2.5693,-2.5693,-2.5693,-2.5693,-2.5693,-2.5693,-2.5693,-2.5693,-2.5693,-2.5693,-2.5693,-2.5693,-2.5693,-2.5693,-2.5693,-2.5693,-2.5693,-2.5693,-2.5693,-2.5693,-2.5693,-2.5693,-2.5693,-2.5693,-2.5693,-2.5693,-2.5693,-2.5693,-2.5693,-2.5693,-2.5693,-2.5693,-2.5693,-2.5693,-2.5693,-2.5693,-2.5693,-2.5693,-2.5693,-2.5693,-2.5693,-2.5693,-2.5693,-2.5693,-2.5693,-2.5693,-2.5693,-2.5693,-2.5693,-2.5693,-2.5693,-2.5693,-0.4535,-0.4399,-0.4291,-0.446,-0.4491,-0.4653,0.0,0.0,0.0,-0.6421,-0.66,-0.6705,-0.7051,-0.7032,-0.7121,-0.7659,-0.8376,-0.8986,-0.932,-1.0823,-1.2059,-1.2589,-1.2852,-1.3247,-1.3822,-1.3988,-1.4382,-1.509,-1.5251,-1.5438,-1.5732,-1.5698,-1.5772,-1.5784,-1.5784,-1.5784,-1.5784,-1.5784,-1.5784,-1.5784,-1.5784,-1.5784,-1.5784,-1.5784,-1.5784,-1.5886,-1.7256,-1.7871,-1.8015,-1.9591,-2.045,-2.0892,-2.2644,-2.3998,-2.4971,-2.5226,-2.5323,-2.5333,-2.5586,-2.5693,-2.5693,-2.5693,-2.5693,-2.5693,-2.5693,-2.5693,-2.5693,-2.5693,-2.5693,-2.5693,-2.5693,-2.5693,-2.5693,-2.5693,-2.5693,-2.5693,-2.5693,-2.5693,-2.5693,-2.5693,-2.5693,-2.5693,-2.5693,-2.5693,-2.5693,-2.5693,-2.5693,-2.5693,-2.5693,-2.5693,-2.5693,-2.5693,-2.5693,-2.5693,-2.5693,-2.5693,-2.5693,-2.5693,-2.5693,-2.5693,-2.5693,-2.5693,-2.5693,-2.5693,-2.5693,-2.5693,-2.5693,-2.5693,-2.5693,-2.5693,-2.5693,-2.5645,-0.4663,-0.4583,-0.447,-0.4487,-0.4491,-0.4515,-0.4598,0.0,-0.466,-0.4757,0.0,-0.4986,-0.5601,0.0,0.0,-0.6559,-0.6653,-0.6766,-0.7344,-0.8083,-0.9414,-1.1737,-1.2225,-1.2538,-1.2904,-1.3661,-1.4128,-1.4229,-1.4716,-1.5137,-1.5431,-1.5444,-1.5565,-1.5771,-1.5784,-1.5784,-1.5784,-1.5784,-1.5784,-1.5784,-1.5784,-1.5784,-1.5784,-1.5784,-1.5784,-1.5832,-1.6001,-1.6265,-1.6516,-1.6773,-1.7723,-1.9204,-2.1186,-2.2005,-2.2307,-2.3484,-2.3949,-2.4097,-2.5284,-2.5693,-2.5693,-2.5693,-2.5693,-2.5693,-2.5693,-2.5693,-2.5693,-2.5693,-2.5693,-2.5693,-2.5693,-2.5693,-2.5693,-2.5693,-2.5693,-2.5693,-2.5693,-2.5693,-2.5693,-2.5693,-2.5693,-2.5693,-2.5693,-2.5693,-2.5693,-2.5693,-2.5693,-2.5693,-2.5693,-2.5693,-2.5693,-2.5693,-2.5693,-2.5693,-2.5693,-2.5693,-2.5693,-2.5693,-2.5693,-2.5693,-2.5693,-2.5693,-2.5693,-2.5693,-2.5693,-2.5693,-2.5693,-2.5693,-2.5693,-2.5693,-2.5693,-2.5527,-0.4972,-0.484,-0.4707,-0.4644,-0.4624,-0.46,-0.4511,-0.4491,-0.4491,-0.4491,0.0,0.0,0.0,0.0,0.0,0.0,-0.5772,-0.6174,-0.6435,-0.7183,-0.8186,-0.9483,-1.0396,-1.1317,-1.2425,-1.3025,-1.3568,-1.4048,-1.4315,-1.473,-1.5364,-1.5398,-1.5531,-1.5771,-1.5784,-1.5784,-1.5784,-1.5784,-1.5784,-1.5784,-1.5784,-1.5784,-1.5784,-1.5784,-1.5784,-1.5784,-1.5784,-1.5899,-1.6025,-1.6206,-1.6682,-1.7407,-1.8432,-1.9861,-2.1503,-2.2281,-2.2567,-2.2717,-2.4048,-2.4559,-2.4658,-2.543,-2.5693,-2.5693,-2.5693,-2.5693,-2.5693,-2.5693,-2.5693,-2.5693,-2.5693,-2.5693,-2.5693,-2.5693,-2.5693,-2.5693,-2.5693,-2.5693,-2.5693,-2.5693,-2.5693,-2.5693,-2.5693,-2.5693,-2.5693,-2.5693,-2.5693,-2.5693,-2.5693,-2.5693,-2.5693,-2.5693,-2.5693,-2.5693,-2.5693,-2.5693,-2.5693,-2.5693,-2.5693,-2.5693,-2.5693,-2.5693,-2.5693,-2.5693,-2.5693,-2.5693,-2.5693,-2.5478,-2.5352,-2.5352,-2.5352,-2.5107,-0.5237,-0.5056,-0.4911,-0.4792,-0.4721,-0.466,-0.458,-0.4518,-0.4491,-0.4491,-0.4491,0.0,0.0,0.0,-0.4389,-0.4266,0.0,-0.5426,-0.5362,-0.6045,-0.6856,-0.7771,-0.8934,-1.0184,-1.1501,-1.2204,-1.2851,-1.354,-1.3828,-1.4282,-1.4997,-1.519,-1.5411,-1.5705,-1.5744,-1.5784,-1.5784,-1.5784,-1.5784,-1.5784,-1.5784,-1.5784,-1.5784,-1.5784,-1.5784,-1.5784,-1.5784,-1.5784,-1.5798,-1.6059,-1.6152,-1.6179,-1.6473,-1.7924,-1.9935,-2.0736,-2.1063,-2.1296,-2.2667,-2.3384,-2.3939,-2.5274,-2.5693,-2.5693,-2.5693,-2.5693,-2.5693,-2.5693,-2.5693,-2.5693,-2.5693,-2.5693,-2.5693,-2.5693,-2.5693,-2.5693,-2.5693,-2.5693,-2.5693,-2.5693,-2.5693,-2.5693,-2.5693,-2.5693,-2.5693,-2.5693,-2.5693,-2.5693,-2.5693,-2.5693,-2.5693,-2.5693,-2.5693,-2.5693,-2.5693,-2.5693,-2.5693,-2.5693,-2.5693,-2.5693,-2.5693,-2.5693,-2.5693,-2.5693,-2.5567,-2.5557,-2.5557,-2.5107,-2.4824,-2.4763,-2.4881,-2.4658,-0.5429,-0.524,-0.5059,-0.4918,-0.4799,-0.4691,-0.4684,-0.4597,-0.4491,-0.4491,-0.4491,-0.4447,-0.4254,-0.4204,-0.4089,-0.3703,-0.3877,0.0,0.0,-0.3938,-0.4965,-0.7238,-0.84,-0.9292,-0.9931,-1.1162,-1.206,-1.2338,-1.3127,-1.3753,-1.4115,-1.4713,-1.5156,-1.5398,-1.5678,-1.5784,-1.5784,-1.5784,-1.5784,-1.5784,-1.5784,-1.5784,-1.5784,-1.5784,-1.5784,-1.5784,-1.5784,-1.5784,-1.5784,-1.5791,-1.5798,-1.5872,-1.6166,-1.639,-1.6709,-1.8575,-1.946,-1.9878,-2.1296,-2.2617,-2.3939,-2.5274,-2.5693,-2.5693,-2.5693,-2.5693,-2.5693,-2.5693,-2.5693,-2.5693,-2.5693,-2.5693,-2.5693,-2.5693,-2.5693,-2.5693,-2.5693,-2.5693,-2.5693,-2.5693,-2.5693,-2.5693,-2.5693,-2.5693,-2.5693,-2.5693,-2.5693,-2.5693,-2.5693,-2.5693,-2.5693,-2.5693,-2.5693,-2.5693,-2.5693,-2.5693,-2.5693,-2.5693,-2.5693,-2.5693,-2.5693,-2.5693,-2.5693,-2.5693,-2.5312,-2.5135,-2.5135,-2.4648,-2.4228,-2.3838,-2.4248,-2.4209,-0.5844,-0.5691,-0.5515,-0.5274,-0.5204,-0.5115,-0.4887,-0.4724,-0.4641,-0.4641,-0.4559,-0.4474,-0.4399,-0.4389,-0.4311,-0.4038,-0.4082,-0.4075,0.0,-0.3933,-0.4332,-0.5222,-0.6253,-0.7525,-0.9162,-0.9906,-1.0795,-1.1964,-1.2478,-1.3146,-1.4041,-1.4275,-1.4696,-1.5378,-1.5491,-1.5631,-1.5778,-1.5784,-1.5784,-1.5784,-1.5784,-1.5784,-1.5784,-1.5784,-1.5784,-1.5784,-1.5784,-1.5784,-1.5784,-1.5784,-1.5784,-1.5791,-1.5939,-1.6099,-1.6444,-1.7477,-1.7914,-1.8231,-1.9802,-2.1202,-2.2458,-2.2926,-2.3633,-2.4353,-2.4353,-2.502,-2.5693,-2.5693,-2.5693,-2.5693,-2.5693,-2.5693,-2.5693,-2.5693,-2.5693,-2.5693,-2.5693,-2.5693,-2.5693,-2.5693,-2.5693,-2.5693,-2.5693,-2.5693,-2.5693,-2.5693,-2.5693,-2.5693,-2.5693,-2.5693,-2.5693,-2.5693,-2.5693,-2.5693,-2.5693,-2.5693,-2.5693,-2.5693,-2.5693,-2.5693,-2.5693,-2.5449,-2.5293,-2.5293,-2.4863,-2.4639,-2.4639,-2.4209,-2.3926,-2.3789,-2.3643,-2.3452,-0.6169,-0.604,-0.5895,-0.5627,-0.5515,-0.5412,-0.5131,-0.4955,-0.4833,-0.4782,-0.465,-0.4556,-0.4501,-0.445,-0.4338,-0.4166,-0.4095,-0.4008,0.0,-0.3863,-0.3913,-0.4115,-0.5005,-0.6369,-0.8297,-0.8999,-1.0004,-1.1608,-1.2078,-1.2732,-1.3721,-1.3975,-1.4442,-1.5217,-1.5344,-1.5538,-1.5778,-1.5784,-1.5784,-1.5784,-1.5784,-1.5784,-1.5784,-1.5784,-1.5784,-1.5784,-1.5784,-1.5784,-1.5784,-1.5784,-1.5784,-1.5784,-1.5784,-1.5945,-1.6172,-1.671,-1.7025,-1.7445,-1.9059,-2.0187,-2.1041,-2.155,-2.2257,-2.2976,-2.2976,-2.3949,-2.4971,-2.4971,-2.5333,-2.5693,-2.5693,-2.5693,-2.5693,-2.5693,-2.5693,-2.5693,-2.5693,-2.5693,-2.5693,-2.5693,-2.5693,-2.5693,-2.5693,-2.5693,-2.5693,-2.5693,-2.5693,-2.5693,-2.5693,-2.5693,-2.5693,-2.5693,-2.5693,-2.5693,-2.5693,-2.5693,-2.5693,-2.5693,-2.5586,-2.5498,-2.5498,-2.5068,-2.499,-2.5303,-2.457,-2.4346,-2.4648,-2.3916,-2.3555,-2.3555,-2.3227,-2.3091]}]]